Wetterdaten: Montag, 15.02.2016
Datum Zeit Auen-Temp. Temp gefhlt Luftfeuchte Luftdruck Regen Wind Richtung Richtung Sonnenschein Taupunkt Windben
15.02.2016 00:00 0,6 C 0,3 C 91 % 997,0 hPa 0,0 mm 0,0 km/h (0 Bft) NW 315 0 min -0,7 C 0,0 km/h (0 Bft)
15.02.2016 00:01 0,6 C 0,3 C 91 % 997,0 hPa 0,0 mm 0,0 km/h (0 Bft) W-NW 292 0 min -0,7 C 0,0 km/h (0 Bft)
15.02.2016 00:02 0,6 C 0,3 C 91 % 997,0 hPa 0,0 mm 0,0 km/h (0 Bft) W-NW 292 0 min -0,7 C 0,0 km/h (0 Bft)
15.02.2016 00:03 0,6 C 0,3 C 91 % 997,1 hPa 0,0 mm 0,0 km/h (0 Bft) W-NW 292 0 min -0,7 C 0,0 km/h (0 Bft)
15.02.2016 00:04 0,6 C 0,3 C 91 % 997,1 hPa 0,0 mm 0,0 km/h (0 Bft) W-NW 292 0 min -0,7 C 0,0 km/h (0 Bft)
15.02.2016 00:05 0,5 C 0,2 C 91 % 997,1 hPa 0,0 mm 0,0 km/h (0 Bft) O-SO 112 0 min -0,8 C 0,0 km/h (0 Bft)
15.02.2016 00:06 0,5 C 0,2 C 91 % 997,1 hPa 0,0 mm 0,0 km/h (0 Bft) O-SO 112 0 min -0,8 C 0,0 km/h (0 Bft)
15.02.2016 00:07 0,6 C 0,3 C 91 % 997,1 hPa 0,0 mm 0,0 km/h (0 Bft) NW 315 0 min -0,7 C 0,0 km/h (0 Bft)
15.02.2016 00:08 0,6 C 0,3 C 91 % 997,1 hPa 0,0 mm 0,0 km/h (0 Bft) NW 315 0 min -0,7 C 0,0 km/h (0 Bft)
15.02.2016 00:09 0,5 C 0,2 C 91 % 997,1 hPa 0,0 mm 0,0 km/h (0 Bft) N-NO 22 0 min -0,8 C 0,0 km/h (0 Bft)
15.02.2016 00:10 0,5 C 0,2 C 91 % 997,1 hPa 0,0 mm 0,0 km/h (0 Bft) N-NO 22 0 min -0,8 C 0,0 km/h (0 Bft)
15.02.2016 00:11 0,5 C 0,2 C 91 % 997,1 hPa 0,0 mm 0,0 km/h (0 Bft) O-SO 112 0 min -0,8 C 0,0 km/h (0 Bft)
15.02.2016 00:12 0,5 C 0,2 C 91 % 997,1 hPa 0,0 mm 0,0 km/h (0 Bft) O-SO 112 0 min -0,8 C 0,0 km/h (0 Bft)
15.02.2016 00:13 0,6 C 0,3 C 91 % 997,1 hPa 0,0 mm 0,0 km/h (0 Bft) O-SO 112 0 min -0,7 C 0,0 km/h (0 Bft)
15.02.2016 00:14 0,6 C 0,3 C 91 % 997,1 hPa 0,0 mm 0,0 km/h (0 Bft) O-SO 112 0 min -0,7 C 0,0 km/h (0 Bft)
15.02.2016 00:15 0,6 C 0,3 C 91 % 997,1 hPa 0,0 mm 0,0 km/h (0 Bft) O-SO 112 0 min -0,7 C 0,0 km/h (0 Bft)
15.02.2016 00:16 0,6 C 0,3 C 91 % 997,1 hPa 0,0 mm 0,0 km/h (0 Bft) O-SO 112 0 min -0,7 C 0,0 km/h (0 Bft)
15.02.2016 00:17 0,5 C 0,3 C 91 % 997,1 hPa 0,0 mm 0,0 km/h (0 Bft) NW 315 0 min -0,8 C 0,0 km/h (0 Bft)
15.02.2016 00:18 0,5 C 0,3 C 91 % 997,1 hPa 0,0 mm 0,0 km/h (0 Bft) NW 315 0 min -0,8 C 0,0 km/h (0 Bft)
15.02.2016 00:19 0,5 C 0,3 C 91 % 997,1 hPa 0,0 mm 0,0 km/h (0 Bft) NO 45 0 min -0,8 C 0,0 km/h (0 Bft)
15.02.2016 00:20 0,5 C 0,3 C 91 % 997,1 hPa 0,0 mm 0,0 km/h (0 Bft) NO 45 0 min -0,8 C 0,0 km/h (0 Bft)
15.02.2016 00:21 0,5 C 0,3 C 91 % 997,1 hPa 0,0 mm 0,0 km/h (0 Bft) N-NW 337 0 min -0,8 C 0,0 km/h (0 Bft)
15.02.2016 00:22 0,5 C 0,3 C 91 % 997,1 hPa 0,0 mm 0,0 km/h (0 Bft) N-NW 337 0 min -0,8 C 0,0 km/h (0 Bft)
15.02.2016 00:23 0,4 C 0,2 C 91 % 997,4 hPa 0,0 mm 0,3 km/h (0 Bft) NW 315 0 min -0,9 C 4,2 km/h (1 Bft)
15.02.2016 00:24 0,4 C 0,2 C 91 % 997,4 hPa 0,0 mm 0,3 km/h (0 Bft) NW 315 0 min -0,9 C 4,2 km/h (1 Bft)
15.02.2016 00:25 0,4 C 0,2 C 91 % 997,4 hPa 0,0 mm 0,6 km/h (0 Bft) W-NW 292 0 min -0,9 C 0,0 km/h (0 Bft)
15.02.2016 00:26 0,4 C 0,2 C 91 % 997,4 hPa 0,0 mm 0,6 km/h (0 Bft) W-NW 292 0 min -0,9 C 0,0 km/h (0 Bft)
15.02.2016 00:27 0,3 C 0,1 C 91 % 997,4 hPa 0,0 mm 0,6 km/h (0 Bft) SW 225 0 min -1,0 C 0,0 km/h (0 Bft)
15.02.2016 00:28 0,3 C 0,1 C 91 % 997,4 hPa 0,0 mm 0,6 km/h (0 Bft) SW 225 0 min -1,0 C 0,0 km/h (0 Bft)
15.02.2016 00:29 0,4 C 0,1 C 91 % 997,4 hPa 0,0 mm 0,6 km/h (0 Bft) O 90 0 min -0,9 C 0,0 km/h (0 Bft)
15.02.2016 00:30 0,4 C 0,1 C 91 % 997,4 hPa 0,0 mm 0,6 km/h (0 Bft) O 90 0 min -0,9 C 0,0 km/h (0 Bft)
15.02.2016 00:31 0,4 C 0,1 C 91 % 997,4 hPa 0,0 mm 0,6 km/h (0 Bft) N-NO 22 0 min -0,9 C 0,0 km/h (0 Bft)
15.02.2016 00:32 0,4 C 0,1 C 91 % 997,4 hPa 0,0 mm 0,6 km/h (0 Bft) N-NO 22 0 min -0,9 C 0,0 km/h (0 Bft)
15.02.2016 00:33 0,4 C 0,1 C 91 % 997,4 hPa 0,0 mm 0,6 km/h (0 Bft) O-NO 67 0 min -0,9 C 0,0 km/h (0 Bft)
15.02.2016 00:34 0,4 C 0,1 C 91 % 997,4 hPa 0,0 mm 0,6 km/h (0 Bft) O-NO 67 0 min -0,9 C 0,0 km/h (0 Bft)
15.02.2016 00:35 0,4 C 0,1 C 91 % 997,4 hPa 0,0 mm 0,0 km/h (0 Bft) O 90 0 min -0,9 C 0,0 km/h (0 Bft)
15.02.2016 00:36 0,4 C 0,1 C 91 % 997,4 hPa 0,0 mm 0,0 km/h (0 Bft) O 90 0 min -0,9 C 0,0 km/h (0 Bft)
15.02.2016 00:37 0,4 C 0,1 C 91 % 997,4 hPa 0,0 mm 0,0 km/h (0 Bft) O-SO 112 0 min -0,9 C 0,0 km/h (0 Bft)
15.02.2016 00:38 0,4 C 0,1 C 91 % 997,4 hPa 0,0 mm 0,0 km/h (0 Bft) O-SO 112 0 min -0,9 C 0,0 km/h (0 Bft)
15.02.2016 00:39 0,5 C 0,2 C 91 % 997,4 hPa 0,0 mm 0,0 km/h (0 Bft) SO 135 0 min -0,8 C 0,0 km/h (0 Bft)
15.02.2016 00:40 0,5 C 0,2 C 91 % 997,4 hPa 0,0 mm 0,0 km/h (0 Bft) SO 135 0 min -0,8 C 0,0 km/h (0 Bft)
15.02.2016 00:41 0,5 C 0,2 C 92 % 997,4 hPa 0,0 mm 0,0 km/h (0 Bft) SO 135 0 min -0,6 C 0,0 km/h (0 Bft)
15.02.2016 00:42 0,5 C 0,2 C 92 % 997,4 hPa 0,0 mm 0,0 km/h (0 Bft) SO 135 0 min -0,6 C 0,0 km/h (0 Bft)
15.02.2016 00:43 0,5 C 0,2 C 92 % 997,6 hPa 0,0 mm 0,0 km/h (0 Bft) SO 135 0 min -0,6 C 0,0 km/h (0 Bft)
15.02.2016 00:44 0,5 C 0,2 C 92 % 997,6 hPa 0,0 mm 0,0 km/h (0 Bft) SO 135 0 min -0,6 C 0,0 km/h (0 Bft)
15.02.2016 00:45 0,6 C 0,2 C 92 % 997,6 hPa 0,0 mm 0,0 km/h (0 Bft) S-SO 157 0 min -0,5 C 0,0 km/h (0 Bft)
15.02.2016 00:46 0,6 C 0,2 C 92 % 997,6 hPa 0,0 mm 0,0 km/h (0 Bft) S-SO 157 0 min -0,5 C 0,0 km/h (0 Bft)
15.02.2016 00:47 0,6 C 0,3 C 92 % 997,6 hPa 0,0 mm 0,0 km/h (0 Bft) S 180 0 min -0,5 C 0,0 km/h (0 Bft)
15.02.2016 00:48 0,6 C 0,3 C 92 % 997,6 hPa 0,0 mm 0,0 km/h (0 Bft) S 180 0 min -0,5 C 0,0 km/h (0 Bft)
15.02.2016 00:49 0,6 C 0,3 C 92 % 997,6 hPa 0,0 mm 0,0 km/h (0 Bft) SO 135 0 min -0,5 C 0,0 km/h (0 Bft)
15.02.2016 00:50 0,6 C 0,3 C 92 % 997,6 hPa 0,0 mm 0,0 km/h (0 Bft) SO 135 0 min -0,5 C 0,0 km/h (0 Bft)
15.02.2016 00:52 0,6 C 0,3 C 92 % 997,6 hPa 0,0 mm 0,3 km/h (0 Bft) SO 135 0 min -0,5 C 4,5 km/h (1 Bft)
15.02.2016 00:53 0,6 C 0,3 C 92 % 997,6 hPa 0,0 mm 0,3 km/h (0 Bft) S-SO 157 0 min -0,5 C 0,0 km/h (0 Bft)
15.02.2016 00:54 0,6 C 0,3 C 92 % 997,6 hPa 0,0 mm 0,3 km/h (0 Bft) S-SO 157 0 min -0,5 C 4,5 km/h (1 Bft)
15.02.2016 00:55 0,6 C 0,3 C 92 % 997,6 hPa 0,0 mm 0,3 km/h (0 Bft) O-NO 67 0 min -0,5 C 0,0 km/h (0 Bft)
15.02.2016 00:56 0,6 C 0,3 C 92 % 997,6 hPa 0,0 mm 0,3 km/h (0 Bft) O-NO 67 0 min -0,5 C 0,0 km/h (0 Bft)
15.02.2016 00:57 0,4 C 0,1 C 92 % 997,6 hPa 0,0 mm 0,3 km/h (0 Bft) NO 45 0 min -0,7 C 0,0 km/h (0 Bft)
15.02.2016 00:58 0,4 C 0,1 C 92 % 997,6 hPa 0,0 mm 0,3 km/h (0 Bft) NO 45 0 min -0,7 C 0,0 km/h (0 Bft)
15.02.2016 00:59 0,3 C 0,1 C 92 % 997,6 hPa 0,0 mm 0,3 km/h (0 Bft) O-NO 67 0 min -0,8 C 0,0 km/h (0 Bft)
15.02.2016 01:00 0,3 C 0,1 C 92 % 997,6 hPa 0,0 mm 0,3 km/h (0 Bft) O-NO 67 0 min -0,8 C 0,0 km/h (0 Bft)
15.02.2016 01:01 0,3 C 0,0 C 92 % 997,6 hPa 0,0 mm 0,3 km/h (0 Bft) SW 225 0 min -0,8 C 0,0 km/h (0 Bft)
15.02.2016 01:02 0,3 C 0,0 C 92 % 997,6 hPa 0,0 mm 0,3 km/h (0 Bft) SW 225 0 min -0,8 C 0,0 km/h (0 Bft)
15.02.2016 01:03 0,3 C 0,0 C 92 % 997,7 hPa 0,0 mm 0,0 km/h (0 Bft) W 270 0 min -0,8 C 0,0 km/h (0 Bft)
15.02.2016 01:04 0,3 C 0,0 C 92 % 997,7 hPa 0,0 mm 0,0 km/h (0 Bft) W 270 0 min -0,8 C 0,0 km/h (0 Bft)
15.02.2016 01:05 0,4 C 0,1 C 92 % 997,7 hPa 0,0 mm 0,0 km/h (0 Bft) SO 135 0 min -0,7 C 0,0 km/h (0 Bft)
15.02.2016 01:06 0,4 C 0,1 C 92 % 997,7 hPa 0,0 mm 0,0 km/h (0 Bft) SO 135 0 min -0,7 C 0,0 km/h (0 Bft)
15.02.2016 01:07 0,3 C 0,0 C 92 % 997,7 hPa 0,0 mm 0,0 km/h (0 Bft) O-NO 67 0 min -0,8 C 0,0 km/h (0 Bft)
15.02.2016 01:08 0,3 C 0,0 C 92 % 997,7 hPa 0,0 mm 0,0 km/h (0 Bft) O-NO 67 0 min -0,8 C 0,0 km/h (0 Bft)
15.02.2016 01:09 0,2 C -0,1 C 92 % 997,7 hPa 0,0 mm 0,0 km/h (0 Bft) O 90 0 min -0,9 C 0,0 km/h (0 Bft)
15.02.2016 01:10 0,2 C -0,1 C 92 % 997,7 hPa 0,0 mm 0,0 km/h (0 Bft) O 90 0 min -0,9 C 0,0 km/h (0 Bft)
15.02.2016 01:11 0,2 C -0,1 C 92 % 997,7 hPa 0,0 mm 0,0 km/h (0 Bft) O 90 0 min -0,9 C 0,0 km/h (0 Bft)
15.02.2016 01:12 0,2 C -0,1 C 92 % 997,7 hPa 0,0 mm 0,0 km/h (0 Bft) O 90 0 min -0,9 C 0,0 km/h (0 Bft)
15.02.2016 01:13 0,1 C -0,2 C 92 % 997,7 hPa 0,0 mm 0,0 km/h (0 Bft) O 90 0 min -1,0 C 0,0 km/h (0 Bft)
15.02.2016 01:14 0,1 C -0,2 C 92 % 997,7 hPa 0,0 mm 0,0 km/h (0 Bft) O 90 0 min -1,0 C 0,0 km/h (0 Bft)
15.02.2016 01:15 0,0 C -0,3 C 92 % 997,7 hPa 0,0 mm 0,0 km/h (0 Bft) O 90 0 min -1,1 C 0,0 km/h (0 Bft)
15.02.2016 01:16 0,0 C -0,3 C 92 % 997,7 hPa 0,0 mm 0,0 km/h (0 Bft) O 90 0 min -1,1 C 0,0 km/h (0 Bft)
15.02.2016 01:17 0,0 C -0,3 C 92 % 997,7 hPa 0,0 mm 0,0 km/h (0 Bft) O 90 0 min -1,1 C 0,0 km/h (0 Bft)
15.02.2016 01:18 0,0 C -0,3 C 92 % 997,7 hPa 0,0 mm 0,0 km/h (0 Bft) O 90 0 min -1,1 C 0,0 km/h (0 Bft)
15.02.2016 01:19 -0,1 C -0,4 C 91 % 997,7 hPa 0,0 mm 0,0 km/h (0 Bft) W-SW 247 0 min -1,4 C 0,0 km/h (0 Bft)
15.02.2016 01:20 -0,1 C -0,4 C 91 % 997,7 hPa 0,0 mm 0,0 km/h (0 Bft) W-SW 247 0 min -1,4 C 0,0 km/h (0 Bft)
15.02.2016 01:21 -0,1 C -0,4 C 91 % 997,7 hPa 0,0 mm 0,0 km/h (0 Bft) O-SO 112 0 min -1,4 C 0,0 km/h (0 Bft)
15.02.2016 01:22 -0,1 C -0,4 C 91 % 997,7 hPa 0,0 mm 0,0 km/h (0 Bft) O-SO 112 0 min -1,4 C 0,0 km/h (0 Bft)
15.02.2016 01:23 0,1 C -0,3 C 92 % 997,7 hPa 0,0 mm 0,0 km/h (0 Bft) S-SO 157 0 min -1,0 C 0,0 km/h (0 Bft)
15.02.2016 01:24 0,1 C -0,3 C 92 % 997,7 hPa 0,0 mm 0,0 km/h (0 Bft) S-SO 157 0 min -1,0 C 0,0 km/h (0 Bft)
15.02.2016 01:25 0,4 C -0,1 C 92 % 997,7 hPa 0,0 mm 0,6 km/h (0 Bft) S-SO 157 0 min -0,7 C 0,0 km/h (0 Bft)
15.02.2016 01:26 0,4 C -0,1 C 92 % 997,7 hPa 0,0 mm 0,6 km/h (0 Bft) S-SO 157 0 min -0,7 C 0,0 km/h (0 Bft)
15.02.2016 01:27 0,4 C -0,1 C 92 % 997,7 hPa 0,0 mm 0,6 km/h (0 Bft) S 180 0 min -0,7 C 0,0 km/h (0 Bft)
15.02.2016 01:28 0,4 C -0,1 C 92 % 997,7 hPa 0,0 mm 0,6 km/h (0 Bft) S 180 0 min -0,7 C 0,0 km/h (0 Bft)
15.02.2016 01:29 0,3 C -0,1 C 92 % 997,7 hPa 0,0 mm 0,6 km/h (0 Bft) S 180 0 min -0,8 C 0,0 km/h (0 Bft)
15.02.2016 01:30 0,3 C -0,1 C 92 % 997,7 hPa 0,0 mm 0,6 km/h (0 Bft) S 180 0 min -0,8 C 0,0 km/h (0 Bft)
15.02.2016 01:31 0,2 C -0,2 C 92 % 997,7 hPa 0,0 mm 0,6 km/h (0 Bft) S-SO 157 0 min -0,9 C 0,0 km/h (0 Bft)
15.02.2016 01:32 0,2 C -0,2 C 92 % 997,7 hPa 0,0 mm 0,6 km/h (0 Bft) S-SO 157 0 min -0,9 C 0,0 km/h (0 Bft)
15.02.2016 01:33 0,3 C -0,1 C 92 % 997,7 hPa 0,0 mm 0,6 km/h (0 Bft) S-SO 157 0 min -0,8 C 0,0 km/h (0 Bft)
15.02.2016 01:34 0,3 C -0,1 C 92 % 997,7 hPa 0,0 mm 0,6 km/h (0 Bft) S-SO 157 0 min -0,8 C 0,0 km/h (0 Bft)
15.02.2016 01:35 0,3 C -0,1 C 92 % 997,7 hPa 0,0 mm 0,0 km/h (0 Bft) SO 135 0 min -0,8 C 0,0 km/h (0 Bft)
15.02.2016 01:36 0,3 C -0,1 C 92 % 997,7 hPa 0,0 mm 0,0 km/h (0 Bft) SO 135 0 min -0,8 C 0,0 km/h (0 Bft)
15.02.2016 01:37 0,3 C -0,1 C 92 % 997,7 hPa 0,0 mm 0,0 km/h (0 Bft) O-SO 112 0 min -0,8 C 0,0 km/h (0 Bft)
15.02.2016 01:38 0,3 C -0,1 C 92 % 997,7 hPa 0,0 mm 0,0 km/h (0 Bft) O-SO 112 0 min -0,8 C 0,0 km/h (0 Bft)
15.02.2016 01:39 0,3 C -0,1 C 92 % 997,7 hPa 0,0 mm 0,0 km/h (0 Bft) O-SO 112 0 min -0,8 C 0,0 km/h (0 Bft)
15.02.2016 01:40 0,3 C -0,1 C 92 % 997,7 hPa 0,0 mm 0,0 km/h (0 Bft) O-SO 112 0 min -0,8 C 0,0 km/h (0 Bft)
15.02.2016 01:41 0,3 C -0,1 C 92 % 997,7 hPa 0,0 mm 0,0 km/h (0 Bft) O-NO 67 0 min -0,8 C 0,0 km/h (0 Bft)
15.02.2016 01:42 0,3 C -0,1 C 92 % 997,7 hPa 0,0 mm 0,0 km/h (0 Bft) O-NO 67 0 min -0,8 C 0,0 km/h (0 Bft)
15.02.2016 01:43 0,0 C -0,3 C 92 % 997,9 hPa 0,0 mm 0,0 km/h (0 Bft) NW 315 0 min -1,1 C 0,0 km/h (0 Bft)
15.02.2016 01:44 0,0 C -0,3 C 92 % 997,9 hPa 0,0 mm 0,0 km/h (0 Bft) NW 315 0 min -1,1 C 0,0 km/h (0 Bft)
15.02.2016 01:45 -0,2 C -0,5 C 92 % 997,9 hPa 0,0 mm 0,0 km/h (0 Bft) N-NW 337 0 min -1,3 C 0,0 km/h (0 Bft)
15.02.2016 01:46 -0,2 C -0,5 C 92 % 997,9 hPa 0,0 mm 0,0 km/h (0 Bft) N-NW 337 0 min -1,3 C 0,0 km/h (0 Bft)
15.02.2016 01:47 -0,4 C -0,7 C 92 % 997,9 hPa 0,0 mm 0,0 km/h (0 Bft) NO 45 0 min -1,5 C 0,0 km/h (0 Bft)
15.02.2016 01:48 -0,4 C -0,7 C 92 % 997,9 hPa 0,0 mm 0,0 km/h (0 Bft) NO 45 0 min -1,5 C 0,0 km/h (0 Bft)
15.02.2016 01:49 -0,5 C -0,8 C 92 % 997,9 hPa 0,0 mm 0,0 km/h (0 Bft) NO 45 0 min -1,6 C 0,0 km/h (0 Bft)
15.02.2016 01:50 -0,5 C -0,8 C 92 % 997,9 hPa 0,0 mm 0,0 km/h (0 Bft) NO 45 0 min -1,6 C 0,0 km/h (0 Bft)
15.02.2016 01:51 -0,7 C -1,0 C 92 % 997,9 hPa 0,0 mm 0,0 km/h (0 Bft) NW 315 0 min -1,8 C 0,0 km/h (0 Bft)
15.02.2016 01:52 -0,7 C -1,0 C 92 % 997,9 hPa 0,0 mm 0,0 km/h (0 Bft) NW 315 0 min -1,8 C 0,0 km/h (0 Bft)
15.02.2016 01:53 -0,7 C -1,0 C 91 % 997,9 hPa 0,0 mm 0,0 km/h (0 Bft) N-NW 337 0 min -2,0 C 0,0 km/h (0 Bft)
15.02.2016 01:54 -0,7 C -1,0 C 91 % 997,9 hPa 0,0 mm 0,0 km/h (0 Bft) N-NW 337 0 min -2,0 C 0,0 km/h (0 Bft)
15.02.2016 01:55 -0,6 C -1,0 C 91 % 997,9 hPa 0,0 mm 0,0 km/h (0 Bft) O-SO 112 0 min -1,9 C 0,0 km/h (0 Bft)
15.02.2016 01:56 -0,6 C -1,0 C 91 % 997,9 hPa 0,0 mm 0,0 km/h (0 Bft) O-SO 112 0 min -1,9 C 0,0 km/h (0 Bft)
15.02.2016 01:57 -0,5 C -0,9 C 91 % 997,9 hPa 0,0 mm 0,0 km/h (0 Bft) O-SO 112 0 min -1,8 C 0,0 km/h (0 Bft)
15.02.2016 01:58 -0,5 C -0,9 C 91 % 997,9 hPa 0,0 mm 0,0 km/h (0 Bft) O-SO 112 0 min -1,8 C 0,0 km/h (0 Bft)
15.02.2016 01:59 -0,4 C -0,8 C 91 % 997,9 hPa 0,0 mm 0,0 km/h (0 Bft) O-SO 112 0 min -1,7 C 0,0 km/h (0 Bft)
15.02.2016 02:00 -0,4 C -0,8 C 91 % 997,9 hPa 0,0 mm 0,0 km/h (0 Bft) O-SO 112 0 min -1,7 C 0,0 km/h (0 Bft)
15.02.2016 02:01 -0,4 C -0,8 C 92 % 997,9 hPa 0,0 mm 0,0 km/h (0 Bft) O-SO 112 0 min -1,5 C 0,0 km/h (0 Bft)
15.02.2016 02:02 -0,4 C -0,8 C 92 % 997,9 hPa 0,0 mm 0,0 km/h (0 Bft) O-SO 112 0 min -1,5 C 0,0 km/h (0 Bft)
15.02.2016 02:03 -0,5 C -0,9 C 91 % 998,3 hPa 0,0 mm 0,0 km/h (0 Bft) O-SO 112 0 min -1,8 C 0,0 km/h (0 Bft)
15.02.2016 02:04 -0,5 C -0,9 C 91 % 998,3 hPa 0,0 mm 0,0 km/h (0 Bft) O-SO 112 0 min -1,8 C 0,0 km/h (0 Bft)
15.02.2016 02:05 -0,6 C -1,0 C 91 % 998,3 hPa 0,0 mm 0,0 km/h (0 Bft) O-SO 112 0 min -1,9 C 0,0 km/h (0 Bft)
15.02.2016 02:06 -0,6 C -1,0 C 91 % 998,3 hPa 0,0 mm 0,0 km/h (0 Bft) O-SO 112 0 min -1,9 C 0,0 km/h (0 Bft)
15.02.2016 02:07 -0,6 C -1,0 C 91 % 998,3 hPa 0,0 mm 0,0 km/h (0 Bft) O-SO 112 0 min -1,9 C 0,0 km/h (0 Bft)
15.02.2016 02:08 -0,6 C -1,0 C 91 % 998,3 hPa 0,0 mm 0,0 km/h (0 Bft) O-SO 112 0 min -1,9 C 0,0 km/h (0 Bft)
15.02.2016 02:09 -0,5 C -0,9 C 91 % 998,3 hPa 0,0 mm 0,0 km/h (0 Bft) O-SO 112 0 min -1,8 C 0,0 km/h (0 Bft)
15.02.2016 02:10 -0,5 C -0,9 C 91 % 998,3 hPa 0,0 mm 0,0 km/h (0 Bft) O-SO 112 0 min -1,8 C 0,0 km/h (0 Bft)
15.02.2016 02:11 -0,4 C -0,7 C 92 % 998,3 hPa 0,0 mm 0,6 km/h (0 Bft) O-SO 112 0 min -1,5 C 6,9 km/h (2 Bft)
15.02.2016 02:12 -0,4 C -0,7 C 92 % 998,3 hPa 0,0 mm 0,6 km/h (0 Bft) O-SO 112 0 min -1,5 C 6,9 km/h (2 Bft)
15.02.2016 02:13 -0,1 C -0,5 C 92 % 998,3 hPa 0,0 mm 1,5 km/h (1 Bft) O-SO 112 0 min -1,2 C 3,9 km/h (1 Bft)
15.02.2016 02:14 -0,1 C -0,5 C 92 % 998,3 hPa 0,0 mm 1,5 km/h (1 Bft) O-SO 112 0 min -1,2 C 6,9 km/h (2 Bft)
15.02.2016 02:15 -0,1 C -0,4 C 92 % 998,3 hPa 0,0 mm 2,4 km/h (1 Bft) O-SO 112 0 min -1,2 C 3,6 km/h (1 Bft)
15.02.2016 02:16 -0,1 C -0,4 C 92 % 998,3 hPa 0,0 mm 2,4 km/h (1 Bft) O-SO 112 0 min -1,2 C 3,6 km/h (1 Bft)
15.02.2016 02:17 0,0 C -0,3 C 92 % 998,3 hPa 0,0 mm 2,4 km/h (1 Bft) O-SO 112 0 min -1,1 C 0,0 km/h (0 Bft)
15.02.2016 02:18 0,0 C -0,3 C 92 % 998,3 hPa 0,0 mm 2,4 km/h (1 Bft) O-SO 112 0 min -1,1 C 0,0 km/h (0 Bft)
15.02.2016 02:19 0,0 C -0,2 C 86 % 998,3 hPa 0,0 mm 3,0 km/h (1 Bft) O-SO 112 0 min -2,1 C 3,6 km/h (1 Bft)
15.02.2016 02:20 0,0 C -0,2 C 86 % 998,3 hPa 0,0 mm 3,0 km/h (1 Bft) O-SO 112 0 min -2,1 C 3,6 km/h (1 Bft)
15.02.2016 02:21 0,0 C -0,2 C 86 % 998,3 hPa 0,0 mm 3,3 km/h (1 Bft) O-SO 112 0 min -2,1 C 3,3 km/h (1 Bft)
15.02.2016 02:22 0,0 C -0,2 C 86 % 998,3 hPa 0,0 mm 3,3 km/h (1 Bft) O-SO 112 0 min -2,1 C 3,3 km/h (1 Bft)
15.02.2016 02:23 0,1 C -0,1 C 92 % 998,6 hPa 0,0 mm 2,7 km/h (1 Bft) O-SO 112 0 min -1,0 C 3,9 km/h (1 Bft)
15.02.2016 02:24 0,1 C -0,1 C 92 % 998,6 hPa 0,0 mm 2,7 km/h (1 Bft) O-SO 112 0 min -1,0 C 3,9 km/h (1 Bft)
15.02.2016 02:25 0,1 C -0,1 C 86 % 998,6 hPa 0,0 mm 2,4 km/h (1 Bft) O-SO 112 0 min -2,0 C 0,0 km/h (0 Bft)
15.02.2016 02:26 0,1 C -0,1 C 86 % 998,6 hPa 0,0 mm 2,4 km/h (1 Bft) O-SO 112 0 min -2,0 C 0,0 km/h (0 Bft)
15.02.2016 02:27 0,2 C 0,0 C 92 % 998,6 hPa 0,0 mm 1,8 km/h (1 Bft) O-SO 112 0 min -0,9 C 0,0 km/h (0 Bft)
15.02.2016 02:28 0,2 C 0,0 C 92 % 998,6 hPa 0,0 mm 1,8 km/h (1 Bft) O-SO 112 0 min -0,9 C 0,0 km/h (0 Bft)
15.02.2016 02:29 0,2 C 0,0 C 86 % 998,6 hPa 0,0 mm 1,8 km/h (1 Bft) O-SO 112 0 min -1,9 C 0,0 km/h (0 Bft)
15.02.2016 02:30 0,2 C 0,0 C 86 % 998,6 hPa 0,0 mm 1,8 km/h (1 Bft) O-SO 112 0 min -1,9 C 0,0 km/h (0 Bft)
15.02.2016 02:31 0,4 C 0,1 C 93 % 998,6 hPa 0,0 mm 1,2 km/h (1 Bft) O-SO 112 0 min -0,6 C 0,0 km/h (0 Bft)
15.02.2016 02:32 0,4 C 0,1 C 93 % 998,6 hPa 0,0 mm 1,2 km/h (1 Bft) O-SO 112 0 min -0,6 C 0,0 km/h (0 Bft)
15.02.2016 02:33 0,4 C 0,1 C 93 % 998,6 hPa 0,0 mm 0,6 km/h (0 Bft) O-SO 112 0 min -0,6 C 0,0 km/h (0 Bft)
15.02.2016 02:34 0,4 C 0,1 C 93 % 998,6 hPa 0,0 mm 0,6 km/h (0 Bft) O-SO 112 0 min -0,6 C 0,0 km/h (0 Bft)
15.02.2016 02:35 0,3 C 0,1 C 93 % 998,6 hPa 0,0 mm 0,3 km/h (0 Bft) O-SO 112 0 min -0,7 C 3,6 km/h (1 Bft)
15.02.2016 02:36 0,3 C 0,1 C 93 % 998,6 hPa 0,0 mm 0,3 km/h (0 Bft) O-SO 112 0 min -0,7 C 3,6 km/h (1 Bft)
15.02.2016 02:37 0,3 C 0,1 C 93 % 998,6 hPa 0,0 mm 0,3 km/h (0 Bft) O-SO 112 0 min -0,7 C 0,0 km/h (0 Bft)
15.02.2016 02:38 0,3 C 0,1 C 93 % 998,6 hPa 0,0 mm 0,3 km/h (0 Bft) O-SO 112 0 min -0,7 C 0,0 km/h (0 Bft)
15.02.2016 02:39 0,3 C 0,1 C 93 % 998,6 hPa 0,0 mm 0,3 km/h (0 Bft) O-SO 112 0 min -0,7 C 0,0 km/h (0 Bft)
15.02.2016 02:40 0,3 C 0,1 C 93 % 998,6 hPa 0,0 mm 0,3 km/h (0 Bft) O-SO 112 0 min -0,7 C 0,0 km/h (0 Bft)
15.02.2016 02:41 0,3 C 0,1 C 93 % 998,6 hPa 0,0 mm 0,3 km/h (0 Bft) O-SO 112 0 min -0,7 C 0,0 km/h (0 Bft)
15.02.2016 02:42 0,3 C 0,1 C 93 % 998,6 hPa 0,0 mm 0,3 km/h (0 Bft) O-SO 112 0 min -0,7 C 0,0 km/h (0 Bft)
15.02.2016 02:43 0,3 C 0,1 C 93 % 998,4 hPa 0,0 mm 0,3 km/h (0 Bft) O-SO 112 0 min -0,7 C 0,0 km/h (0 Bft)
15.02.2016 02:44 0,3 C 0,1 C 93 % 998,4 hPa 0,0 mm 0,3 km/h (0 Bft) O-SO 112 0 min -0,7 C 0,0 km/h (0 Bft)
15.02.2016 02:45 0,2 C 0,0 C 93 % 998,4 hPa 0,0 mm 0,3 km/h (0 Bft) O-SO 112 0 min -0,8 C 0,0 km/h (0 Bft)
15.02.2016 02:46 0,2 C 0,0 C 93 % 998,4 hPa 0,0 mm 0,3 km/h (0 Bft) O-SO 112 0 min -0,8 C 0,0 km/h (0 Bft)
15.02.2016 02:47 0,1 C -0,1 C 93 % 998,4 hPa 0,0 mm 0,0 km/h (0 Bft) O-SO 112 0 min -0,9 C 0,0 km/h (0 Bft)
15.02.2016 02:48 0,1 C -0,1 C 93 % 998,4 hPa 0,0 mm 0,0 km/h (0 Bft) O-SO 112 0 min -0,9 C 0,0 km/h (0 Bft)
15.02.2016 02:49 0,0 C -0,1 C 93 % 998,4 hPa 0,0 mm 0,0 km/h (0 Bft) O-SO 112 0 min -1,0 C 0,0 km/h (0 Bft)
15.02.2016 02:50 0,0 C -0,1 C 93 % 998,4 hPa 0,0 mm 0,0 km/h (0 Bft) O-SO 112 0 min -1,0 C 0,0 km/h (0 Bft)
15.02.2016 02:51 0,0 C -0,2 C 93 % 998,4 hPa 0,0 mm 0,0 km/h (0 Bft) O-SO 112 0 min -1,0 C 0,0 km/h (0 Bft)
15.02.2016 02:52 0,0 C -0,2 C 93 % 998,4 hPa 0,0 mm 0,0 km/h (0 Bft) O-SO 112 0 min -1,0 C 0,0 km/h (0 Bft)
15.02.2016 02:53 0,0 C -0,2 C 93 % 998,4 hPa 0,0 mm 0,0 km/h (0 Bft) O-SO 112 0 min -1,0 C 0,0 km/h (0 Bft)
15.02.2016 02:54 0,0 C -0,2 C 93 % 998,4 hPa 0,0 mm 0,0 km/h (0 Bft) O-SO 112 0 min -1,0 C 0,0 km/h (0 Bft)
15.02.2016 02:55 0,0 C -0,2 C 93 % 998,4 hPa 0,0 mm 0,0 km/h (0 Bft) O-SO 112 0 min -1,0 C 0,0 km/h (0 Bft)
15.02.2016 02:56 0,0 C -0,2 C 93 % 998,4 hPa 0,0 mm 0,0 km/h (0 Bft) O-SO 112 0 min -1,0 C 0,0 km/h (0 Bft)
15.02.2016 02:57 0,0 C -0,2 C 93 % 998,4 hPa 0,0 mm 0,0 km/h (0 Bft) O-SO 112 0 min -1,0 C 0,0 km/h (0 Bft)
15.02.2016 02:58 0,0 C -0,2 C 93 % 998,4 hPa 0,0 mm 0,0 km/h (0 Bft) O-SO 112 0 min -1,0 C 0,0 km/h (0 Bft)
15.02.2016 02:59 0,0 C -0,2 C 93 % 998,4 hPa 0,0 mm 0,0 km/h (0 Bft) O-SO 112 0 min -1,0 C 0,0 km/h (0 Bft)
15.02.2016 03:00 0,0 C -0,2 C 93 % 998,4 hPa 0,0 mm 0,0 km/h (0 Bft) O-SO 112 0 min -1,0 C 0,0 km/h (0 Bft)
15.02.2016 03:01 -0,2 C -0,4 C 92 % 998,4 hPa 0,0 mm 0,0 km/h (0 Bft) O-SO 112 0 min -1,3 C 0,0 km/h (0 Bft)
15.02.2016 03:02 -0,2 C -0,4 C 92 % 998,4 hPa 0,0 mm 0,0 km/h (0 Bft) O-SO 112 0 min -1,3 C 0,0 km/h (0 Bft)
15.02.2016 03:03 -0,2 C -0,4 C 92 % 998,7 hPa 0,0 mm 0,0 km/h (0 Bft) O-SO 112 0 min -1,3 C 0,0 km/h (0 Bft)
15.02.2016 03:04 -0,2 C -0,4 C 92 % 998,7 hPa 0,0 mm 0,0 km/h (0 Bft) O-SO 112 0 min -1,3 C 0,0 km/h (0 Bft)
15.02.2016 03:05 -0,4 C -0,6 C 92 % 998,7 hPa 0,0 mm 0,9 km/h (0 Bft) O-SO 112 0 min -1,5 C 9,8 km/h (2 Bft)
15.02.2016 03:06 -0,4 C -0,6 C 92 % 998,7 hPa 0,0 mm 0,9 km/h (0 Bft) O-SO 112 0 min -1,5 C 9,8 km/h (2 Bft)
15.02.2016 03:07 0,0 C -0,3 C 92 % 998,7 hPa 0,0 mm 1,2 km/h (1 Bft) O-SO 112 0 min -1,1 C 5,4 km/h (1 Bft)
15.02.2016 03:08 0,0 C -0,3 C 92 % 998,7 hPa 0,0 mm 1,2 km/h (1 Bft) O-SO 112 0 min -1,1 C 5,4 km/h (1 Bft)
15.02.2016 03:09 0,1 C -0,2 C 93 % 998,7 hPa 0,0 mm 2,4 km/h (1 Bft) O-SO 112 0 min -0,9 C 4,5 km/h (1 Bft)
15.02.2016 03:10 0,1 C -0,2 C 93 % 998,7 hPa 0,0 mm 2,4 km/h (1 Bft) O-SO 112 0 min -0,9 C 4,5 km/h (1 Bft)
15.02.2016 03:11 0,2 C -0,1 C 93 % 998,7 hPa 0,0 mm 2,7 km/h (1 Bft) O-SO 112 0 min -0,8 C 0,0 km/h (0 Bft)
15.02.2016 03:12 0,2 C -0,1 C 93 % 998,7 hPa 0,0 mm 2,7 km/h (1 Bft) O-SO 112 0 min -0,8 C 0,0 km/h (0 Bft)
15.02.2016 03:13 0,1 C -0,2 C 93 % 998,7 hPa 0,0 mm 2,7 km/h (1 Bft) O-SO 112 0 min -0,9 C 0,0 km/h (0 Bft)
15.02.2016 03:14 0,1 C -0,2 C 93 % 998,7 hPa 0,0 mm 2,7 km/h (1 Bft) O-SO 112 0 min -0,9 C 9,8 km/h (2 Bft)
15.02.2016 03:15 0,1 C -0,2 C 93 % 998,7 hPa 0,0 mm 2,7 km/h (1 Bft) O-SO 112 0 min -0,9 C 0,0 km/h (0 Bft)
15.02.2016 03:16 0,1 C -0,2 C 93 % 998,7 hPa 0,0 mm 2,7 km/h (1 Bft) O-SO 112 0 min -0,9 C 0,0 km/h (0 Bft)
15.02.2016 03:17 0,2 C -0,1 C 93 % 998,7 hPa 0,0 mm 1,5 km/h (1 Bft) O-SO 112 0 min -0,8 C 0,0 km/h (0 Bft)
15.02.2016 03:18 0,2 C -0,1 C 93 % 998,7 hPa 0,0 mm 1,5 km/h (1 Bft) O-SO 112 0 min -0,8 C 0,0 km/h (0 Bft)
15.02.2016 03:19 0,2 C -0,1 C 93 % 998,7 hPa 0,0 mm 0,6 km/h (0 Bft) O-SO 112 0 min -0,8 C 0,0 km/h (0 Bft)
15.02.2016 03:20 0,2 C -0,1 C 93 % 998,7 hPa 0,0 mm 0,6 km/h (0 Bft) O-SO 112 0 min -0,8 C 0,0 km/h (0 Bft)
15.02.2016 03:21 0,1 C -0,2 C 93 % 998,7 hPa 0,0 mm 0,0 km/h (0 Bft) O-SO 112 0 min -0,9 C 0,0 km/h (0 Bft)
15.02.2016 03:22 0,1 C -0,2 C 93 % 998,7 hPa 0,0 mm 0,0 km/h (0 Bft) O-SO 112 0 min -0,9 C 0,0 km/h (0 Bft)
15.02.2016 03:23 0,1 C -0,2 C 86 % 998,8 hPa 0,0 mm 0,0 km/h (0 Bft) O-SO 112 0 min -2,0 C 0,0 km/h (0 Bft)
15.02.2016 03:24 0,1 C -0,2 C 86 % 998,8 hPa 0,0 mm 0,0 km/h (0 Bft) O-SO 112 0 min -2,0 C 0,0 km/h (0 Bft)
15.02.2016 03:25 0,1 C -0,2 C 93 % 998,8 hPa 0,0 mm 0,0 km/h (0 Bft) O-SO 112 0 min -0,9 C 0,0 km/h (0 Bft)
15.02.2016 03:26 0,1 C -0,2 C 93 % 998,8 hPa 0,0 mm 0,0 km/h (0 Bft) O-SO 112 0 min -0,9 C 0,0 km/h (0 Bft)
15.02.2016 03:27 0,0 C -0,3 C 93 % 998,8 hPa 0,0 mm 0,0 km/h (0 Bft) O-SO 112 0 min -1,0 C 0,0 km/h (0 Bft)
15.02.2016 03:28 0,0 C -0,3 C 93 % 998,8 hPa 0,0 mm 0,0 km/h (0 Bft) O-SO 112 0 min -1,0 C 0,0 km/h (0 Bft)
15.02.2016 03:29 0,1 C -0,2 C 93 % 998,8 hPa 0,0 mm 0,0 km/h (0 Bft) O-SO 112 0 min -0,9 C 0,0 km/h (0 Bft)
15.02.2016 03:30 0,1 C -0,2 C 93 % 998,8 hPa 0,0 mm 0,0 km/h (0 Bft) O-SO 112 0 min -0,9 C 0,0 km/h (0 Bft)
15.02.2016 03:31 0,1 C -0,2 C 93 % 998,8 hPa 0,0 mm 0,0 km/h (0 Bft) O-SO 112 0 min -0,9 C 0,0 km/h (0 Bft)
15.02.2016 03:32 0,1 C -0,2 C 93 % 998,8 hPa 0,0 mm 0,0 km/h (0 Bft) O-SO 112 0 min -0,9 C 0,0 km/h (0 Bft)
15.02.2016 03:33 0,1 C -0,1 C 86 % 998,8 hPa 0,0 mm 0,0 km/h (0 Bft) O-SO 112 0 min -2,0 C 0,0 km/h (0 Bft)
15.02.2016 03:34 0,1 C -0,1 C 86 % 998,8 hPa 0,0 mm 0,0 km/h (0 Bft) O-SO 112 0 min -2,0 C 0,0 km/h (0 Bft)
15.02.2016 03:35 0,1 C -0,2 C 93 % 998,8 hPa 0,0 mm 0,0 km/h (0 Bft) O-SO 112 0 min -0,9 C 0,0 km/h (0 Bft)
15.02.2016 03:36 0,1 C -0,2 C 93 % 998,8 hPa 0,0 mm 0,0 km/h (0 Bft) O-SO 112 0 min -0,9 C 0,0 km/h (0 Bft)
15.02.2016 03:37 0,1 C -0,2 C 93 % 998,8 hPa 0,0 mm 0,0 km/h (0 Bft) O-SO 112 0 min -0,9 C 0,0 km/h (0 Bft)
15.02.2016 03:38 0,1 C -0,2 C 93 % 998,8 hPa 0,0 mm 0,0 km/h (0 Bft) O-SO 112 0 min -0,9 C 0,0 km/h (0 Bft)
15.02.2016 03:39 0,1 C -0,1 C 86 % 998,8 hPa 0,0 mm 0,0 km/h (0 Bft) O-SO 112 0 min -2,0 C 0,0 km/h (0 Bft)
15.02.2016 03:40 0,1 C -0,1 C 86 % 998,8 hPa 0,0 mm 0,0 km/h (0 Bft) O-SO 112 0 min -2,0 C 0,0 km/h (0 Bft)
15.02.2016 03:41 0,1 C -0,1 C 86 % 998,8 hPa 0,0 mm 0,0 km/h (0 Bft) O-SO 112 0 min -2,0 C 0,0 km/h (0 Bft)
15.02.2016 03:42 0,1 C -0,1 C 86 % 998,8 hPa 0,0 mm 0,0 km/h (0 Bft) O-SO 112 0 min -2,0 C 0,0 km/h (0 Bft)
15.02.2016 03:43 0,1 C -0,1 C 86 % 999,2 hPa 0,0 mm 0,0 km/h (0 Bft) O-SO 112 0 min -2,0 C 0,0 km/h (0 Bft)
15.02.2016 03:44 0,1 C -0,1 C 86 % 999,2 hPa 0,0 mm 0,0 km/h (0 Bft) O-SO 112 0 min -2,0 C 0,0 km/h (0 Bft)
15.02.2016 03:45 0,1 C -0,2 C 93 % 999,2 hPa 0,0 mm 0,0 km/h (0 Bft) O-SO 112 0 min -0,9 C 0,0 km/h (0 Bft)
15.02.2016 03:46 0,1 C -0,2 C 93 % 999,2 hPa 0,0 mm 0,0 km/h (0 Bft) O-SO 112 0 min -0,9 C 0,0 km/h (0 Bft)
15.02.2016 03:47 0,0 C -0,2 C 93 % 999,2 hPa 0,0 mm 0,0 km/h (0 Bft) O-SO 112 0 min -1,0 C 0,0 km/h (0 Bft)
15.02.2016 03:48 0,0 C -0,2 C 93 % 999,2 hPa 0,0 mm 0,0 km/h (0 Bft) O-SO 112 0 min -1,0 C 0,0 km/h (0 Bft)
15.02.2016 03:49 0,0 C -0,2 C 93 % 999,2 hPa 0,0 mm 0,0 km/h (0 Bft) O-SO 112 0 min -1,0 C 0,0 km/h (0 Bft)
15.02.2016 03:50 0,0 C -0,2 C 93 % 999,2 hPa 0,0 mm 0,0 km/h (0 Bft) O-SO 112 0 min -1,0 C 0,0 km/h (0 Bft)
15.02.2016 03:51 0,0 C -0,2 C 86 % 999,2 hPa 0,0 mm 0,0 km/h (0 Bft) O-SO 112 0 min -2,1 C 0,0 km/h (0 Bft)
15.02.2016 03:52 0,0 C -0,2 C 86 % 999,2 hPa 0,0 mm 0,0 km/h (0 Bft) O-SO 112 0 min -2,1 C 0,0 km/h (0 Bft)
15.02.2016 03:53 0,1 C -0,2 C 93 % 999,2 hPa 0,0 mm 0,0 km/h (0 Bft) O-SO 112 0 min -0,9 C 3,3 km/h (1 Bft)
15.02.2016 03:54 0,1 C -0,2 C 93 % 999,2 hPa 0,0 mm 0,0 km/h (0 Bft) O-SO 112 0 min -0,9 C 3,3 km/h (1 Bft)
15.02.2016 03:55 0,1 C -0,2 C 93 % 999,2 hPa 0,0 mm 0,3 km/h (0 Bft) O-SO 112 0 min -0,9 C 0,0 km/h (0 Bft)
15.02.2016 03:56 0,1 C -0,2 C 93 % 999,2 hPa 0,0 mm 0,3 km/h (0 Bft) O-SO 112 0 min -0,9 C 0,0 km/h (0 Bft)
15.02.2016 03:57 0,0 C -0,2 C 93 % 999,2 hPa 0,0 mm 0,3 km/h (0 Bft) O-SO 112 0 min -1,0 C 0,0 km/h (0 Bft)
15.02.2016 03:58 0,0 C -0,2 C 93 % 999,2 hPa 0,0 mm 0,3 km/h (0 Bft) O-SO 112 0 min -1,0 C 0,0 km/h (0 Bft)
15.02.2016 03:59 0,0 C -0,2 C 93 % 999,2 hPa 0,0 mm 0,3 km/h (0 Bft) O-SO 112 0 min -1,0 C 0,0 km/h (0 Bft)
15.02.2016 04:00 0,0 C -0,2 C 93 % 999,2 hPa 0,0 mm 0,3 km/h (0 Bft) O-SO 112 0 min -1,0 C 0,0 km/h (0 Bft)
15.02.2016 04:01 0,0 C -0,2 C 93 % 999,2 hPa 0,0 mm 0,6 km/h (0 Bft) O-SO 112 0 min -1,0 C 3,6 km/h (1 Bft)
15.02.2016 04:02 0,0 C -0,2 C 93 % 999,2 hPa 0,0 mm 0,6 km/h (0 Bft) O-SO 112 0 min -1,0 C 3,6 km/h (1 Bft)
15.02.2016 04:03 0,0 C -0,2 C 93 % 999,6 hPa 0,0 mm 0,6 km/h (0 Bft) O-SO 112 0 min -1,0 C 0,0 km/h (0 Bft)
15.02.2016 04:04 0,0 C -0,2 C 93 % 999,6 hPa 0,0 mm 0,6 km/h (0 Bft) O-SO 112 0 min -1,0 C 0,0 km/h (0 Bft)
15.02.2016 04:05 0,0 C -0,2 C 93 % 999,6 hPa 0,0 mm 0,3 km/h (0 Bft) O-SO 112 0 min -1,0 C 0,0 km/h (0 Bft)
15.02.2016 04:06 0,0 C -0,2 C 93 % 999,6 hPa 0,0 mm 0,3 km/h (0 Bft) O-SO 112 0 min -1,0 C 0,0 km/h (0 Bft)
15.02.2016 04:07 -0,1 C -0,3 C 93 % 999,6 hPa 0,0 mm 0,3 km/h (0 Bft) O-SO 112 0 min -1,1 C 0,0 km/h (0 Bft)
15.02.2016 04:08 -0,1 C -0,3 C 93 % 999,6 hPa 0,0 mm 0,3 km/h (0 Bft) O-SO 112 0 min -1,1 C 0,0 km/h (0 Bft)
15.02.2016 04:09 0,0 C -0,3 C 93 % 999,6 hPa 0,0 mm 0,6 km/h (0 Bft) O-SO 112 0 min -1,0 C 6,0 km/h (2 Bft)
15.02.2016 04:10 0,0 C -0,3 C 93 % 999,6 hPa 0,0 mm 0,6 km/h (0 Bft) O-SO 112 0 min -1,0 C 6,0 km/h (2 Bft)
15.02.2016 04:11 0,0 C -0,2 C 86 % 999,6 hPa 0,0 mm 1,2 km/h (1 Bft) O-SO 112 0 min -2,1 C 4,8 km/h (1 Bft)
15.02.2016 04:12 0,0 C -0,2 C 86 % 999,6 hPa 0,0 mm 1,2 km/h (1 Bft) O-SO 112 0 min -2,1 C 4,8 km/h (1 Bft)
15.02.2016 04:13 0,0 C -0,2 C 86 % 999,6 hPa 0,0 mm 1,5 km/h (1 Bft) O-SO 112 0 min -2,1 C 3,9 km/h (1 Bft)
15.02.2016 04:14 0,0 C -0,2 C 86 % 999,6 hPa 0,0 mm 1,5 km/h (1 Bft) O-SO 112 0 min -2,1 C 3,9 km/h (1 Bft)
15.02.2016 04:15 0,0 C -0,3 C 93 % 999,6 hPa 0,0 mm 2,4 km/h (1 Bft) O-SO 112 0 min -1,0 C 4,8 km/h (1 Bft)
15.02.2016 04:16 0,0 C -0,3 C 93 % 999,6 hPa 0,0 mm 2,4 km/h (1 Bft) O-SO 112 0 min -1,0 C 4,8 km/h (1 Bft)
15.02.2016 04:17 0,1 C -0,2 C 93 % 999,6 hPa 0,0 mm 3,0 km/h (1 Bft) O-SO 112 0 min -0,9 C 3,9 km/h (1 Bft)
15.02.2016 04:18 0,1 C -0,2 C 93 % 999,6 hPa 0,0 mm 3,0 km/h (1 Bft) O-SO 112 0 min -0,9 C 3,9 km/h (1 Bft)
15.02.2016 04:19 0,1 C -0,2 C 93 % 999,6 hPa 0,0 mm 3,6 km/h (1 Bft) O-SO 112 0 min -0,9 C 4,5 km/h (1 Bft)
15.02.2016 04:20 0,1 C -0,2 C 93 % 999,6 hPa 0,0 mm 3,6 km/h (1 Bft) O-SO 112 0 min -0,9 C 4,5 km/h (1 Bft)
15.02.2016 04:21 0,1 C -0,2 C 93 % 999,6 hPa 0,0 mm 2,7 km/h (1 Bft) O-SO 112 0 min -0,9 C 0,0 km/h (0 Bft)
15.02.2016 04:22 0,1 C -0,2 C 93 % 999,6 hPa 0,0 mm 2,7 km/h (1 Bft) O-SO 112 0 min -0,9 C 0,0 km/h (0 Bft)
15.02.2016 04:23 0,1 C -0,1 C 86 % 999,7 hPa 0,0 mm 2,7 km/h (1 Bft) O-SO 112 0 min -2,0 C 4,5 km/h (1 Bft)
15.02.2016 04:24 0,1 C -0,1 C 86 % 999,7 hPa 0,0 mm 2,7 km/h (1 Bft) O-SO 112 0 min -2,0 C 4,5 km/h (1 Bft)
15.02.2016 04:25 0,1 C -0,1 C 86 % 999,7 hPa 0,0 mm 2,7 km/h (1 Bft) O-SO 112 0 min -2,0 C 0,0 km/h (0 Bft)
15.02.2016 04:26 0,1 C -0,1 C 86 % 999,7 hPa 0,0 mm 2,7 km/h (1 Bft) O-SO 112 0 min -2,0 C 0,0 km/h (0 Bft)
15.02.2016 04:27 0,1 C -0,1 C 93 % 999,7 hPa 0,0 mm 1,5 km/h (1 Bft) O-SO 112 0 min -0,9 C 0,0 km/h (0 Bft)
15.02.2016 04:28 0,1 C -0,1 C 93 % 999,7 hPa 0,0 mm 1,5 km/h (1 Bft) O-SO 112 0 min -0,9 C 0,0 km/h (0 Bft)
15.02.2016 04:29 -0,1 C -0,3 C 93 % 999,7 hPa 0,0 mm 1,2 km/h (1 Bft) O-SO 112 0 min -1,1 C 0,0 km/h (0 Bft)
15.02.2016 04:30 -0,1 C -0,3 C 93 % 999,7 hPa 0,0 mm 1,2 km/h (1 Bft) O-SO 112 0 min -1,1 C 0,0 km/h (0 Bft)
15.02.2016 04:31 -0,1 C -0,3 C 93 % 999,7 hPa 0,0 mm 0,9 km/h (0 Bft) O-SO 112 0 min -1,1 C 0,0 km/h (0 Bft)
15.02.2016 04:32 -0,1 C -0,3 C 93 % 999,7 hPa 0,0 mm 0,9 km/h (0 Bft) O-SO 112 0 min -1,1 C 0,0 km/h (0 Bft)
15.02.2016 04:33 0,0 C -0,3 C 93 % 999,7 hPa 0,0 mm 0,9 km/h (0 Bft) O-SO 112 0 min -1,0 C 0,0 km/h (0 Bft)
15.02.2016 04:34 0,0 C -0,3 C 93 % 999,7 hPa 0,0 mm 0,9 km/h (0 Bft) O-SO 112 0 min -1,0 C 0,0 km/h (0 Bft)
15.02.2016 04:35 0,0 C -0,3 C 93 % 999,7 hPa 0,0 mm 0,0 km/h (0 Bft) O-SO 112 0 min -1,0 C 0,0 km/h (0 Bft)
15.02.2016 04:36 0,0 C -0,3 C 93 % 999,7 hPa 0,0 mm 0,0 km/h (0 Bft) O-SO 112 0 min -1,0 C 0,0 km/h (0 Bft)
15.02.2016 04:37 -0,1 C -0,4 C 93 % 999,7 hPa 0,0 mm 0,6 km/h (0 Bft) O-SO 112 0 min -1,1 C 0,0 km/h (0 Bft)
15.02.2016 04:38 -0,1 C -0,4 C 93 % 999,7 hPa 0,0 mm 0,6 km/h (0 Bft) O-SO 112 0 min -1,1 C 0,0 km/h (0 Bft)
15.02.2016 04:39 -0,4 C -0,6 C 93 % 999,7 hPa 0,0 mm 0,6 km/h (0 Bft) O-SO 112 0 min -1,4 C 0,0 km/h (0 Bft)
15.02.2016 04:40 -0,4 C -0,6 C 93 % 999,7 hPa 0,0 mm 0,6 km/h (0 Bft) O-SO 112 0 min -1,4 C 0,0 km/h (0 Bft)
15.02.2016 04:41 -0,4 C -0,6 C 93 % 999,7 hPa 0,0 mm 0,6 km/h (0 Bft) O-SO 112 0 min -1,4 C 0,0 km/h (0 Bft)
15.02.2016 04:42 -0,4 C -0,6 C 93 % 999,7 hPa 0,0 mm 0,6 km/h (0 Bft) O-SO 112 0 min -1,4 C 0,0 km/h (0 Bft)
15.02.2016 04:43 -0,4 C -0,6 C 93 % 999,8 hPa 0,0 mm 0,6 km/h (0 Bft) O-SO 112 0 min -1,4 C 0,0 km/h (0 Bft)
15.02.2016 04:44 -0,4 C -0,6 C 93 % 999,8 hPa 0,0 mm 0,6 km/h (0 Bft) O-SO 112 0 min -1,4 C 0,0 km/h (0 Bft)
15.02.2016 04:45 -0,2 C -0,5 C 93 % 999,8 hPa 0,0 mm 0,6 km/h (0 Bft) O-SO 112 0 min -1,2 C 0,0 km/h (0 Bft)
15.02.2016 04:46 -0,2 C -0,5 C 93 % 999,8 hPa 0,0 mm 0,6 km/h (0 Bft) O-SO 112 0 min -1,2 C 0,0 km/h (0 Bft)
15.02.2016 04:47 -0,2 C -0,4 C 86 % 999,8 hPa 0,0 mm 0,0 km/h (0 Bft) O-SO 112 0 min -2,3 C 0,0 km/h (0 Bft)
15.02.2016 04:48 -0,2 C -0,4 C 86 % 999,8 hPa 0,0 mm 0,0 km/h (0 Bft) O-SO 112 0 min -2,3 C 0,0 km/h (0 Bft)
15.02.2016 04:49 -0,3 C -0,6 C 93 % 999,8 hPa 0,0 mm 0,0 km/h (0 Bft) O-SO 112 0 min -1,3 C 0,0 km/h (0 Bft)
15.02.2016 04:50 -0,3 C -0,6 C 93 % 999,8 hPa 0,0 mm 0,0 km/h (0 Bft) O-SO 112 0 min -1,3 C 0,0 km/h (0 Bft)
15.02.2016 04:51 -0,3 C -0,6 C 93 % 999,8 hPa 0,0 mm 0,0 km/h (0 Bft) O-SO 112 0 min -1,3 C 0,0 km/h (0 Bft)
15.02.2016 04:52 -0,3 C -0,6 C 93 % 999,8 hPa 0,0 mm 0,0 km/h (0 Bft) O-SO 112 0 min -1,3 C 0,0 km/h (0 Bft)
15.02.2016 04:53 -0,2 C -0,5 C 93 % 999,8 hPa 0,0 mm 0,0 km/h (0 Bft) O-SO 112 0 min -1,2 C 0,0 km/h (0 Bft)
15.02.2016 04:54 -0,2 C -0,5 C 93 % 999,8 hPa 0,0 mm 0,0 km/h (0 Bft) O-SO 112 0 min -1,2 C 0,0 km/h (0 Bft)
15.02.2016 04:55 -0,1 C -0,5 C 93 % 999,8 hPa 0,0 mm 0,0 km/h (0 Bft) O-SO 112 0 min -1,1 C 0,0 km/h (0 Bft)
15.02.2016 04:56 -0,1 C -0,5 C 93 % 999,8 hPa 0,0 mm 0,0 km/h (0 Bft) O-SO 112 0 min -1,1 C 0,0 km/h (0 Bft)
15.02.2016 04:57 -0,1 C -0,5 C 93 % 999,8 hPa 0,0 mm 0,0 km/h (0 Bft) O-SO 112 0 min -1,1 C 0,0 km/h (0 Bft)
15.02.2016 04:58 -0,1 C -0,5 C 93 % 999,8 hPa 0,0 mm 0,0 km/h (0 Bft) O-SO 112 0 min -1,1 C 0,0 km/h (0 Bft)
15.02.2016 04:59 -0,1 C -0,5 C 93 % 999,8 hPa 0,0 mm 0,0 km/h (0 Bft) O-SO 112 0 min -1,1 C 0,0 km/h (0 Bft)
15.02.2016 05:00 -0,1 C -0,5 C 93 % 999,8 hPa 0,0 mm 0,0 km/h (0 Bft) O-SO 112 0 min -1,1 C 0,0 km/h (0 Bft)
15.02.2016 05:01 -0,1 C -0,5 C 93 % 999,8 hPa 0,0 mm 0,0 km/h (0 Bft) O-SO 112 0 min -1,1 C 0,0 km/h (0 Bft)
15.02.2016 05:02 -0,1 C -0,5 C 93 % 999,8 hPa 0,0 mm 0,0 km/h (0 Bft) O-SO 112 0 min -1,1 C 0,0 km/h (0 Bft)
15.02.2016 05:03 -0,2 C -0,5 C 93 % 999,8 hPa 0,0 mm 0,0 km/h (0 Bft) O-SO 112 0 min -1,2 C 0,0 km/h (0 Bft)
15.02.2016 05:04 -0,2 C -0,5 C 93 % 999,8 hPa 0,0 mm 0,0 km/h (0 Bft) O-SO 112 0 min -1,2 C 0,0 km/h (0 Bft)
15.02.2016 05:05 -0,4 C -0,7 C 93 % 999,8 hPa 0,0 mm 0,0 km/h (0 Bft) O-SO 112 0 min -1,4 C 0,0 km/h (0 Bft)
15.02.2016 05:06 -0,4 C -0,7 C 93 % 999,8 hPa 0,0 mm 0,0 km/h (0 Bft) O-SO 112 0 min -1,4 C 0,0 km/h (0 Bft)
15.02.2016 05:07 -0,5 C -0,8 C 93 % 999,8 hPa 0,0 mm 0,0 km/h (0 Bft) O-SO 112 0 min -1,5 C 0,0 km/h (0 Bft)
15.02.2016 05:08 -0,5 C -0,8 C 93 % 999,8 hPa 0,0 mm 0,0 km/h (0 Bft) O-SO 112 0 min -1,5 C 0,0 km/h (0 Bft)
15.02.2016 05:09 -0,4 C -0,7 C 93 % 999,8 hPa 0,0 mm 0,0 km/h (0 Bft) O-SO 112 0 min -1,4 C 0,0 km/h (0 Bft)
15.02.2016 05:10 -0,4 C -0,7 C 93 % 999,8 hPa 0,0 mm 0,0 km/h (0 Bft) O-SO 112 0 min -1,4 C 0,0 km/h (0 Bft)
15.02.2016 05:11 -0,4 C -0,8 C 93 % 999,8 hPa 0,0 mm 0,0 km/h (0 Bft) O-SO 112 0 min -1,4 C 0,0 km/h (0 Bft)
15.02.2016 05:12 -0,4 C -0,8 C 93 % 999,8 hPa 0,0 mm 0,0 km/h (0 Bft) O-SO 112 0 min -1,4 C 0,0 km/h (0 Bft)
15.02.2016 05:13 -0,4 C -0,8 C 93 % 999,8 hPa 0,0 mm 0,0 km/h (0 Bft) O-SO 112 0 min -1,4 C 0,0 km/h (0 Bft)
15.02.2016 05:14 -0,4 C -0,8 C 93 % 999,8 hPa 0,0 mm 0,0 km/h (0 Bft) O-SO 112 0 min -1,4 C 0,0 km/h (0 Bft)
15.02.2016 05:15 -0,4 C -0,8 C 93 % 999,8 hPa 0,0 mm 0,0 km/h (0 Bft) O-SO 112 0 min -1,4 C 3,6 km/h (1 Bft)
15.02.2016 05:16 -0,4 C -0,8 C 93 % 999,8 hPa 0,0 mm 0,0 km/h (0 Bft) O-SO 112 0 min -1,4 C 3,6 km/h (1 Bft)
15.02.2016 05:17 -0,5 C -0,8 C 93 % 999,8 hPa 0,0 mm 0,6 km/h (0 Bft) O-SO 112 0 min -1,5 C 3,3 km/h (1 Bft)
15.02.2016 05:18 -0,5 C -0,8 C 93 % 999,8 hPa 0,0 mm 0,6 km/h (0 Bft) O-SO 112 0 min -1,5 C 3,3 km/h (1 Bft)
15.02.2016 05:19 -0,5 C -0,8 C 87 % 999,8 hPa 0,0 mm 1,2 km/h (1 Bft) O-SO 112 0 min -2,4 C 6,0 km/h (2 Bft)
15.02.2016 05:20 -0,5 C -0,8 C 87 % 999,8 hPa 0,0 mm 1,2 km/h (1 Bft) O-SO 112 0 min -2,4 C 6,0 km/h (2 Bft)
15.02.2016 05:21 -0,5 C -0,7 C 87 % 999,8 hPa 0,0 mm 1,8 km/h (1 Bft) O-SO 112 0 min -2,4 C 0,0 km/h (0 Bft)
15.02.2016 05:22 -0,5 C -0,7 C 87 % 999,8 hPa 0,0 mm 1,8 km/h (1 Bft) O-SO 112 0 min -2,4 C 0,0 km/h (0 Bft)
15.02.2016 05:23 -0,4 C -0,7 C 93 % 1000,1 hPa 0,0 mm 2,1 km/h (1 Bft) O-SO 112 0 min -1,4 C 3,3 km/h (1 Bft)
15.02.2016 05:24 -0,4 C -0,7 C 93 % 1000,1 hPa 0,0 mm 2,1 km/h (1 Bft) O-SO 112 0 min -1,4 C 3,3 km/h (1 Bft)
15.02.2016 05:25 -0,3 C -0,6 C 93 % 1000,1 hPa 0,0 mm 2,1 km/h (1 Bft) O-SO 112 0 min -1,3 C 0,0 km/h (0 Bft)
15.02.2016 05:26 -0,3 C -0,6 C 93 % 1000,1 hPa 0,0 mm 2,1 km/h (1 Bft) O-SO 112 0 min -1,3 C 0,0 km/h (0 Bft)
15.02.2016 05:27 -0,4 C -0,7 C 93 % 1000,1 hPa 0,0 mm 1,5 km/h (1 Bft) O-SO 112 0 min -1,4 C 3,0 km/h (1 Bft)
15.02.2016 05:28 -0,4 C -0,7 C 93 % 1000,1 hPa 0,0 mm 1,5 km/h (1 Bft) O-SO 112 0 min -1,4 C 3,0 km/h (1 Bft)
15.02.2016 05:29 -0,5 C -0,7 C 93 % 1000,1 hPa 0,0 mm 1,5 km/h (1 Bft) O-SO 112 0 min -1,5 C 0,0 km/h (0 Bft)
15.02.2016 05:30 -0,5 C -0,7 C 93 % 1000,1 hPa 0,0 mm 1,5 km/h (1 Bft) O-SO 112 0 min -1,5 C 0,0 km/h (0 Bft)
15.02.2016 05:31 -0,6 C -0,8 C 93 % 1000,1 hPa 0,0 mm 0,6 km/h (0 Bft) O-SO 112 0 min -1,6 C 0,0 km/h (0 Bft)
15.02.2016 05:32 -0,6 C -0,8 C 93 % 1000,1 hPa 0,0 mm 0,6 km/h (0 Bft) O-SO 112 0 min -1,6 C 0,0 km/h (0 Bft)
15.02.2016 05:33 -0,6 C -0,9 C 93 % 1000,1 hPa 0,0 mm 0,3 km/h (0 Bft) O-SO 112 0 min -1,6 C 0,0 km/h (0 Bft)
15.02.2016 05:34 -0,6 C -0,9 C 93 % 1000,1 hPa 0,0 mm 0,3 km/h (0 Bft) O-SO 112 0 min -1,6 C 0,0 km/h (0 Bft)
15.02.2016 05:35 -0,5 C -0,8 C 93 % 1000,1 hPa 0,0 mm 0,3 km/h (0 Bft) O-SO 112 0 min -1,5 C 0,0 km/h (0 Bft)
15.02.2016 05:36 -0,5 C -0,8 C 93 % 1000,1 hPa 0,0 mm 0,3 km/h (0 Bft) O-SO 112 0 min -1,5 C 0,0 km/h (0 Bft)
15.02.2016 05:37 -0,5 C -0,7 C 87 % 1000,1 hPa 0,0 mm 0,3 km/h (0 Bft) O-SO 112 0 min -2,4 C 0,0 km/h (0 Bft)
15.02.2016 05:38 -0,5 C -0,7 C 87 % 1000,1 hPa 0,0 mm 0,3 km/h (0 Bft) O-SO 112 0 min -2,4 C 0,0 km/h (0 Bft)
15.02.2016 05:39 -0,4 C -0,7 C 93 % 1000,1 hPa 0,0 mm 0,0 km/h (0 Bft) O-SO 112 0 min -1,4 C 0,0 km/h (0 Bft)
15.02.2016 05:40 -0,4 C -0,7 C 93 % 1000,1 hPa 0,0 mm 0,0 km/h (0 Bft) O-SO 112 0 min -1,4 C 0,0 km/h (0 Bft)
15.02.2016 05:41 -0,4 C -0,7 C 93 % 1000,1 hPa 0,0 mm 0,0 km/h (0 Bft) O-SO 112 0 min -1,4 C 0,0 km/h (0 Bft)
15.02.2016 05:42 -0,4 C -0,7 C 93 % 1000,1 hPa 0,0 mm 0,0 km/h (0 Bft) O-SO 112 0 min -1,4 C 0,0 km/h (0 Bft)
15.02.2016 05:43 -0,6 C -0,8 C 93 % 1000,5 hPa 0,0 mm 0,0 km/h (0 Bft) O-SO 112 0 min -1,6 C 0,0 km/h (0 Bft)
15.02.2016 05:44 -0,6 C -0,8 C 93 % 1000,5 hPa 0,0 mm 0,0 km/h (0 Bft) O-SO 112 0 min -1,6 C 0,0 km/h (0 Bft)
15.02.2016 05:45 -0,7 C -0,9 C 93 % 1000,5 hPa 0,0 mm 0,3 km/h (0 Bft) O-SO 112 0 min -1,7 C 3,6 km/h (1 Bft)
15.02.2016 05:46 -0,7 C -0,9 C 93 % 1000,5 hPa 0,0 mm 0,3 km/h (0 Bft) O-SO 112 0 min -1,7 C 3,6 km/h (1 Bft)
15.02.2016 05:47 -0,6 C -0,9 C 93 % 1000,5 hPa 0,0 mm 0,3 km/h (0 Bft) O-SO 112 0 min -1,6 C 0,0 km/h (0 Bft)
15.02.2016 05:48 -0,6 C -0,9 C 93 % 1000,5 hPa 0,0 mm 0,3 km/h (0 Bft) O-SO 112 0 min -1,6 C 0,0 km/h (0 Bft)
15.02.2016 05:49 -0,6 C -0,9 C 93 % 1000,5 hPa 0,0 mm 0,3 km/h (0 Bft) O-SO 112 0 min -1,6 C 0,0 km/h (0 Bft)
15.02.2016 05:50 -0,6 C -0,9 C 93 % 1000,5 hPa 0,0 mm 0,3 km/h (0 Bft) O-SO 112 0 min -1,6 C 0,0 km/h (0 Bft)
15.02.2016 05:51 -0,7 C -1,0 C 93 % 1000,5 hPa 0,0 mm 0,3 km/h (0 Bft) O-SO 112 0 min -1,7 C 0,0 km/h (0 Bft)
15.02.2016 05:52 -0,7 C -1,0 C 93 % 1000,5 hPa 0,0 mm 0,3 km/h (0 Bft) O-SO 112 0 min -1,7 C 0,0 km/h (0 Bft)
15.02.2016 05:53 -0,7 C -1,0 C 93 % 1000,5 hPa 0,0 mm 0,3 km/h (0 Bft) O-SO 112 0 min -1,7 C 0,0 km/h (0 Bft)
15.02.2016 05:54 -0,7 C -1,0 C 93 % 1000,5 hPa 0,0 mm 0,3 km/h (0 Bft) O-SO 112 0 min -1,7 C 0,0 km/h (0 Bft)
15.02.2016 05:55 -0,5 C -0,8 C 93 % 1000,5 hPa 0,0 mm 0,3 km/h (0 Bft) O-SO 112 0 min -1,5 C 0,0 km/h (0 Bft)
15.02.2016 05:56 -0,5 C -0,8 C 93 % 1000,5 hPa 0,0 mm 0,3 km/h (0 Bft) O-SO 112 0 min -1,5 C 0,0 km/h (0 Bft)
15.02.2016 05:57 -0,5 C -0,7 C 87 % 1000,5 hPa 0,0 mm 0,6 km/h (0 Bft) O-SO 112 0 min -2,4 C 0,0 km/h (0 Bft)
15.02.2016 05:58 -0,5 C -0,7 C 87 % 1000,5 hPa 0,0 mm 0,6 km/h (0 Bft) O-SO 112 0 min -2,4 C 0,0 km/h (0 Bft)
15.02.2016 05:59 -0,2 C -0,6 C 93 % 1000,5 hPa 0,0 mm 0,6 km/h (0 Bft) O-SO 112 0 min -1,2 C 0,0 km/h (0 Bft)
15.02.2016 06:00 -0,2 C -0,6 C 93 % 1000,5 hPa 0,0 mm 0,6 km/h (0 Bft) O-SO 112 0 min -1,2 C 0,0 km/h (0 Bft)
15.02.2016 06:01 -0,2 C -0,5 C 93 % 1000,5 hPa 0,0 mm 0,6 km/h (0 Bft) O-SO 112 0 min -1,2 C 0,0 km/h (0 Bft)
15.02.2016 06:02 -0,2 C -0,5 C 93 % 1000,5 hPa 0,0 mm 0,6 km/h (0 Bft) O-SO 112 0 min -1,2 C 0,0 km/h (0 Bft)
15.02.2016 06:03 -0,2 C -0,5 C 93 % 1000,5 hPa 0,0 mm 0,6 km/h (0 Bft) O-SO 112 0 min -1,2 C 0,0 km/h (0 Bft)
15.02.2016 06:04 -0,2 C -0,5 C 93 % 1000,5 hPa 0,0 mm 0,6 km/h (0 Bft) O-SO 112 0 min -1,2 C 0,0 km/h (0 Bft)
15.02.2016 06:05 -0,1 C -0,4 C 94 % 1000,5 hPa 0,0 mm 0,3 km/h (0 Bft) O-SO 112 0 min -0,9 C 0,0 km/h (0 Bft)
15.02.2016 06:06 -0,1 C -0,4 C 94 % 1000,5 hPa 0,0 mm 0,3 km/h (0 Bft) O-SO 112 0 min -0,9 C 0,0 km/h (0 Bft)
15.02.2016 06:07 -0,1 C -0,4 C 94 % 1000,5 hPa 0,0 mm 0,0 km/h (0 Bft) O-SO 112 0 min -0,9 C 0,0 km/h (0 Bft)
15.02.2016 06:08 -0,1 C -0,4 C 94 % 1000,5 hPa 0,0 mm 0,0 km/h (0 Bft) O-SO 112 0 min -0,9 C 0,0 km/h (0 Bft)
15.02.2016 06:09 -0,1 C -0,4 C 94 % 1000,5 hPa 0,0 mm 0,0 km/h (0 Bft) O-SO 112 0 min -0,9 C 0,0 km/h (0 Bft)
15.02.2016 06:10 -0,1 C -0,4 C 94 % 1000,5 hPa 0,0 mm 0,0 km/h (0 Bft) O-SO 112 0 min -0,9 C 0,0 km/h (0 Bft)
15.02.2016 06:11 -0,1 C -0,4 C 94 % 1000,5 hPa 0,0 mm 0,0 km/h (0 Bft) O-SO 112 0 min -0,9 C 3,9 km/h (1 Bft)
15.02.2016 06:12 -0,1 C -0,4 C 94 % 1000,5 hPa 0,0 mm 0,0 km/h (0 Bft) O-SO 112 0 min -0,9 C 3,9 km/h (1 Bft)
15.02.2016 06:13 -0,1 C -0,4 C 94 % 1000,5 hPa 0,0 mm 0,6 km/h (0 Bft) O-SO 112 0 min -0,9 C 3,3 km/h (1 Bft)
15.02.2016 06:14 -0,1 C -0,4 C 94 % 1000,5 hPa 0,0 mm 0,6 km/h (0 Bft) O-SO 112 0 min -0,9 C 3,3 km/h (1 Bft)
15.02.2016 06:15 -0,1 C -0,4 C 94 % 1000,5 hPa 0,0 mm 0,6 km/h (0 Bft) O-SO 112 0 min -0,9 C 0,0 km/h (0 Bft)
15.02.2016 06:16 -0,1 C -0,4 C 94 % 1000,5 hPa 0,0 mm 0,6 km/h (0 Bft) O-SO 112 0 min -0,9 C 0,0 km/h (0 Bft)
15.02.2016 06:17 -0,1 C -0,4 C 94 % 1000,5 hPa 0,0 mm 0,6 km/h (0 Bft) O-SO 112 0 min -0,9 C 0,0 km/h (0 Bft)
15.02.2016 06:18 -0,1 C -0,4 C 94 % 1000,5 hPa 0,0 mm 0,6 km/h (0 Bft) O-SO 112 0 min -0,9 C 0,0 km/h (0 Bft)
15.02.2016 06:19 -0,2 C -0,4 C 94 % 1000,5 hPa 0,0 mm 0,6 km/h (0 Bft) O-SO 112 0 min -1,0 C 0,0 km/h (0 Bft)
15.02.2016 06:20 -0,2 C -0,4 C 94 % 1000,5 hPa 0,0 mm 0,6 km/h (0 Bft) O-SO 112 0 min -1,0 C 0,0 km/h (0 Bft)
15.02.2016 06:21 -0,2 C -0,4 C 94 % 1000,5 hPa 0,0 mm 0,6 km/h (0 Bft) O-SO 112 0 min -1,0 C 0,0 km/h (0 Bft)
15.02.2016 06:22 -0,2 C -0,4 C 94 % 1000,5 hPa 0,0 mm 0,6 km/h (0 Bft) O-SO 112 0 min -1,0 C 0,0 km/h (0 Bft)
15.02.2016 06:23 -0,3 C -0,5 C 94 % 1000,6 hPa 0,0 mm 0,3 km/h (0 Bft) O-SO 112 0 min -1,1 C 0,0 km/h (0 Bft)
15.02.2016 06:24 -0,3 C -0,5 C 94 % 1000,6 hPa 0,0 mm 0,3 km/h (0 Bft) O-SO 112 0 min -1,1 C 0,0 km/h (0 Bft)
15.02.2016 06:25 -0,3 C -0,5 C 94 % 1000,6 hPa 0,0 mm 0,0 km/h (0 Bft) O-SO 112 0 min -1,1 C 0,0 km/h (0 Bft)
15.02.2016 06:26 -0,3 C -0,5 C 94 % 1000,6 hPa 0,0 mm 0,0 km/h (0 Bft) O-SO 112 0 min -1,1 C 0,0 km/h (0 Bft)
15.02.2016 06:27 -0,4 C -0,6 C 94 % 1000,6 hPa 0,0 mm 0,0 km/h (0 Bft) O-SO 112 0 min -1,2 C 0,0 km/h (0 Bft)
15.02.2016 06:28 -0,4 C -0,6 C 94 % 1000,6 hPa 0,0 mm 0,0 km/h (0 Bft) O-SO 112 0 min -1,2 C 0,0 km/h (0 Bft)
15.02.2016 06:29 -0,4 C -0,6 C 94 % 1000,6 hPa 0,0 mm 0,0 km/h (0 Bft) O-SO 112 0 min -1,2 C 0,0 km/h (0 Bft)
15.02.2016 06:30 -0,4 C -0,6 C 94 % 1000,6 hPa 0,0 mm 0,0 km/h (0 Bft) O-SO 112 0 min -1,2 C 0,0 km/h (0 Bft)
15.02.2016 06:31 -0,4 C -0,6 C 93 % 1000,6 hPa 0,0 mm 0,0 km/h (0 Bft) O-SO 112 0 min -1,4 C 0,0 km/h (0 Bft)
15.02.2016 06:32 -0,4 C -0,6 C 93 % 1000,6 hPa 0,0 mm 0,0 km/h (0 Bft) O-SO 112 0 min -1,4 C 0,0 km/h (0 Bft)
15.02.2016 06:33 -0,4 C -0,6 C 93 % 1000,6 hPa 0,0 mm 0,0 km/h (0 Bft) O-SO 112 0 min -1,4 C 0,0 km/h (0 Bft)
15.02.2016 06:34 -0,4 C -0,6 C 93 % 1000,6 hPa 0,0 mm 0,0 km/h (0 Bft) O-SO 112 0 min -1,4 C 0,0 km/h (0 Bft)
15.02.2016 06:35 -0,3 C -0,5 C 93 % 1000,6 hPa 0,0 mm 0,0 km/h (0 Bft) O-SO 112 0 min -1,3 C 0,0 km/h (0 Bft)
15.02.2016 06:36 -0,3 C -0,5 C 93 % 1000,6 hPa 0,0 mm 0,0 km/h (0 Bft) O-SO 112 0 min -1,3 C 0,0 km/h (0 Bft)
15.02.2016 06:37 -0,2 C -0,5 C 94 % 1000,6 hPa 0,0 mm 0,0 km/h (0 Bft) O-SO 112 0 min -1,0 C 0,0 km/h (0 Bft)
15.02.2016 06:38 -0,2 C -0,5 C 94 % 1000,6 hPa 0,0 mm 0,0 km/h (0 Bft) O-SO 112 0 min -1,0 C 0,0 km/h (0 Bft)
15.02.2016 06:39 -0,1 C -0,4 C 94 % 1000,6 hPa 0,0 mm 0,0 km/h (0 Bft) O-SO 112 0 min -0,9 C 0,0 km/h (0 Bft)
15.02.2016 06:40 -0,1 C -0,4 C 94 % 1000,6 hPa 0,0 mm 0,0 km/h (0 Bft) O-SO 112 0 min -0,9 C 0,0 km/h (0 Bft)
15.02.2016 06:41 -0,1 C -0,4 C 94 % 1000,6 hPa 0,0 mm 0,0 km/h (0 Bft) O-SO 112 0 min -0,9 C 0,0 km/h (0 Bft)
15.02.2016 06:42 -0,1 C -0,4 C 94 % 1000,6 hPa 0,0 mm 0,0 km/h (0 Bft) O-SO 112 0 min -0,9 C 0,0 km/h (0 Bft)
15.02.2016 06:43 -0,2 C -0,5 C 94 % 1000,9 hPa 0,0 mm 0,0 km/h (0 Bft) O-SO 112 0 min -1,0 C 0,0 km/h (0 Bft)
15.02.2016 06:44 -0,2 C -0,5 C 94 % 1000,9 hPa 0,0 mm 0,0 km/h (0 Bft) O-SO 112 0 min -1,0 C 0,0 km/h (0 Bft)
15.02.2016 06:45 -0,2 C -0,5 C 94 % 1000,9 hPa 0,0 mm 0,0 km/h (0 Bft) O-SO 112 0 min -1,0 C 0,0 km/h (0 Bft)
15.02.2016 06:46 -0,2 C -0,5 C 94 % 1000,9 hPa 0,0 mm 0,0 km/h (0 Bft) O-SO 112 0 min -1,0 C 0,0 km/h (0 Bft)
15.02.2016 06:47 -0,3 C -0,6 C 93 % 1000,9 hPa 0,0 mm 0,0 km/h (0 Bft) O-SO 112 0 min -1,3 C 0,0 km/h (0 Bft)
15.02.2016 06:48 -0,3 C -0,6 C 93 % 1000,9 hPa 0,0 mm 0,0 km/h (0 Bft) O-SO 112 0 min -1,3 C 0,0 km/h (0 Bft)
15.02.2016 06:49 -0,3 C -0,6 C 93 % 1000,9 hPa 0,0 mm 0,0 km/h (0 Bft) O-SO 112 0 min -1,3 C 0,0 km/h (0 Bft)
15.02.2016 06:50 -0,3 C -0,6 C 93 % 1000,9 hPa 0,0 mm 0,0 km/h (0 Bft) O-SO 112 0 min -1,3 C 0,0 km/h (0 Bft)
15.02.2016 06:51 -0,1 C -0,4 C 94 % 1000,9 hPa 0,0 mm 0,0 km/h (0 Bft) O-SO 112 0 min -0,9 C 0,0 km/h (0 Bft)
15.02.2016 06:53 -0,2 C -0,5 C 94 % 1000,9 hPa 0,0 mm 0,0 km/h (0 Bft) O-SO 112 0 min -1,0 C 0,0 km/h (0 Bft)
15.02.2016 06:54 -0,2 C -0,5 C 94 % 1000,9 hPa 0,0 mm 0,0 km/h (0 Bft) O-SO 112 0 min -1,0 C 0,0 km/h (0 Bft)
15.02.2016 06:55 -0,2 C -0,5 C 94 % 1000,9 hPa 0,0 mm 0,0 km/h (0 Bft) O-SO 112 0 min -1,0 C 0,0 km/h (0 Bft)
15.02.2016 06:56 -0,2 C -0,5 C 94 % 1000,9 hPa 0,0 mm 0,0 km/h (0 Bft) O-SO 112 0 min -1,0 C 0,0 km/h (0 Bft)
15.02.2016 06:57 -0,3 C -0,6 C 94 % 1000,9 hPa 0,0 mm 0,0 km/h (0 Bft) O-SO 112 0 min -1,1 C 0,0 km/h (0 Bft)
15.02.2016 06:58 -0,3 C -0,6 C 94 % 1000,9 hPa 0,0 mm 0,0 km/h (0 Bft) O-SO 112 0 min -1,1 C 0,0 km/h (0 Bft)
15.02.2016 06:59 -0,4 C -0,6 C 93 % 1000,9 hPa 0,0 mm 0,0 km/h (0 Bft) O-SO 112 0 min -1,4 C 0,0 km/h (0 Bft)
15.02.2016 07:00 -0,4 C -0,6 C 93 % 1000,9 hPa 0,0 mm 0,0 km/h (0 Bft) O-SO 112 0 min -1,4 C 0,0 km/h (0 Bft)
15.02.2016 07:01 -0,5 C -0,7 C 93 % 1000,9 hPa 0,0 mm 0,0 km/h (0 Bft) O-SO 112 0 min -1,5 C 0,0 km/h (0 Bft)
15.02.2016 07:02 -0,5 C -0,7 C 93 % 1000,9 hPa 0,0 mm 0,0 km/h (0 Bft) O-SO 112 0 min -1,5 C 0,0 km/h (0 Bft)
15.02.2016 07:03 -0,5 C -0,7 C 93 % 1001,2 hPa 0,0 mm 0,0 km/h (0 Bft) O-SO 112 0 min -1,5 C 0,0 km/h (0 Bft)
15.02.2016 07:04 -0,5 C -0,7 C 93 % 1001,2 hPa 0,0 mm 0,0 km/h (0 Bft) O-SO 112 0 min -1,5 C 0,0 km/h (0 Bft)
15.02.2016 07:05 -0,5 C -0,7 C 93 % 1001,2 hPa 0,0 mm 0,0 km/h (0 Bft) O-SO 112 0 min -1,5 C 0,0 km/h (0 Bft)
15.02.2016 07:06 -0,5 C -0,7 C 93 % 1001,2 hPa 0,0 mm 0,0 km/h (0 Bft) O-SO 112 0 min -1,5 C 0,0 km/h (0 Bft)
15.02.2016 07:07 -0,5 C -0,7 C 93 % 1001,2 hPa 0,0 mm 0,0 km/h (0 Bft) O-SO 112 0 min -1,5 C 0,0 km/h (0 Bft)
15.02.2016 07:08 -0,5 C -0,7 C 93 % 1001,2 hPa 0,0 mm 0,0 km/h (0 Bft) O-SO 112 0 min -1,5 C 0,0 km/h (0 Bft)
15.02.2016 07:09 -0,5 C -0,8 C 93 % 1001,2 hPa 0,0 mm 0,0 km/h (0 Bft) O-SO 112 0 min -1,5 C 0,0 km/h (0 Bft)
15.02.2016 07:10 -0,5 C -0,8 C 93 % 1001,2 hPa 0,0 mm 0,0 km/h (0 Bft) O-SO 112 0 min -1,5 C 0,0 km/h (0 Bft)
15.02.2016 07:11 -0,5 C -0,8 C 93 % 1001,2 hPa 0,0 mm 0,0 km/h (0 Bft) O-SO 112 0 min -1,5 C 0,0 km/h (0 Bft)
15.02.2016 07:12 -0,5 C -0,8 C 93 % 1001,2 hPa 0,0 mm 0,0 km/h (0 Bft) O-SO 112 0 min -1,5 C 0,0 km/h (0 Bft)
15.02.2016 07:13 -0,3 C -0,6 C 93 % 1001,2 hPa 0,0 mm 0,0 km/h (0 Bft) O-SO 112 0 min -1,3 C 0,0 km/h (0 Bft)
15.02.2016 07:14 -0,3 C -0,6 C 93 % 1001,2 hPa 0,0 mm 0,0 km/h (0 Bft) O-SO 112 0 min -1,3 C 0,0 km/h (0 Bft)
15.02.2016 07:15 -0,4 C -0,7 C 93 % 1001,2 hPa 0,0 mm 0,0 km/h (0 Bft) O-SO 112 0 min -1,4 C 0,0 km/h (0 Bft)
15.02.2016 07:16 -0,4 C -0,7 C 93 % 1001,2 hPa 0,0 mm 0,0 km/h (0 Bft) O-SO 112 0 min -1,4 C 0,0 km/h (0 Bft)
15.02.2016 07:17 -0,5 C -0,8 C 93 % 1001,2 hPa 0,0 mm 0,0 km/h (0 Bft) O-SO 112 0 min -1,5 C 0,0 km/h (0 Bft)
15.02.2016 07:18 -0,5 C -0,8 C 93 % 1001,2 hPa 0,0 mm 0,0 km/h (0 Bft) O-SO 112 0 min -1,5 C 0,0 km/h (0 Bft)
15.02.2016 07:19 -0,5 C -0,8 C 93 % 1001,2 hPa 0,0 mm 0,0 km/h (0 Bft) O-SO 112 0 min -1,5 C 0,0 km/h (0 Bft)
15.02.2016 07:20 -0,5 C -0,8 C 93 % 1001,2 hPa 0,0 mm 0,0 km/h (0 Bft) O-SO 112 0 min -1,5 C 0,0 km/h (0 Bft)
15.02.2016 07:21 -0,4 C -0,7 C 93 % 1001,2 hPa 0,0 mm 0,0 km/h (0 Bft) O-SO 112 0 min -1,4 C 0,0 km/h (0 Bft)
15.02.2016 07:22 -0,4 C -0,7 C 93 % 1001,2 hPa 0,0 mm 0,0 km/h (0 Bft) O-SO 112 0 min -1,4 C 0,0 km/h (0 Bft)
15.02.2016 07:23 -0,4 C -0,7 C 93 % 1001,4 hPa 0,0 mm 0,0 km/h (0 Bft) O-SO 112 0 min -1,4 C 0,0 km/h (0 Bft)
15.02.2016 07:24 -0,4 C -0,7 C 93 % 1001,4 hPa 0,0 mm 0,0 km/h (0 Bft) O-SO 112 0 min -1,4 C 0,0 km/h (0 Bft)
15.02.2016 07:25 -0,3 C -0,6 C 93 % 1001,4 hPa 0,0 mm 0,0 km/h (0 Bft) O-SO 112 0 min -1,3 C 0,0 km/h (0 Bft)
15.02.2016 07:26 -0,3 C -0,6 C 93 % 1001,4 hPa 0,0 mm 0,0 km/h (0 Bft) O-SO 112 0 min -1,3 C 0,0 km/h (0 Bft)
15.02.2016 07:27 -0,3 C -0,6 C 93 % 1001,4 hPa 0,0 mm 0,0 km/h (0 Bft) O-SO 112 0 min -1,3 C 0,0 km/h (0 Bft)
15.02.2016 07:28 -0,3 C -0,6 C 93 % 1001,4 hPa 0,0 mm 0,0 km/h (0 Bft) O-SO 112 0 min -1,3 C 0,0 km/h (0 Bft)
15.02.2016 07:29 -0,2 C -0,6 C 93 % 1001,4 hPa 0,0 mm 0,0 km/h (0 Bft) O-SO 112 0 min -1,2 C 0,0 km/h (0 Bft)
15.02.2016 07:30 -0,2 C -0,6 C 93 % 1001,4 hPa 0,0 mm 0,0 km/h (0 Bft) O-SO 112 0 min -1,2 C 0,0 km/h (0 Bft)
15.02.2016 07:31 -0,2 C -0,5 C 93 % 1001,4 hPa 0,0 mm 0,0 km/h (0 Bft) O-SO 112 0 min -1,2 C 0,0 km/h (0 Bft)
15.02.2016 07:32 -0,2 C -0,5 C 93 % 1001,4 hPa 0,0 mm 0,0 km/h (0 Bft) O-SO 112 0 min -1,2 C 0,0 km/h (0 Bft)
15.02.2016 07:33 -0,2 C -0,5 C 93 % 1001,4 hPa 0,0 mm 0,0 km/h (0 Bft) O-SO 112 0 min -1,2 C 0,0 km/h (0 Bft)
15.02.2016 07:34 -0,2 C -0,5 C 93 % 1001,4 hPa 0,0 mm 0,0 km/h (0 Bft) O-SO 112 0 min -1,2 C 0,0 km/h (0 Bft)
15.02.2016 07:35 -0,3 C -0,6 C 93 % 1001,4 hPa 0,0 mm 0,0 km/h (0 Bft) O-SO 112 0 min -1,3 C 0,0 km/h (0 Bft)
15.02.2016 07:36 -0,3 C -0,6 C 93 % 1001,4 hPa 0,0 mm 0,0 km/h (0 Bft) O-SO 112 0 min -1,3 C 0,0 km/h (0 Bft)
15.02.2016 07:37 -0,3 C -0,6 C 93 % 1001,4 hPa 0,0 mm 0,0 km/h (0 Bft) O-SO 112 0 min -1,3 C 0,0 km/h (0 Bft)
15.02.2016 07:38 -0,3 C -0,6 C 93 % 1001,4 hPa 0,0 mm 0,0 km/h (0 Bft) O-SO 112 0 min -1,3 C 0,0 km/h (0 Bft)
15.02.2016 07:39 -0,4 C -0,6 C 93 % 1001,4 hPa 0,0 mm 0,0 km/h (0 Bft) O-SO 112 0 min -1,4 C 0,0 km/h (0 Bft)
15.02.2016 07:40 -0,4 C -0,6 C 93 % 1001,4 hPa 0,0 mm 0,0 km/h (0 Bft) O-SO 112 0 min -1,4 C 0,0 km/h (0 Bft)
15.02.2016 07:41 -0,4 C -0,6 C 93 % 1001,4 hPa 0,0 mm 0,3 km/h (0 Bft) O-SO 112 0 min -1,4 C 5,4 km/h (1 Bft)
15.02.2016 07:42 -0,4 C -0,6 C 93 % 1001,4 hPa 0,0 mm 0,3 km/h (0 Bft) O-SO 112 0 min -1,4 C 5,4 km/h (1 Bft)
15.02.2016 07:43 -0,4 C -0,6 C 93 % 1001,6 hPa 0,0 mm 0,3 km/h (0 Bft) O-SO 112 0 min -1,4 C 0,0 km/h (0 Bft)
15.02.2016 07:44 -0,4 C -0,6 C 93 % 1001,6 hPa 0,0 mm 0,3 km/h (0 Bft) O-SO 112 0 min -1,4 C 0,0 km/h (0 Bft)
15.02.2016 07:45 -0,4 C -0,6 C 93 % 1001,6 hPa 0,0 mm 0,3 km/h (0 Bft) O-SO 112 0 min -1,4 C 0,0 km/h (0 Bft)
15.02.2016 07:46 -0,4 C -0,6 C 93 % 1001,6 hPa 0,0 mm 0,3 km/h (0 Bft) O-SO 112 0 min -1,4 C 0,0 km/h (0 Bft)
15.02.2016 07:47 -0,3 C -0,6 C 93 % 1001,6 hPa 0,0 mm 0,3 km/h (0 Bft) O-SO 112 0 min -1,3 C 0,0 km/h (0 Bft)
15.02.2016 07:48 -0,3 C -0,6 C 93 % 1001,6 hPa 0,0 mm 0,3 km/h (0 Bft) O-SO 112 0 min -1,3 C 0,0 km/h (0 Bft)
15.02.2016 07:49 -0,3 C -0,6 C 93 % 1001,6 hPa 0,0 mm 0,3 km/h (0 Bft) O-SO 112 0 min -1,3 C 0,0 km/h (0 Bft)
15.02.2016 07:50 -0,3 C -0,6 C 93 % 1001,6 hPa 0,0 mm 0,3 km/h (0 Bft) O-SO 112 0 min -1,3 C 0,0 km/h (0 Bft)
15.02.2016 07:51 -0,4 C -0,6 C 93 % 1001,6 hPa 0,0 mm 0,3 km/h (0 Bft) O-SO 112 0 min -1,4 C 0,0 km/h (0 Bft)
15.02.2016 07:52 -0,4 C -0,6 C 93 % 1001,6 hPa 0,0 mm 0,3 km/h (0 Bft) O-SO 112 0 min -1,4 C 0,0 km/h (0 Bft)
15.02.2016 07:53 -0,4 C -0,6 C 93 % 1001,6 hPa 0,0 mm 0,0 km/h (0 Bft) O-SO 112 0 min -1,4 C 0,0 km/h (0 Bft)
15.02.2016 07:54 -0,4 C -0,6 C 93 % 1001,6 hPa 0,0 mm 0,0 km/h (0 Bft) O-SO 112 0 min -1,4 C 0,0 km/h (0 Bft)
15.02.2016 07:55 -0,3 C -0,6 C 93 % 1001,6 hPa 0,0 mm 0,0 km/h (0 Bft) O-SO 112 0 min -1,3 C 0,0 km/h (0 Bft)
15.02.2016 07:56 -0,3 C -0,6 C 93 % 1001,6 hPa 0,0 mm 0,0 km/h (0 Bft) O-SO 112 0 min -1,3 C 0,0 km/h (0 Bft)
15.02.2016 07:57 -0,2 C -0,5 C 93 % 1001,6 hPa 0,0 mm 0,0 km/h (0 Bft) O-SO 112 0 min -1,2 C 0,0 km/h (0 Bft)
15.02.2016 07:58 -0,2 C -0,5 C 93 % 1001,6 hPa 0,0 mm 0,0 km/h (0 Bft) O-SO 112 0 min -1,2 C 0,0 km/h (0 Bft)
15.02.2016 07:59 -0,2 C -0,5 C 93 % 1001,6 hPa 0,0 mm 0,0 km/h (0 Bft) O-SO 112 0 min -1,2 C 0,0 km/h (0 Bft)
15.02.2016 08:00 -0,2 C -0,5 C 93 % 1001,6 hPa 0,0 mm 0,0 km/h (0 Bft) O-SO 112 0 min -1,2 C 0,0 km/h (0 Bft)
15.02.2016 08:01 -0,1 C -0,4 C 93 % 1001,6 hPa 0,0 mm 0,0 km/h (0 Bft) O-SO 112 0 min -1,1 C 0,0 km/h (0 Bft)
15.02.2016 08:02 -0,1 C -0,4 C 93 % 1001,6 hPa 0,0 mm 0,0 km/h (0 Bft) O-SO 112 0 min -1,1 C 0,0 km/h (0 Bft)
15.02.2016 08:03 -0,1 C -0,4 C 93 % 1002,1 hPa 0,0 mm 0,0 km/h (0 Bft) O-SO 112 0 min -1,1 C 0,0 km/h (0 Bft)
15.02.2016 08:04 -0,1 C -0,4 C 93 % 1002,1 hPa 0,0 mm 0,0 km/h (0 Bft) O-SO 112 0 min -1,1 C 0,0 km/h (0 Bft)
15.02.2016 08:05 -0,1 C -0,3 C 93 % 1002,1 hPa 0,0 mm 0,0 km/h (0 Bft) O-SO 112 0 min -1,1 C 0,0 km/h (0 Bft)
15.02.2016 08:06 -0,1 C -0,3 C 93 % 1002,1 hPa 0,0 mm 0,0 km/h (0 Bft) O-SO 112 0 min -1,1 C 0,0 km/h (0 Bft)
15.02.2016 08:07 -0,1 C -0,3 C 87 % 1002,1 hPa 0,0 mm 0,0 km/h (0 Bft) O-SO 112 0 min -2,0 C 0,0 km/h (0 Bft)
15.02.2016 08:08 -0,1 C -0,3 C 87 % 1002,1 hPa 0,0 mm 0,0 km/h (0 Bft) O-SO 112 0 min -2,0 C 0,0 km/h (0 Bft)
15.02.2016 08:09 0,0 C -0,2 C 87 % 1002,1 hPa 0,0 mm 0,3 km/h (0 Bft) O-SO 112 0 min -1,9 C 0,0 km/h (0 Bft)
15.02.2016 08:10 0,0 C -0,2 C 87 % 1002,1 hPa 0,0 mm 0,3 km/h (0 Bft) O-SO 112 0 min -1,9 C 0,0 km/h (0 Bft)
15.02.2016 08:11 0,0 C -0,1 C 87 % 1002,1 hPa 0,0 mm 0,3 km/h (0 Bft) O-SO 112 0 min -1,9 C 0,0 km/h (0 Bft)
15.02.2016 08:12 0,0 C -0,1 C 87 % 1002,1 hPa 0,0 mm 0,3 km/h (0 Bft) O-SO 112 0 min -1,9 C 0,0 km/h (0 Bft)
15.02.2016 08:13 0,0 C -0,1 C 87 % 1002,1 hPa 0,0 mm 0,3 km/h (0 Bft) O-SO 112 0 min -1,9 C 0,0 km/h (0 Bft)
15.02.2016 08:14 0,0 C -0,1 C 87 % 1002,1 hPa 0,0 mm 0,3 km/h (0 Bft) O-SO 112 0 min -1,9 C 0,0 km/h (0 Bft)
15.02.2016 08:15 0,0 C -0,1 C 87 % 1002,1 hPa 0,0 mm 0,3 km/h (0 Bft) O-SO 112 0 min -1,9 C 0,0 km/h (0 Bft)
15.02.2016 08:16 0,0 C -0,1 C 87 % 1002,1 hPa 0,0 mm 0,3 km/h (0 Bft) O-SO 112 0 min -1,9 C 0,0 km/h (0 Bft)
15.02.2016 08:17 0,1 C 0,0 C 87 % 1002,1 hPa 0,0 mm 0,9 km/h (0 Bft) O-SO 112 0 min -1,8 C 3,9 km/h (1 Bft)
15.02.2016 08:18 0,1 C 0,0 C 87 % 1002,1 hPa 0,0 mm 0,9 km/h (0 Bft) O-SO 112 0 min -1,8 C 3,9 km/h (1 Bft)
15.02.2016 08:19 0,1 C 0,1 C 87 % 1002,1 hPa 0,0 mm 1,5 km/h (1 Bft) O-SO 112 0 min -1,8 C 3,9 km/h (1 Bft)
15.02.2016 08:20 0,1 C 0,1 C 87 % 1002,1 hPa 0,0 mm 1,5 km/h (1 Bft) O-SO 112 0 min -1,8 C 3,9 km/h (1 Bft)
15.02.2016 08:21 0,2 C 0,1 C 87 % 1002,1 hPa 0,0 mm 1,5 km/h (1 Bft) O-SO 112 0 min -1,7 C 0,0 km/h (0 Bft)
15.02.2016 08:22 0,2 C 0,1 C 87 % 1002,1 hPa 0,0 mm 1,5 km/h (1 Bft) O-SO 112 0 min -1,7 C 0,0 km/h (0 Bft)
15.02.2016 08:23 0,2 C 0,1 C 87 % 1002,3 hPa 0,0 mm 1,8 km/h (1 Bft) O-SO 112 0 min -1,7 C 3,6 km/h (1 Bft)
15.02.2016 08:24 0,2 C 0,1 C 87 % 1002,3 hPa 0,0 mm 1,8 km/h (1 Bft) O-SO 112 0 min -1,7 C 3,6 km/h (1 Bft)
15.02.2016 08:25 0,2 C 0,1 C 88 % 1002,3 hPa 0,0 mm 2,1 km/h (1 Bft) O-SO 112 0 min -1,5 C 3,3 km/h (1 Bft)
15.02.2016 08:26 0,2 C 0,1 C 88 % 1002,3 hPa 0,0 mm 2,1 km/h (1 Bft) O-SO 112 0 min -1,5 C 3,3 km/h (1 Bft)
15.02.2016 08:27 0,4 C 0,3 C 88 % 1002,3 hPa 0,0 mm 2,4 km/h (1 Bft) O-SO 112 0 min -1,3 C 0,0 km/h (0 Bft)
15.02.2016 08:28 0,4 C 0,3 C 88 % 1002,3 hPa 0,0 mm 2,4 km/h (1 Bft) O-SO 112 0 min -1,3 C 0,0 km/h (0 Bft)
15.02.2016 08:29 0,5 C 0,4 C 88 % 1002,3 hPa 0,0 mm 1,8 km/h (1 Bft) O-SO 112 0 min -1,3 C 3,0 km/h (1 Bft)
15.02.2016 08:30 0,5 C 0,4 C 88 % 1002,3 hPa 0,0 mm 1,8 km/h (1 Bft) O-SO 112 0 min -1,3 C 3,0 km/h (1 Bft)
15.02.2016 08:31 0,6 C 0,4 C 88 % 1002,3 hPa 0,0 mm 1,5 km/h (1 Bft) O-SO 112 0 min -1,2 C 0,0 km/h (0 Bft)
15.02.2016 08:32 0,6 C 0,4 C 88 % 1002,3 hPa 0,0 mm 1,5 km/h (1 Bft) O-SO 112 0 min -1,2 C 0,0 km/h (0 Bft)
15.02.2016 08:33 0,6 C 0,4 C 88 % 1002,3 hPa 0,0 mm 1,8 km/h (1 Bft) O-SO 112 0 min -1,2 C 0,0 km/h (0 Bft)
15.02.2016 08:34 0,6 C 0,4 C 88 % 1002,3 hPa 0,0 mm 1,8 km/h (1 Bft) O-SO 112 0 min -1,2 C 0,0 km/h (0 Bft)
15.02.2016 08:35 0,6 C 0,5 C 88 % 1002,3 hPa 0,0 mm 1,2 km/h (1 Bft) O-SO 112 0 min -1,2 C 0,0 km/h (0 Bft)
15.02.2016 08:36 0,6 C 0,5 C 88 % 1002,3 hPa 0,0 mm 1,2 km/h (1 Bft) O-SO 112 0 min -1,2 C 0,0 km/h (0 Bft)
15.02.2016 08:37 0,5 C 0,4 C 94 % 1002,3 hPa 0,0 mm 1,2 km/h (1 Bft) O-SO 112 0 min -0,4 C 3,6 km/h (1 Bft)
15.02.2016 08:38 0,5 C 0,4 C 94 % 1002,3 hPa 0,0 mm 1,2 km/h (1 Bft) O-SO 112 0 min -0,4 C 3,6 km/h (1 Bft)
15.02.2016 08:39 0,5 C 0,4 C 94 % 1002,3 hPa 0,0 mm 1,2 km/h (1 Bft) O-SO 112 0 min -0,4 C 0,0 km/h (0 Bft)
15.02.2016 08:40 0,5 C 0,4 C 94 % 1002,3 hPa 0,0 mm 1,2 km/h (1 Bft) O-SO 112 0 min -0,4 C 0,0 km/h (0 Bft)
15.02.2016 08:41 0,5 C 0,4 C 94 % 1002,3 hPa 0,0 mm 1,2 km/h (1 Bft) O-SO 112 0 min -0,4 C 0,0 km/h (0 Bft)
15.02.2016 08:42 0,5 C 0,4 C 94 % 1002,3 hPa 0,0 mm 1,2 km/h (1 Bft) O-SO 112 0 min -0,4 C 0,0 km/h (0 Bft)
15.02.2016 08:43 0,4 C 0,4 C 88 % 1002,5 hPa 0,0 mm 0,9 km/h (0 Bft) O-SO 112 0 min -1,3 C 0,0 km/h (0 Bft)
15.02.2016 08:44 0,4 C 0,4 C 88 % 1002,5 hPa 0,0 mm 0,9 km/h (0 Bft) O-SO 112 0 min -1,3 C 0,0 km/h (0 Bft)
15.02.2016 08:45 0,4 C 0,5 C 88 % 1002,5 hPa 0,0 mm 0,9 km/h (0 Bft) O-SO 112 0 min -1,3 C 0,0 km/h (0 Bft)
15.02.2016 08:46 0,4 C 0,5 C 88 % 1002,5 hPa 0,0 mm 0,9 km/h (0 Bft) O-SO 112 0 min -1,3 C 0,0 km/h (0 Bft)
15.02.2016 08:47 0,4 C 0,5 C 88 % 1002,5 hPa 0,0 mm 0,6 km/h (0 Bft) O-SO 112 0 min -1,3 C 0,0 km/h (0 Bft)
15.02.2016 08:48 0,4 C 0,5 C 88 % 1002,5 hPa 0,0 mm 0,6 km/h (0 Bft) O-SO 112 0 min -1,3 C 0,0 km/h (0 Bft)
15.02.2016 08:49 0,5 C 0,5 C 88 % 1002,5 hPa 0,0 mm 0,0 km/h (0 Bft) O-SO 112 0 min -1,3 C 0,0 km/h (0 Bft)
15.02.2016 08:50 0,5 C 0,5 C 88 % 1002,5 hPa 0,0 mm 0,0 km/h (0 Bft) O-SO 112 0 min -1,3 C 0,0 km/h (0 Bft)
15.02.2016 08:51 0,5 C 0,5 C 88 % 1002,5 hPa 0,0 mm 0,0 km/h (0 Bft) O-SO 112 0 min -1,3 C 0,0 km/h (0 Bft)
15.02.2016 08:52 0,5 C 0,5 C 88 % 1002,5 hPa 0,0 mm 0,0 km/h (0 Bft) O-SO 112 0 min -1,3 C 0,0 km/h (0 Bft)
15.02.2016 08:53 0,5 C 0,6 C 88 % 1002,5 hPa 0,0 mm 0,0 km/h (0 Bft) O-SO 112 0 min -1,3 C 5,1 km/h (1 Bft)
15.02.2016 08:54 0,5 C 0,6 C 88 % 1002,5 hPa 0,0 mm 0,0 km/h (0 Bft) O-SO 112 0 min -1,3 C 5,1 km/h (1 Bft)
15.02.2016 08:55 0,6 C 0,7 C 88 % 1002,5 hPa 0,0 mm 0,0 km/h (0 Bft) O-SO 112 0 min -1,2 C 0,0 km/h (0 Bft)
15.02.2016 08:56 0,6 C 0,7 C 88 % 1002,5 hPa 0,0 mm 0,0 km/h (0 Bft) O-SO 112 0 min -1,2 C 0,0 km/h (0 Bft)
15.02.2016 08:57 0,7 C 0,8 C 88 % 1002,5 hPa 0,0 mm 0,0 km/h (0 Bft) O-SO 112 0 min -1,1 C 0,0 km/h (0 Bft)
15.02.2016 08:58 0,7 C 0,8 C 88 % 1002,5 hPa 0,0 mm 0,0 km/h (0 Bft) O-SO 112 0 min -1,1 C 0,0 km/h (0 Bft)
15.02.2016 08:59 0,7 C 0,9 C 88 % 1002,5 hPa 0,0 mm 0,0 km/h (0 Bft) O 90 0 min -1,1 C 0,0 km/h (0 Bft)
15.02.2016 09:00 0,7 C 0,9 C 88 % 1002,5 hPa 0,0 mm 0,0 km/h (0 Bft) O 90 0 min -1,1 C 0,0 km/h (0 Bft)
15.02.2016 09:01 0,7 C 0,9 C 88 % 1002,5 hPa 0,0 mm 0,0 km/h (0 Bft) O-NO 67 0 min -1,1 C 0,0 km/h (0 Bft)
15.02.2016 09:02 0,7 C 0,9 C 88 % 1002,5 hPa 0,0 mm 0,0 km/h (0 Bft) O-NO 67 0 min -1,1 C 0,0 km/h (0 Bft)
15.02.2016 09:03 0,7 C 0,9 C 88 % 1003,0 hPa 0,0 mm 0,0 km/h (0 Bft) O-NO 67 0 min -1,1 C 0,0 km/h (0 Bft)
15.02.2016 09:04 0,7 C 0,9 C 88 % 1003,0 hPa 0,0 mm 0,0 km/h (0 Bft) O-NO 67 0 min -1,1 C 0,0 km/h (0 Bft)
15.02.2016 09:05 0,7 C 0,9 C 88 % 1003,0 hPa 0,0 mm 0,3 km/h (0 Bft) O-NO 67 0 min -1,1 C 4,5 km/h (1 Bft)
15.02.2016 09:06 0,7 C 0,9 C 88 % 1003,0 hPa 0,0 mm 0,3 km/h (0 Bft) O-NO 67 0 min -1,1 C 4,5 km/h (1 Bft)
15.02.2016 09:07 0,7 C 0,8 C 88 % 1003,0 hPa 0,0 mm 0,9 km/h (0 Bft) O-NO 67 0 min -1,1 C 5,4 km/h (1 Bft)
15.02.2016 09:08 0,7 C 0,8 C 88 % 1003,0 hPa 0,0 mm 0,9 km/h (0 Bft) O-NO 67 0 min -1,1 C 5,4 km/h (1 Bft)
15.02.2016 09:09 0,7 C 0,8 C 88 % 1003,0 hPa 0,0 mm 1,2 km/h (1 Bft) NO 45 0 min -1,1 C 4,5 km/h (1 Bft)
15.02.2016 09:10 0,7 C 0,8 C 88 % 1003,0 hPa 0,0 mm 1,2 km/h (1 Bft) NO 45 0 min -1,1 C 4,5 km/h (1 Bft)
15.02.2016 09:11 0,6 C 0,8 C 88 % 1003,0 hPa 0,0 mm 1,5 km/h (1 Bft) O 90 0 min -1,2 C 0,0 km/h (0 Bft)
15.02.2016 09:12 0,6 C 0,8 C 88 % 1003,0 hPa 0,0 mm 1,5 km/h (1 Bft) O 90 0 min -1,2 C 0,0 km/h (0 Bft)
15.02.2016 09:13 0,7 C 0,8 C 88 % 1003,0 hPa 0,0 mm 1,5 km/h (1 Bft) O 90 0 min -1,1 C 0,0 km/h (0 Bft)
15.02.2016 09:14 0,7 C 0,8 C 88 % 1003,0 hPa 0,0 mm 1,5 km/h (1 Bft) O 90 0 min -1,1 C 0,0 km/h (0 Bft)
15.02.2016 09:15 0,7 C 0,8 C 88 % 1003,0 hPa 0,0 mm 1,5 km/h (1 Bft) S-SO 157 0 min -1,1 C 0,0 km/h (0 Bft)
15.02.2016 09:16 0,7 C 0,8 C 88 % 1003,0 hPa 0,0 mm 1,5 km/h (1 Bft) S-SO 157 0 min -1,1 C 0,0 km/h (0 Bft)
15.02.2016 09:17 0,7 C 0,9 C 88 % 1003,0 hPa 0,0 mm 1,2 km/h (1 Bft) SO 135 0 min -1,1 C 0,0 km/h (0 Bft)
15.02.2016 09:18 0,7 C 0,9 C 88 % 1003,0 hPa 0,0 mm 1,2 km/h (1 Bft) SO 135 0 min -1,1 C 0,0 km/h (0 Bft)
15.02.2016 09:19 0,7 C 0,9 C 88 % 1003,0 hPa 0,0 mm 0,6 km/h (0 Bft) O-NO 67 0 min -1,1 C 0,0 km/h (0 Bft)
15.02.2016 09:20 0,7 C 0,9 C 88 % 1003,0 hPa 0,0 mm 0,6 km/h (0 Bft) O-NO 67 0 min -1,1 C 0,0 km/h (0 Bft)
15.02.2016 09:21 0,7 C 0,9 C 88 % 1003,0 hPa 0,7 mm 0,0 km/h (0 Bft) O 90 0 min -1,1 C 0,0 km/h (0 Bft)
15.02.2016 09:22 0,7 C 0,9 C 88 % 1003,0 hPa 0,0 mm 0,0 km/h (0 Bft) O 90 0 min -1,1 C 0,0 km/h (0 Bft)
15.02.2016 09:23 0,8 C 0,9 C 88 % 1003,4 hPa 0,0 mm 0,0 km/h (0 Bft) O 90 0 min -1,0 C 0,0 km/h (0 Bft)
15.02.2016 09:24 0,8 C 0,9 C 88 % 1003,4 hPa 0,0 mm 0,0 km/h (0 Bft) O 90 0 min -1,0 C 0,0 km/h (0 Bft)
15.02.2016 09:25 0,8 C 1,0 C 88 % 1003,4 hPa 0,0 mm 0,0 km/h (0 Bft) O-NO 67 0 min -1,0 C 0,0 km/h (0 Bft)
15.02.2016 09:26 0,8 C 1,0 C 88 % 1003,4 hPa 0,0 mm 0,0 km/h (0 Bft) O-NO 67 0 min -1,0 C 0,0 km/h (0 Bft)
15.02.2016 09:27 0,8 C 1,0 C 88 % 1003,4 hPa 0,0 mm 0,0 km/h (0 Bft) SO 135 0 min -1,0 C 0,0 km/h (0 Bft)
15.02.2016 09:28 0,8 C 1,0 C 88 % 1003,4 hPa 0,0 mm 0,0 km/h (0 Bft) SO 135 0 min -1,0 C 0,0 km/h (0 Bft)
15.02.2016 09:29 0,8 C 1,0 C 88 % 1003,4 hPa 0,0 mm 0,0 km/h (0 Bft) S-SO 157 0 min -1,0 C 0,0 km/h (0 Bft)
15.02.2016 09:30 0,8 C 1,0 C 88 % 1003,4 hPa 0,0 mm 0,0 km/h (0 Bft) S-SO 157 0 min -1,0 C 0,0 km/h (0 Bft)
15.02.2016 09:31 0,9 C 1,0 C 88 % 1003,4 hPa 0,0 mm 0,0 km/h (0 Bft) SO 135 0 min -0,9 C 0,0 km/h (0 Bft)
15.02.2016 09:32 0,9 C 1,0 C 88 % 1003,4 hPa 0,0 mm 0,0 km/h (0 Bft) SO 135 0 min -0,9 C 0,0 km/h (0 Bft)
15.02.2016 09:33 0,9 C 1,0 C 88 % 1003,4 hPa 0,0 mm 0,0 km/h (0 Bft) SO 135 0 min -0,9 C 0,0 km/h (0 Bft)
15.02.2016 09:34 0,9 C 1,0 C 88 % 1003,4 hPa 0,0 mm 0,0 km/h (0 Bft) SO 135 0 min -0,9 C 0,0 km/h (0 Bft)
15.02.2016 09:35 0,9 C 1,1 C 88 % 1003,4 hPa 0,0 mm 0,0 km/h (0 Bft) SO 135 0 min -0,9 C 0,0 km/h (0 Bft)
15.02.2016 09:36 0,9 C 1,1 C 88 % 1003,4 hPa 0,0 mm 0,0 km/h (0 Bft) SO 135 0 min -0,9 C 0,0 km/h (0 Bft)
15.02.2016 09:37 1,0 C 1,1 C 88 % 1003,4 hPa 0,0 mm 0,0 km/h (0 Bft) O-SO 112 0 min -0,8 C 0,0 km/h (0 Bft)
15.02.2016 09:38 1,0 C 1,1 C 88 % 1003,4 hPa 0,0 mm 0,0 km/h (0 Bft) O-SO 112 0 min -0,8 C 0,0 km/h (0 Bft)
15.02.2016 09:39 1,0 C 1,2 C 88 % 1003,4 hPa 0,0 mm 0,0 km/h (0 Bft) O-SO 112 0 min -0,8 C 0,0 km/h (0 Bft)
15.02.2016 09:40 1,0 C 1,2 C 88 % 1003,4 hPa 0,0 mm 0,0 km/h (0 Bft) O-SO 112 0 min -0,8 C 0,0 km/h (0 Bft)
15.02.2016 09:41 1,0 C 1,2 C 88 % 1003,4 hPa 0,0 mm 0,0 km/h (0 Bft) SO 135 0 min -0,8 C 0,0 km/h (0 Bft)
15.02.2016 09:42 1,0 C 1,2 C 88 % 1003,4 hPa 0,0 mm 0,0 km/h (0 Bft) SO 135 0 min -0,8 C 0,0 km/h (0 Bft)
15.02.2016 09:43 1,0 C 1,3 C 88 % 1003,8 hPa 0,0 mm 0,0 km/h (0 Bft) SO 135 0 min -0,8 C 0,0 km/h (0 Bft)
15.02.2016 09:44 1,0 C 1,3 C 88 % 1003,8 hPa 0,0 mm 0,0 km/h (0 Bft) SO 135 0 min -0,8 C 0,0 km/h (0 Bft)
15.02.2016 09:45 1,1 C 1,3 C 88 % 1003,8 hPa 0,0 mm 0,0 km/h (0 Bft) O-SO 112 0 min -0,7 C 0,0 km/h (0 Bft)
15.02.2016 09:46 1,1 C 1,3 C 88 % 1003,8 hPa 0,0 mm 0,0 km/h (0 Bft) O-SO 112 0 min -0,7 C 0,0 km/h (0 Bft)
15.02.2016 09:47 1,1 C 1,3 C 88 % 1003,8 hPa 0,0 mm 0,3 km/h (0 Bft) O-SO 112 0 min -0,7 C 3,6 km/h (1 Bft)
15.02.2016 09:48 1,1 C 1,3 C 88 % 1003,8 hPa 0,0 mm 0,3 km/h (0 Bft) O-SO 112 0 min -0,7 C 3,6 km/h (1 Bft)
15.02.2016 09:49 1,1 C 1,4 C 88 % 1003,8 hPa 0,0 mm 0,3 km/h (0 Bft) O-SO 112 0 min -0,7 C 0,0 km/h (0 Bft)
15.02.2016 09:50 1,1 C 1,4 C 88 % 1003,8 hPa 0,0 mm 0,3 km/h (0 Bft) O-SO 112 0 min -0,7 C 0,0 km/h (0 Bft)
15.02.2016 09:51 1,1 C 1,4 C 88 % 1003,8 hPa 0,0 mm 0,3 km/h (0 Bft) O-SO 112 0 min -0,7 C 0,0 km/h (0 Bft)
15.02.2016 09:52 1,1 C 1,4 C 88 % 1003,8 hPa 0,0 mm 0,3 km/h (0 Bft) O-SO 112 0 min -0,7 C 0,0 km/h (0 Bft)
15.02.2016 09:53 1,2 C 1,5 C 88 % 1003,8 hPa 0,0 mm 0,3 km/h (0 Bft) O-NO 67 0 min -0,6 C 0,0 km/h (0 Bft)
15.02.2016 09:54 1,2 C 1,5 C 88 % 1003,8 hPa 0,0 mm 0,3 km/h (0 Bft) O-NO 67 0 min -0,6 C 0,0 km/h (0 Bft)
15.02.2016 09:55 1,2 C 1,5 C 88 % 1003,8 hPa 0,0 mm 0,3 km/h (0 Bft) O 90 0 min -0,6 C 0,0 km/h (0 Bft)
15.02.2016 09:56 1,2 C 1,5 C 88 % 1003,8 hPa 0,0 mm 0,3 km/h (0 Bft) O 90 0 min -0,6 C 0,0 km/h (0 Bft)
15.02.2016 09:57 1,4 C 1,6 C 88 % 1003,8 hPa 0,0 mm 0,3 km/h (0 Bft) O-NO 67 0 min -0,4 C 0,0 km/h (0 Bft)
15.02.2016 09:58 1,4 C 1,6 C 88 % 1003,8 hPa 0,0 mm 0,3 km/h (0 Bft) O-NO 67 0 min -0,4 C 0,0 km/h (0 Bft)
15.02.2016 09:59 1,4 C 1,7 C 88 % 1003,8 hPa 0,0 mm 0,0 km/h (0 Bft) O-SO 112 0 min -0,4 C 0,0 km/h (0 Bft)
15.02.2016 10:00 1,4 C 1,7 C 88 % 1003,8 hPa 0,0 mm 0,0 km/h (0 Bft) O-SO 112 0 min -0,4 C 0,0 km/h (0 Bft)
15.02.2016 10:01 1,4 C 1,7 C 88 % 1003,8 hPa 0,0 mm 0,0 km/h (0 Bft) O-SO 112 0 min -0,4 C 0,0 km/h (0 Bft)
15.02.2016 10:02 1,4 C 1,7 C 88 % 1003,8 hPa 0,0 mm 0,0 km/h (0 Bft) O-SO 112 0 min -0,4 C 0,0 km/h (0 Bft)
15.02.2016 10:03 1,4 C 1,8 C 88 % 1004,1 hPa 0,0 mm 0,0 km/h (0 Bft) O-SO 112 0 min -0,4 C 0,0 km/h (0 Bft)
15.02.2016 10:04 1,4 C 1,8 C 88 % 1004,1 hPa 0,0 mm 0,0 km/h (0 Bft) O-SO 112 0 min -0,4 C 0,0 km/h (0 Bft)
15.02.2016 10:05 1,4 C 1,9 C 88 % 1004,1 hPa 0,0 mm 0,0 km/h (0 Bft) O-SO 112 0 min -0,4 C 0,0 km/h (0 Bft)
15.02.2016 10:06 1,4 C 1,9 C 88 % 1004,1 hPa 0,0 mm 0,0 km/h (0 Bft) O-SO 112 0 min -0,4 C 0,0 km/h (0 Bft)
15.02.2016 10:07 1,5 C 1,9 C 88 % 1004,1 hPa 0,0 mm 0,0 km/h (0 Bft) O-SO 112 0 min -0,3 C 0,0 km/h (0 Bft)
15.02.2016 10:08 1,5 C 1,9 C 88 % 1004,1 hPa 0,0 mm 0,0 km/h (0 Bft) O-SO 112 0 min -0,3 C 0,0 km/h (0 Bft)
15.02.2016 10:09 1,5 C 2,0 C 88 % 1004,1 hPa 0,0 mm 0,0 km/h (0 Bft) O-SO 112 0 min -0,3 C 0,0 km/h (0 Bft)
15.02.2016 10:10 1,5 C 2,0 C 88 % 1004,1 hPa 0,0 mm 0,0 km/h (0 Bft) O-SO 112 0 min -0,3 C 0,0 km/h (0 Bft)
15.02.2016 10:11 1,5 C 2,1 C 88 % 1004,1 hPa 0,0 mm 0,0 km/h (0 Bft) S-SO 157 0 min -0,3 C 0,0 km/h (0 Bft)
15.02.2016 10:12 1,5 C 2,1 C 88 % 1004,1 hPa 0,0 mm 0,0 km/h (0 Bft) S-SO 157 0 min -0,3 C 0,0 km/h (0 Bft)
15.02.2016 10:13 1,5 C 2,1 C 88 % 1004,1 hPa 0,0 mm 0,0 km/h (0 Bft) SW 225 0 min -0,3 C 0,0 km/h (0 Bft)
15.02.2016 10:14 1,5 C 2,1 C 88 % 1004,1 hPa 0,0 mm 0,0 km/h (0 Bft) SW 225 0 min -0,3 C 0,0 km/h (0 Bft)
15.02.2016 10:15 1,5 C 2,1 C 88 % 1004,1 hPa 0,0 mm 0,0 km/h (0 Bft) S 180 0 min -0,3 C 0,0 km/h (0 Bft)
15.02.2016 10:16 1,5 C 2,1 C 88 % 1004,1 hPa 0,0 mm 0,0 km/h (0 Bft) S 180 0 min -0,3 C 0,0 km/h (0 Bft)
15.02.2016 10:17 1,5 C 2,2 C 88 % 1004,1 hPa 0,0 mm 0,0 km/h (0 Bft) W-SW 247 0 min -0,3 C 0,0 km/h (0 Bft)
15.02.2016 10:18 1,5 C 2,2 C 88 % 1004,1 hPa 0,0 mm 0,0 km/h (0 Bft) W-SW 247 0 min -0,3 C 0,0 km/h (0 Bft)
15.02.2016 10:19 1,5 C 2,2 C 88 % 1004,1 hPa 0,0 mm 0,0 km/h (0 Bft) W-NW 292 0 min -0,3 C 0,0 km/h (0 Bft)
15.02.2016 10:20 1,5 C 2,2 C 88 % 1004,1 hPa 0,0 mm 0,0 km/h (0 Bft) W-NW 292 0 min -0,3 C 0,0 km/h (0 Bft)
15.02.2016 10:21 1,5 C 2,2 C 88 % 1004,1 hPa 0,0 mm 0,0 km/h (0 Bft) N 360 0 min -0,3 C 0,0 km/h (0 Bft)
15.02.2016 10:22 1,5 C 2,2 C 88 % 1004,1 hPa 0,0 mm 0,0 km/h (0 Bft) N 360 0 min -0,3 C 0,0 km/h (0 Bft)
15.02.2016 10:23 1,6 C 2,1 C 88 % 1004,4 hPa 0,0 mm 0,0 km/h (0 Bft) N-NW 337 0 min -0,2 C 0,0 km/h (0 Bft)
15.02.2016 10:24 1,6 C 2,1 C 88 % 1004,4 hPa 0,0 mm 0,0 km/h (0 Bft) N-NW 337 0 min -0,2 C 0,0 km/h (0 Bft)
15.02.2016 10:25 1,6 C 2,1 C 88 % 1004,4 hPa 0,0 mm 0,0 km/h (0 Bft) NW 315 0 min -0,2 C 0,0 km/h (0 Bft)
15.02.2016 10:26 1,6 C 2,1 C 88 % 1004,4 hPa 0,0 mm 0,0 km/h (0 Bft) NW 315 0 min -0,2 C 0,0 km/h (0 Bft)
15.02.2016 10:27 1,6 C 2,1 C 88 % 1004,4 hPa 0,0 mm 0,0 km/h (0 Bft) NW 315 0 min -0,2 C 0,0 km/h (0 Bft)
15.02.2016 10:28 1,6 C 2,1 C 88 % 1004,4 hPa 0,0 mm 0,0 km/h (0 Bft) NW 315 0 min -0,2 C 0,0 km/h (0 Bft)
15.02.2016 10:29 1,6 C 2,1 C 88 % 1004,4 hPa 0,0 mm 0,0 km/h (0 Bft) NW 315 0 min -0,2 C 0,0 km/h (0 Bft)
15.02.2016 10:30 1,6 C 2,1 C 88 % 1004,4 hPa 0,0 mm 0,0 km/h (0 Bft) NW 315 0 min -0,2 C 0,0 km/h (0 Bft)
15.02.2016 10:31 1,6 C 2,2 C 88 % 1004,4 hPa 0,0 mm 0,0 km/h (0 Bft) NW 315 0 min -0,2 C 0,0 km/h (0 Bft)
15.02.2016 10:32 1,6 C 2,2 C 88 % 1004,4 hPa 0,0 mm 0,0 km/h (0 Bft) NW 315 0 min -0,2 C 0,0 km/h (0 Bft)
15.02.2016 10:33 1,6 C 2,2 C 88 % 1004,4 hPa 0,0 mm 0,0 km/h (0 Bft) NW 315 0 min -0,2 C 0,0 km/h (0 Bft)
15.02.2016 10:34 1,6 C 2,2 C 88 % 1004,4 hPa 0,0 mm 0,0 km/h (0 Bft) NW 315 0 min -0,2 C 0,0 km/h (0 Bft)
15.02.2016 10:35 1,7 C 2,2 C 88 % 1004,4 hPa 0,0 mm 0,0 km/h (0 Bft) NW 315 0 min -0,1 C 0,0 km/h (0 Bft)
15.02.2016 10:36 1,7 C 2,2 C 88 % 1004,4 hPa 0,0 mm 0,0 km/h (0 Bft) NW 315 0 min -0,1 C 0,0 km/h (0 Bft)
15.02.2016 10:37 1,7 C 2,3 C 88 % 1004,4 hPa 0,0 mm 0,0 km/h (0 Bft) W-NW 292 0 min -0,1 C 0,0 km/h (0 Bft)
15.02.2016 10:38 1,7 C 2,3 C 88 % 1004,4 hPa 0,0 mm 0,0 km/h (0 Bft) W-NW 292 0 min -0,1 C 0,0 km/h (0 Bft)
15.02.2016 10:39 1,8 C 2,3 C 88 % 1004,4 hPa 0,0 mm 0,0 km/h (0 Bft) W-NW 292 0 min 0,0 C 0,0 km/h (0 Bft)
15.02.2016 10:40 1,8 C 2,3 C 88 % 1004,4 hPa 0,0 mm 0,0 km/h (0 Bft) W-NW 292 0 min 0,0 C 0,0 km/h (0 Bft)
15.02.2016 10:41 1,8 C 2,4 C 88 % 1004,4 hPa 0,0 mm 0,0 km/h (0 Bft) W-NW 292 0 min 0,0 C 0,0 km/h (0 Bft)
15.02.2016 10:42 1,8 C 2,4 C 88 % 1004,4 hPa 0,0 mm 0,0 km/h (0 Bft) W-NW 292 0 min 0,0 C 0,0 km/h (0 Bft)
15.02.2016 10:43 1,8 C 2,4 C 88 % 1004,7 hPa 0,0 mm 0,0 km/h (0 Bft) NW 315 0 min 0,0 C 0,0 km/h (0 Bft)
15.02.2016 10:44 1,8 C 2,4 C 88 % 1004,7 hPa 0,0 mm 0,0 km/h (0 Bft) NW 315 0 min 0,0 C 0,0 km/h (0 Bft)
15.02.2016 10:45 1,9 C 2,4 C 88 % 1004,7 hPa 0,0 mm 0,0 km/h (0 Bft) NW 315 0 min 0,1 C 0,0 km/h (0 Bft)
15.02.2016 10:46 1,9 C 2,4 C 88 % 1004,7 hPa 0,0 mm 0,0 km/h (0 Bft) NW 315 0 min 0,1 C 0,0 km/h (0 Bft)
15.02.2016 10:47 1,9 C 2,5 C 88 % 1004,7 hPa 0,0 mm 0,0 km/h (0 Bft) NW 315 0 min 0,1 C 0,0 km/h (0 Bft)
15.02.2016 10:48 1,9 C 2,5 C 88 % 1004,7 hPa 0,0 mm 0,0 km/h (0 Bft) NW 315 0 min 0,1 C 0,0 km/h (0 Bft)
15.02.2016 10:49 1,9 C 2,6 C 88 % 1004,7 hPa 0,0 mm 0,0 km/h (0 Bft) NW 315 0 min 0,1 C 0,0 km/h (0 Bft)
15.02.2016 10:50 1,9 C 2,6 C 88 % 1004,7 hPa 0,0 mm 0,0 km/h (0 Bft) NW 315 0 min 0,1 C 0,0 km/h (0 Bft)
15.02.2016 10:51 2,0 C 2,8 C 87 % 1004,7 hPa 0,0 mm 0,0 km/h (0 Bft) N-NO 22 0 min 0,1 C 0,0 km/h (0 Bft)
15.02.2016 10:52 2,0 C 2,8 C 87 % 1004,7 hPa 0,0 mm 0,0 km/h (0 Bft) N-NO 22 0 min 0,1 C 0,0 km/h (0 Bft)
15.02.2016 10:53 2,0 C 2,9 C 87 % 1004,7 hPa 0,0 mm 0,0 km/h (0 Bft) N-NO 22 0 min 0,1 C 0,0 km/h (0 Bft)
15.02.2016 10:54 2,0 C 2,9 C 87 % 1004,7 hPa 0,0 mm 0,0 km/h (0 Bft) N-NO 22 0 min 0,1 C 0,0 km/h (0 Bft)
15.02.2016 10:55 2,2 C 3,1 C 87 % 1004,7 hPa 0,0 mm 0,0 km/h (0 Bft) N 360 0 min 0,3 C 0,0 km/h (0 Bft)
15.02.2016 10:56 2,2 C 3,1 C 87 % 1004,7 hPa 0,0 mm 0,0 km/h (0 Bft) N 360 0 min 0,3 C 0,0 km/h (0 Bft)
15.02.2016 10:57 2,3 C 3,3 C 87 % 1004,7 hPa 0,0 mm 0,0 km/h (0 Bft) NO 45 0 min 0,4 C 0,0 km/h (0 Bft)
15.02.2016 10:58 2,3 C 3,3 C 87 % 1004,7 hPa 0,0 mm 0,0 km/h (0 Bft) NO 45 0 min 0,4 C 0,0 km/h (0 Bft)
15.02.2016 10:59 2,4 C 3,4 C 88 % 1004,7 hPa 0,0 mm 0,0 km/h (0 Bft) NO 45 0 min 0,6 C 0,0 km/h (0 Bft)
15.02.2016 11:00 2,4 C 3,4 C 88 % 1004,7 hPa 0,0 mm 0,0 km/h (0 Bft) NO 45 0 min 0,6 C 0,0 km/h (0 Bft)
15.02.2016 11:01 2,5 C 3,8 C 88 % 1004,7 hPa 0,0 mm 0,0 km/h (0 Bft) N-NO 22 0 min 0,7 C 0,0 km/h (0 Bft)
15.02.2016 11:02 2,5 C 3,8 C 88 % 1004,7 hPa 0,0 mm 0,0 km/h (0 Bft) N-NO 22 0 min 0,7 C 0,0 km/h (0 Bft)
15.02.2016 11:03 2,6 C 4,0 C 88 % 1004,8 hPa 0,0 mm 0,0 km/h (0 Bft) NW 315 0 min 0,8 C 3,9 km/h (1 Bft)
15.02.2016 11:04 2,6 C 4,0 C 88 % 1004,8 hPa 0,0 mm 0,0 km/h (0 Bft) NW 315 0 min 0,8 C 3,9 km/h (1 Bft)
15.02.2016 11:05 2,7 C 4,6 C 87 % 1004,8 hPa 0,0 mm 0,3 km/h (0 Bft) N 360 0 min 0,8 C 3,9 km/h (1 Bft)
15.02.2016 11:06 2,7 C 4,6 C 87 % 1004,8 hPa 0,0 mm 0,3 km/h (0 Bft) N 360 0 min 0,8 C 3,9 km/h (1 Bft)
15.02.2016 11:07 2,8 C 5,0 C 88 % 1004,8 hPa 0,0 mm 0,3 km/h (0 Bft) NW 315 0 min 1,0 C 0,0 km/h (0 Bft)
15.02.2016 11:08 2,8 C 5,0 C 88 % 1004,8 hPa 0,0 mm 0,3 km/h (0 Bft) NW 315 0 min 1,0 C 0,0 km/h (0 Bft)
15.02.2016 11:09 2,9 C 5,3 C 88 % 1004,8 hPa 0,0 mm 0,6 km/h (0 Bft) W-NW 292 0 min 1,1 C 4,8 km/h (1 Bft)
15.02.2016 11:10 2,9 C 5,3 C 88 % 1004,8 hPa 0,0 mm 0,6 km/h (0 Bft) W-NW 292 0 min 1,1 C 4,8 km/h (1 Bft)
15.02.2016 11:11 3,0 C 5,4 C 87 % 1004,8 hPa 0,0 mm 1,2 km/h (1 Bft) N-NO 22 0 min 1,1 C 0,0 km/h (0 Bft)
15.02.2016 11:12 3,0 C 5,4 C 87 % 1004,8 hPa 0,0 mm 1,2 km/h (1 Bft) N-NO 22 0 min 1,1 C 0,0 km/h (0 Bft)
15.02.2016 11:13 3,0 C 5,5 C 87 % 1004,8 hPa 0,0 mm 1,2 km/h (1 Bft) NW 315 0 min 1,1 C 3,6 km/h (1 Bft)
15.02.2016 11:14 3,0 C 5,5 C 87 % 1004,8 hPa 0,0 mm 1,2 km/h (1 Bft) NW 315 0 min 1,1 C 3,6 km/h (1 Bft)
15.02.2016 11:15 3,0 C 5,5 C 87 % 1004,8 hPa 0,0 mm 1,5 km/h (1 Bft) NW 315 0 min 1,1 C 0,0 km/h (0 Bft)
15.02.2016 11:16 3,0 C 5,5 C 87 % 1004,8 hPa 0,0 mm 1,5 km/h (1 Bft) NW 315 0 min 1,1 C 0,0 km/h (0 Bft)
15.02.2016 11:17 3,0 C 5,4 C 87 % 1004,8 hPa 0,0 mm 1,5 km/h (1 Bft) SO 135 0 min 1,1 C 0,0 km/h (0 Bft)
15.02.2016 11:18 3,0 C 5,4 C 87 % 1004,8 hPa 0,0 mm 1,5 km/h (1 Bft) SO 135 0 min 1,1 C 0,0 km/h (0 Bft)
15.02.2016 11:19 3,1 C 5,4 C 87 % 1004,8 hPa 0,0 mm 1,2 km/h (1 Bft) N-NW 337 0 min 1,2 C 0,0 km/h (0 Bft)
15.02.2016 11:20 3,1 C 5,4 C 87 % 1004,8 hPa 0,0 mm 1,2 km/h (1 Bft) N-NW 337 0 min 1,2 C 0,0 km/h (0 Bft)
15.02.2016 11:21 3,1 C 5,5 C 87 % 1004,8 hPa 0,0 mm 0,6 km/h (0 Bft) N-NW 337 0 min 1,2 C 0,0 km/h (0 Bft)
15.02.2016 11:22 3,1 C 5,5 C 87 % 1004,8 hPa 0,0 mm 0,6 km/h (0 Bft) N-NW 337 0 min 1,2 C 0,0 km/h (0 Bft)
15.02.2016 11:23 3,3 C 5,6 C 87 % 1005,1 hPa 0,0 mm 0,6 km/h (0 Bft) N-NO 22 0 min 1,3 C 0,0 km/h (0 Bft)
15.02.2016 11:24 3,3 C 5,6 C 87 % 1005,1 hPa 0,0 mm 0,6 km/h (0 Bft) N-NO 22 0 min 1,3 C 0,0 km/h (0 Bft)
15.02.2016 11:25 3,3 C 5,6 C 87 % 1005,1 hPa 0,0 mm 0,6 km/h (0 Bft) N-NO 22 0 min 1,3 C 4,8 km/h (1 Bft)
15.02.2016 11:26 3,3 C 5,6 C 87 % 1005,1 hPa 0,0 mm 0,6 km/h (0 Bft) N-NO 22 0 min 1,3 C 4,8 km/h (1 Bft)
15.02.2016 11:27 3,3 C 5,6 C 87 % 1005,1 hPa 0,0 mm 0,9 km/h (0 Bft) NO 45 0 min 1,3 C 3,9 km/h (1 Bft)
15.02.2016 11:28 3,3 C 5,6 C 87 % 1005,1 hPa 0,0 mm 0,9 km/h (0 Bft) NO 45 0 min 1,3 C 3,9 km/h (1 Bft)
15.02.2016 11:29 3,1 C 5,5 C 86 % 1005,1 hPa 0,0 mm 1,5 km/h (1 Bft) N-NO 22 0 min 1,0 C 3,3 km/h (1 Bft)
15.02.2016 11:30 3,1 C 5,5 C 86 % 1005,1 hPa 0,0 mm 1,5 km/h (1 Bft) N-NO 22 0 min 1,0 C 3,3 km/h (1 Bft)
15.02.2016 11:31 3,1 C 5,4 C 86 % 1005,1 hPa 0,0 mm 1,8 km/h (1 Bft) N 360 0 min 1,0 C 3,3 km/h (1 Bft)
15.02.2016 11:32 3,1 C 5,4 C 86 % 1005,1 hPa 0,0 mm 1,8 km/h (1 Bft) N 360 0 min 1,0 C 3,3 km/h (1 Bft)
15.02.2016 11:33 3,1 C 5,4 C 86 % 1005,1 hPa 0,0 mm 1,8 km/h (1 Bft) NW 315 0 min 1,0 C 0,0 km/h (0 Bft)
15.02.2016 11:34 3,1 C 5,4 C 86 % 1005,1 hPa 0,0 mm 1,8 km/h (1 Bft) NW 315 0 min 1,0 C 0,0 km/h (0 Bft)
15.02.2016 11:35 3,1 C 5,4 C 86 % 1005,1 hPa 0,0 mm 1,2 km/h (1 Bft) O-NO 67 0 min 1,0 C 0,0 km/h (0 Bft)
15.02.2016 11:36 3,1 C 5,4 C 86 % 1005,1 hPa 0,0 mm 1,2 km/h (1 Bft) O-NO 67 0 min 1,0 C 0,0 km/h (0 Bft)
15.02.2016 11:37 3,3 C 5,5 C 86 % 1005,1 hPa 0,0 mm 1,2 km/h (1 Bft) O-NO 67 0 min 1,2 C 0,0 km/h (0 Bft)
15.02.2016 11:38 3,3 C 5,5 C 86 % 1005,1 hPa 0,0 mm 1,2 km/h (1 Bft) O-NO 67 0 min 1,2 C 0,0 km/h (0 Bft)
15.02.2016 11:39 3,3 C 5,5 C 86 % 1005,1 hPa 0,0 mm 0,6 km/h (0 Bft) NO 45 0 min 1,2 C 0,0 km/h (0 Bft)
15.02.2016 11:40 3,3 C 5,5 C 86 % 1005,1 hPa 0,0 mm 0,6 km/h (0 Bft) NO 45 0 min 1,2 C 0,0 km/h (0 Bft)
15.02.2016 11:41 3,3 C 5,6 C 86 % 1005,1 hPa 0,0 mm 0,0 km/h (0 Bft) S-SW 202 0 min 1,2 C 0,0 km/h (0 Bft)
15.02.2016 11:42 3,3 C 5,6 C 86 % 1005,1 hPa 0,0 mm 0,0 km/h (0 Bft) S-SW 202 0 min 1,2 C 0,0 km/h (0 Bft)
15.02.2016 11:43 3,4 C 5,6 C 86 % 1005,5 hPa 0,0 mm 0,0 km/h (0 Bft) W-SW 247 0 min 1,3 C 0,0 km/h (0 Bft)
15.02.2016 11:44 3,4 C 5,6 C 86 % 1005,5 hPa 0,0 mm 0,0 km/h (0 Bft) W-SW 247 0 min 1,3 C 0,0 km/h (0 Bft)
15.02.2016 11:45 3,4 C 5,8 C 86 % 1005,5 hPa 0,0 mm 0,0 km/h (0 Bft) O 90 0 min 1,3 C 0,0 km/h (0 Bft)
15.02.2016 11:46 3,4 C 5,8 C 86 % 1005,5 hPa 0,0 mm 0,0 km/h (0 Bft) O 90 0 min 1,3 C 0,0 km/h (0 Bft)
15.02.2016 11:47 3,4 C 5,8 C 85 % 1005,5 hPa 0,0 mm 0,3 km/h (0 Bft) O-NO 67 0 min 1,1 C 0,0 km/h (0 Bft)
15.02.2016 11:48 3,4 C 5,8 C 85 % 1005,5 hPa 0,0 mm 0,3 km/h (0 Bft) O-NO 67 0 min 1,1 C 0,0 km/h (0 Bft)
15.02.2016 11:49 3,4 C 5,8 C 85 % 1005,5 hPa 0,0 mm 0,3 km/h (0 Bft) O 90 0 min 1,1 C 0,0 km/h (0 Bft)
15.02.2016 11:50 3,4 C 5,8 C 85 % 1005,5 hPa 0,0 mm 0,3 km/h (0 Bft) O 90 0 min 1,1 C 0,0 km/h (0 Bft)
15.02.2016 11:51 3,4 C 5,8 C 85 % 1005,5 hPa 0,0 mm 0,6 km/h (0 Bft) S-SW 202 0 min 1,1 C 5,4 km/h (1 Bft)
15.02.2016 11:52 3,4 C 5,8 C 85 % 1005,5 hPa 0,0 mm 0,6 km/h (0 Bft) S-SW 202 0 min 1,1 C 5,4 km/h (1 Bft)
15.02.2016 11:53 3,4 C 5,7 C 85 % 1005,5 hPa 0,0 mm 1,2 km/h (1 Bft) W-SW 247 0 min 1,1 C 3,0 km/h (1 Bft)
15.02.2016 11:54 3,4 C 5,7 C 85 % 1005,5 hPa 0,0 mm 1,2 km/h (1 Bft) W-SW 247 0 min 1,1 C 3,0 km/h (1 Bft)
15.02.2016 11:55 3,4 C 5,6 C 85 % 1005,5 hPa 0,0 mm 2,1 km/h (1 Bft) W-SW 247 0 min 1,1 C 5,7 km/h (1 Bft)
15.02.2016 11:56 3,4 C 5,6 C 85 % 1005,5 hPa 0,0 mm 2,1 km/h (1 Bft) W-SW 247 0 min 1,1 C 5,7 km/h (1 Bft)
15.02.2016 11:57 3,4 C 5,5 C 85 % 1005,5 hPa 0,0 mm 1,8 km/h (1 Bft) S-SO 157 0 min 1,1 C 0,0 km/h (0 Bft)
15.02.2016 11:58 3,4 C 5,5 C 85 % 1005,5 hPa 0,0 mm 1,8 km/h (1 Bft) S-SO 157 0 min 1,1 C 0,0 km/h (0 Bft)
15.02.2016 11:59 3,3 C 5,4 C 85 % 1005,5 hPa 0,0 mm 2,4 km/h (1 Bft) W-SW 247 0 min 1,0 C 6,0 km/h (2 Bft)
15.02.2016 12:00 3,3 C 5,4 C 85 % 1005,5 hPa 0,0 mm 2,4 km/h (1 Bft) W-SW 247 0 min 1,0 C 6,0 km/h (2 Bft)
15.02.2016 12:01 3,1 C 5,2 C 84 % 1005,5 hPa 0,0 mm 3,3 km/h (1 Bft) S-SW 202 0 min 0,7 C 3,6 km/h (1 Bft)
15.02.2016 12:02 3,1 C 5,2 C 84 % 1005,5 hPa 0,0 mm 3,3 km/h (1 Bft) S-SW 202 0 min 0,7 C 3,6 km/h (1 Bft)
15.02.2016 12:03 3,1 C 5,2 C 84 % 1005,6 hPa 0,0 mm 3,3 km/h (1 Bft) S-SW 202 0 min 0,7 C 3,6 km/h (1 Bft)
15.02.2016 12:04 3,1 C 5,2 C 84 % 1005,6 hPa 0,0 mm 3,3 km/h (1 Bft) S-SW 202 0 min 0,7 C 3,6 km/h (1 Bft)
15.02.2016 12:05 3,0 C 4,8 C 84 % 1005,6 hPa 0,0 mm 2,4 km/h (1 Bft) SW 225 0 min 0,6 C 4,8 km/h (1 Bft)
15.02.2016 12:06 3,0 C 4,8 C 84 % 1005,6 hPa 0,0 mm 2,4 km/h (1 Bft) SW 225 0 min 0,6 C 4,8 km/h (1 Bft)
15.02.2016 12:07 3,0 C 4,7 C 84 % 1005,6 hPa 0,0 mm 2,1 km/h (1 Bft) NW 315 0 min 0,6 C 0,0 km/h (0 Bft)
15.02.2016 12:08 3,0 C 4,7 C 84 % 1005,6 hPa 0,0 mm 2,1 km/h (1 Bft) NW 315 0 min 0,6 C 0,0 km/h (0 Bft)
15.02.2016 12:09 3,0 C 4,6 C 84 % 1005,6 hPa 0,0 mm 2,4 km/h (1 Bft) W-SW 247 0 min 0,6 C 4,5 km/h (1 Bft)
15.02.2016 12:10 3,0 C 4,6 C 84 % 1005,6 hPa 0,0 mm 2,4 km/h (1 Bft) W-SW 247 0 min 0,6 C 4,5 km/h (1 Bft)
15.02.2016 12:11 3,0 C 4,4 C 84 % 1005,6 hPa 0,0 mm 2,1 km/h (1 Bft) W-SW 247 0 min 0,6 C 6,3 km/h (2 Bft)
15.02.2016 12:12 3,0 C 4,4 C 84 % 1005,6 hPa 0,0 mm 2,1 km/h (1 Bft) W-SW 247 0 min 0,6 C 6,3 km/h (2 Bft)
15.02.2016 12:13 2,9 C 4,1 C 84 % 1005,6 hPa 0,0 mm 2,4 km/h (1 Bft) SW 225 0 min 0,5 C 0,0 km/h (0 Bft)
15.02.2016 12:14 2,9 C 4,1 C 84 % 1005,6 hPa 0,0 mm 2,4 km/h (1 Bft) SW 225 0 min 0,5 C 0,0 km/h (0 Bft)
15.02.2016 12:15 2,9 C 4,0 C 84 % 1005,6 hPa 0,0 mm 3,3 km/h (1 Bft) W-SW 247 0 min 0,5 C 6,0 km/h (2 Bft)
15.02.2016 12:16 2,9 C 4,0 C 84 % 1005,6 hPa 0,0 mm 3,3 km/h (1 Bft) W-SW 247 0 min 0,5 C 6,0 km/h (2 Bft)
15.02.2016 12:17 2,9 C 3,9 C 84 % 1005,6 hPa 0,0 mm 3,0 km/h (1 Bft) NO 45 0 min 0,5 C 0,0 km/h (0 Bft)
15.02.2016 12:18 2,9 C 3,9 C 84 % 1005,6 hPa 0,0 mm 3,0 km/h (1 Bft) NO 45 0 min 0,5 C 0,0 km/h (0 Bft)
15.02.2016 12:19 2,9 C 3,7 C 84 % 1005,6 hPa 0,0 mm 2,7 km/h (1 Bft) S 180 0 min 0,5 C 0,0 km/h (0 Bft)
15.02.2016 12:20 2,9 C 3,7 C 84 % 1005,6 hPa 0,0 mm 2,7 km/h (1 Bft) S 180 0 min 0,5 C 0,0 km/h (0 Bft)
15.02.2016 12:21 2,9 C 3,6 C 84 % 1005,6 hPa 0,0 mm 2,1 km/h (1 Bft) SO 135 0 min 0,5 C 0,0 km/h (0 Bft)
15.02.2016 12:22 2,9 C 3,6 C 84 % 1005,6 hPa 0,0 mm 2,1 km/h (1 Bft) SO 135 0 min 0,5 C 0,0 km/h (0 Bft)
15.02.2016 12:23 2,9 C 3,6 C 84 % 1005,9 hPa 0,0 mm 1,2 km/h (1 Bft) W-NW 292 0 min 0,5 C 0,0 km/h (0 Bft)
15.02.2016 12:24 2,9 C 3,6 C 84 % 1005,9 hPa 0,0 mm 1,2 km/h (1 Bft) W-NW 292 0 min 0,5 C 0,0 km/h (0 Bft)
15.02.2016 12:25 2,9 C 3,6 C 84 % 1005,9 hPa 0,0 mm 0,6 km/h (0 Bft) O-SO 112 0 min 0,5 C 0,0 km/h (0 Bft)
15.02.2016 12:26 2,9 C 3,6 C 84 % 1005,9 hPa 0,0 mm 0,6 km/h (0 Bft) O-SO 112 0 min 0,5 C 0,0 km/h (0 Bft)
15.02.2016 12:27 2,9 C 3,6 C 84 % 1005,9 hPa 0,0 mm 0,0 km/h (0 Bft) O-SO 112 0 min 0,5 C 0,0 km/h (0 Bft)
15.02.2016 12:28 2,9 C 3,6 C 84 % 1005,9 hPa 0,0 mm 0,0 km/h (0 Bft) O-SO 112 0 min 0,5 C 0,0 km/h (0 Bft)
15.02.2016 12:29 3,0 C 3,7 C 83 % 1005,9 hPa 0,0 mm 0,0 km/h (0 Bft) O-NO 67 0 min 0,4 C 0,0 km/h (0 Bft)
15.02.2016 12:30 3,0 C 3,7 C 83 % 1005,9 hPa 0,0 mm 0,0 km/h (0 Bft) O-NO 67 0 min 0,4 C 0,0 km/h (0 Bft)
15.02.2016 12:31 3,0 C 3,8 C 83 % 1005,9 hPa 0,0 mm 0,0 km/h (0 Bft) O-NO 67 0 min 0,4 C 0,0 km/h (0 Bft)
15.02.2016 12:32 3,0 C 3,8 C 83 % 1005,9 hPa 0,0 mm 0,0 km/h (0 Bft) O-NO 67 0 min 0,4 C 0,0 km/h (0 Bft)
15.02.2016 12:33 3,0 C 3,9 C 83 % 1005,9 hPa 0,0 mm 0,3 km/h (0 Bft) O-NO 67 0 min 0,4 C 3,0 km/h (1 Bft)
15.02.2016 12:34 3,0 C 3,9 C 83 % 1005,9 hPa 0,0 mm 0,3 km/h (0 Bft) O-NO 67 0 min 0,4 C 3,0 km/h (1 Bft)
15.02.2016 12:35 3,0 C 4,0 C 83 % 1005,9 hPa 0,0 mm 0,3 km/h (0 Bft) O-NO 67 0 min 0,4 C 0,0 km/h (0 Bft)
15.02.2016 12:36 3,0 C 4,0 C 83 % 1005,9 hPa 0,0 mm 0,3 km/h (0 Bft) O-NO 67 0 min 0,4 C 0,0 km/h (0 Bft)
15.02.2016 12:37 3,0 C 4,0 C 83 % 1005,9 hPa 0,0 mm 0,9 km/h (0 Bft) O 90 0 min 0,4 C 5,4 km/h (1 Bft)
15.02.2016 12:38 3,0 C 4,0 C 83 % 1005,9 hPa 0,0 mm 0,9 km/h (0 Bft) O 90 0 min 0,4 C 5,4 km/h (1 Bft)
15.02.2016 12:39 3,0 C 4,0 C 83 % 1005,9 hPa 0,0 mm 1,2 km/h (1 Bft) NO 45 0 min 0,4 C 5,4 km/h (1 Bft)
15.02.2016 12:40 3,0 C 4,0 C 83 % 1005,9 hPa 0,0 mm 1,2 km/h (1 Bft) NO 45 0 min 0,4 C 5,4 km/h (1 Bft)
15.02.2016 12:41 2,9 C 4,0 C 84 % 1005,9 hPa 0,0 mm 2,1 km/h (1 Bft) O 90 0 min 0,5 C 4,2 km/h (1 Bft)
15.02.2016 12:42 2,9 C 4,0 C 84 % 1005,9 hPa 0,0 mm 2,1 km/h (1 Bft) O 90 0 min 0,5 C 4,2 km/h (1 Bft)
15.02.2016 12:43 3,0 C 4,0 C 83 % 1006,3 hPa 0,0 mm 2,1 km/h (1 Bft) O 90 0 min 0,4 C 0,0 km/h (0 Bft)
15.02.2016 12:44 3,0 C 4,0 C 83 % 1006,3 hPa 0,0 mm 2,1 km/h (1 Bft) O 90 0 min 0,4 C 0,0 km/h (0 Bft)
15.02.2016 12:45 3,0 C 4,1 C 83 % 1006,3 hPa 0,0 mm 2,1 km/h (1 Bft) NO 45 0 min 0,4 C 3,3 km/h (1 Bft)
15.02.2016 12:46 3,0 C 4,1 C 83 % 1006,3 hPa 0,0 mm 2,1 km/h (1 Bft) NO 45 0 min 0,4 C 3,3 km/h (1 Bft)
15.02.2016 12:47 3,0 C 4,3 C 83 % 1006,3 hPa 0,0 mm 2,1 km/h (1 Bft) NW 315 0 min 0,4 C 0,0 km/h (0 Bft)
15.02.2016 12:48 3,0 C 4,3 C 83 % 1006,3 hPa 0,0 mm 2,1 km/h (1 Bft) NW 315 0 min 0,4 C 0,0 km/h (0 Bft)
15.02.2016 12:49 3,1 C 4,4 C 83 % 1006,3 hPa 0,0 mm 1,5 km/h (1 Bft) O-NO 67 0 min 0,5 C 0,0 km/h (0 Bft)
15.02.2016 12:50 3,1 C 4,4 C 83 % 1006,3 hPa 0,0 mm 1,5 km/h (1 Bft) O-NO 67 0 min 0,5 C 0,0 km/h (0 Bft)
15.02.2016 12:51 3,1 C 4,7 C 83 % 1006,3 hPa 0,0 mm 0,9 km/h (0 Bft) NO 45 0 min 0,5 C 0,0 km/h (0 Bft)
15.02.2016 12:52 3,1 C 4,7 C 83 % 1006,3 hPa 0,0 mm 0,9 km/h (0 Bft) NO 45 0 min 0,5 C 0,0 km/h (0 Bft)
15.02.2016 12:54 3,3 C 4,7 C 83 % 1006,3 hPa 0,0 mm 0,6 km/h (0 Bft) O-NO 67 0 min 0,7 C 3,0 km/h (1 Bft)
15.02.2016 12:55 3,3 C 5,0 C 83 % 1006,3 hPa 0,0 mm 0,6 km/h (0 Bft) O-NO 67 0 min 0,7 C 0,0 km/h (0 Bft)
15.02.2016 12:56 3,3 C 5,0 C 83 % 1006,3 hPa 0,0 mm 0,6 km/h (0 Bft) O-NO 67 0 min 0,7 C 0,0 km/h (0 Bft)
15.02.2016 12:57 3,3 C 5,0 C 83 % 1006,3 hPa 0,0 mm 0,6 km/h (0 Bft) O-NO 67 0 min 0,7 C 3,9 km/h (1 Bft)
15.02.2016 12:58 3,3 C 5,0 C 83 % 1006,3 hPa 0,0 mm 0,6 km/h (0 Bft) O-NO 67 0 min 0,7 C 3,9 km/h (1 Bft)
15.02.2016 12:59 3,3 C 5,1 C 83 % 1006,3 hPa 0,0 mm 1,2 km/h (1 Bft) O-NO 67 0 min 0,7 C 5,4 km/h (1 Bft)
15.02.2016 13:00 3,3 C 5,1 C 83 % 1006,3 hPa 0,0 mm 1,2 km/h (1 Bft) O-NO 67 0 min 0,7 C 5,4 km/h (1 Bft)
15.02.2016 13:01 3,3 C 5,1 C 83 % 1006,3 hPa 0,0 mm 1,5 km/h (1 Bft) NO 45 0 min 0,7 C 5,4 km/h (1 Bft)
15.02.2016 13:02 3,3 C 5,1 C 83 % 1006,3 hPa 0,0 mm 1,5 km/h (1 Bft) NO 45 0 min 0,7 C 5,4 km/h (1 Bft)
15.02.2016 13:03 3,3 C 5,1 C 83 % 1006,5 hPa 0,0 mm 2,7 km/h (1 Bft) O-NO 67 0 min 0,7 C 9,8 km/h (2 Bft)
15.02.2016 13:04 3,3 C 5,1 C 83 % 1006,5 hPa 0,0 mm 2,7 km/h (1 Bft) O-NO 67 0 min 0,7 C 9,8 km/h (2 Bft)
15.02.2016 13:05 3,3 C 5,0 C 83 % 1006,5 hPa 0,0 mm 3,3 km/h (1 Bft) O-NO 67 0 min 0,7 C 4,5 km/h (1 Bft)
15.02.2016 13:06 3,3 C 5,0 C 83 % 1006,5 hPa 0,0 mm 3,3 km/h (1 Bft) O-NO 67 0 min 0,7 C 4,5 km/h (1 Bft)
15.02.2016 13:07 3,3 C 5,0 C 82 % 1006,5 hPa 0,0 mm 3,6 km/h (1 Bft) N-NO 22 0 min 0,5 C 3,0 km/h (1 Bft)
15.02.2016 13:08 3,3 C 5,0 C 82 % 1006,5 hPa 0,0 mm 3,6 km/h (1 Bft) N-NO 22 0 min 0,5 C 3,0 km/h (1 Bft)
15.02.2016 13:09 3,3 C 5,0 C 82 % 1006,5 hPa 0,0 mm 3,0 km/h (1 Bft) N-NW 337 0 min 0,5 C 0,0 km/h (0 Bft)
15.02.2016 13:10 3,3 C 5,0 C 82 % 1006,5 hPa 0,0 mm 3,0 km/h (1 Bft) N-NW 337 0 min 0,5 C 0,0 km/h (0 Bft)
15.02.2016 13:11 3,3 C 5,0 C 82 % 1006,5 hPa 0,0 mm 2,7 km/h (1 Bft) N-NO 22 0 min 0,5 C 0,0 km/h (0 Bft)
15.02.2016 13:12 3,3 C 5,0 C 82 % 1006,5 hPa 0,0 mm 2,7 km/h (1 Bft) N-NO 22 0 min 0,5 C 0,0 km/h (0 Bft)
15.02.2016 13:13 3,4 C 5,0 C 82 % 1006,5 hPa 0,0 mm 1,8 km/h (1 Bft) NW 315 0 min 0,6 C 0,0 km/h (0 Bft)
15.02.2016 13:14 3,4 C 5,0 C 82 % 1006,5 hPa 0,0 mm 1,8 km/h (1 Bft) NW 315 0 min 0,6 C 0,0 km/h (0 Bft)
15.02.2016 13:15 3,4 C 5,2 C 82 % 1006,5 hPa 0,0 mm 0,9 km/h (0 Bft) N-NO 22 0 min 0,6 C 0,0 km/h (0 Bft)
15.02.2016 13:16 3,4 C 5,2 C 82 % 1006,5 hPa 0,0 mm 0,9 km/h (0 Bft) N-NO 22 0 min 0,6 C 0,0 km/h (0 Bft)
15.02.2016 13:17 3,5 C 5,3 C 82 % 1006,5 hPa 0,0 mm 0,3 km/h (0 Bft) NO 45 0 min 0,7 C 0,0 km/h (0 Bft)
15.02.2016 13:18 3,5 C 5,3 C 82 % 1006,5 hPa 0,0 mm 0,3 km/h (0 Bft) NO 45 0 min 0,7 C 0,0 km/h (0 Bft)
15.02.2016 13:19 3,5 C 5,3 C 82 % 1006,5 hPa 0,0 mm 0,0 km/h (0 Bft) NO 45 0 min 0,7 C 0,0 km/h (0 Bft)
15.02.2016 13:20 3,5 C 5,3 C 82 % 1006,5 hPa 0,0 mm 0,0 km/h (0 Bft) NO 45 0 min 0,7 C 0,0 km/h (0 Bft)
15.02.2016 13:21 3,5 C 5,3 C 82 % 1006,5 hPa 0,0 mm 0,0 km/h (0 Bft) N-NO 22 0 min 0,7 C 0,0 km/h (0 Bft)
15.02.2016 13:22 3,5 C 5,3 C 82 % 1006,5 hPa 0,0 mm 0,0 km/h (0 Bft) N-NO 22 0 min 0,7 C 0,0 km/h (0 Bft)
15.02.2016 13:23 3,5 C 5,3 C 82 % 1006,8 hPa 0,0 mm 0,3 km/h (0 Bft) O-NO 67 0 min 0,7 C 4,2 km/h (1 Bft)
15.02.2016 13:24 3,5 C 5,3 C 82 % 1006,8 hPa 0,0 mm 0,3 km/h (0 Bft) O-NO 67 0 min 0,7 C 4,2 km/h (1 Bft)
15.02.2016 13:26 3,5 C 5,1 C 82 % 1006,8 hPa 0,0 mm 0,9 km/h (0 Bft) O-NO 67 0 min 0,7 C 0,0 km/h (0 Bft)
15.02.2016 13:29 3,5 C 5,0 C 81 % 1006,8 hPa 0,0 mm 0,9 km/h (0 Bft) O-NO 67 0 min 0,6 C 0,0 km/h (0 Bft)
15.02.2016 13:30 3,5 C 5,0 C 81 % 1006,8 hPa 0,0 mm 0,9 km/h (0 Bft) O-NO 67 0 min 0,6 C 0,0 km/h (0 Bft)
15.02.2016 13:31 3,4 C 5,0 C 81 % 1006,8 hPa 0,0 mm 0,9 km/h (0 Bft) NO 45 0 min 0,5 C 0,0 km/h (0 Bft)
15.02.2016 13:33 3,4 C 5,0 C 81 % 1006,8 hPa 0,0 mm 0,9 km/h (0 Bft) NO 45 0 min 0,5 C 0,0 km/h (0 Bft)
15.02.2016 13:36 3,5 C 5,0 C 81 % 1006,8 hPa 0,0 mm 0,0 km/h (0 Bft) O-NO 67 0 min 0,6 C 0,0 km/h (0 Bft)
15.02.2016 13:37 3,5 C 5,1 C 81 % 1006,8 hPa 0,0 mm 0,0 km/h (0 Bft) O-NO 67 0 min 0,6 C 0,0 km/h (0 Bft)
15.02.2016 13:38 3,5 C 5,1 C 81 % 1006,8 hPa 0,0 mm 0,0 km/h (0 Bft) O-NO 67 0 min 0,6 C 0,0 km/h (0 Bft)
15.02.2016 13:39 3,5 C 5,3 C 81 % 1006,8 hPa 0,0 mm 0,0 km/h (0 Bft) O-SO 112 0 min 0,6 C 0,0 km/h (0 Bft)
15.02.2016 13:44 3,7 C 5,9 C 80 % 1007,1 hPa 0,0 mm 0,0 km/h (0 Bft) W 270 0 min 0,6 C 0,0 km/h (0 Bft)
15.02.2016 13:49 3,8 C 6,1 C 80 % 1007,1 hPa 0,0 mm 0,0 km/h (0 Bft) O 90 0 min 0,7 C 0,0 km/h (0 Bft)
15.02.2016 13:54 3,9 C 6,2 C 80 % 1007,1 hPa 0,0 mm 0,3 km/h (0 Bft) NO 45 0 min 0,8 C 3,9 km/h (1 Bft)
15.02.2016 13:59 3,9 C 6,2 C 80 % 1007,1 hPa 0,0 mm 0,6 km/h (0 Bft) O-NO 67 0 min 0,8 C 0,0 km/h (0 Bft)
15.02.2016 14:02 3,8 C 6,1 C 79 % 1007,1 hPa 0,0 mm 0,9 km/h (0 Bft) O-SO 112 0 min 0,5 C 0,0 km/h (0 Bft)
15.02.2016 14:03 3,8 C 5,9 C 79 % 1007,1 hPa 0,0 mm 0,9 km/h (0 Bft) O-SO 112 0 min 0,5 C 0,0 km/h (0 Bft)
15.02.2016 14:04 3,8 C 5,9 C 79 % 1007,1 hPa 0,0 mm 0,9 km/h (0 Bft) O-SO 112 0 min 0,5 C 0,0 km/h (0 Bft)
15.02.2016 14:05 3,8 C 5,8 C 79 % 1007,1 hPa 0,0 mm 0,9 km/h (0 Bft) NO 45 0 min 0,5 C 0,0 km/h (0 Bft)
15.02.2016 14:06 3,8 C 5,8 C 79 % 1007,1 hPa 0,0 mm 0,9 km/h (0 Bft) NO 45 0 min 0,5 C 0,0 km/h (0 Bft)
15.02.2016 14:07 3,7 C 5,7 C 79 % 1007,1 hPa 0,0 mm 0,3 km/h (0 Bft) W-NW 292 0 min 0,4 C 0,0 km/h (0 Bft)
15.02.2016 14:08 3,7 C 5,7 C 79 % 1007,1 hPa 0,0 mm 0,3 km/h (0 Bft) W-NW 292 0 min 0,4 C 0,0 km/h (0 Bft)
15.02.2016 14:09 3,7 C 5,6 C 79 % 1007,1 hPa 0,0 mm 0,3 km/h (0 Bft) NW 315 0 min 0,4 C 0,0 km/h (0 Bft)
15.02.2016 14:10 3,7 C 5,6 C 79 % 1007,1 hPa 0,0 mm 0,3 km/h (0 Bft) NW 315 0 min 0,4 C 0,0 km/h (0 Bft)
15.02.2016 14:11 3,7 C 5,4 C 79 % 1007,1 hPa 0,0 mm 0,3 km/h (0 Bft) W-SW 247 0 min 0,4 C 0,0 km/h (0 Bft)
15.02.2016 14:12 3,7 C 5,4 C 79 % 1011,1 hPa 0,0 mm 0,3 km/h (0 Bft) W-SW 247 0 min 0,4 C 0,0 km/h (0 Bft)
15.02.2016 14:13 3,6 C 5,2 C 79 % 1011,1 hPa 0,0 mm 0,3 km/h (0 Bft) SW 225 0 min 0,3 C 3,0 km/h (1 Bft)
15.02.2016 14:14 3,6 C 5,2 C 79 % 1011,1 hPa 0,0 mm 0,3 km/h (0 Bft) SW 225 0 min 0,3 C 3,0 km/h (1 Bft)
15.02.2016 14:15 3,6 C 5,0 C 79 % 1011,1 hPa 0,0 mm 0,3 km/h (0 Bft) W-SW 247 0 min 0,3 C 3,0 km/h (1 Bft)
15.02.2016 14:16 3,6 C 5,0 C 79 % 1011,1 hPa 0,0 mm 0,3 km/h (0 Bft) W-SW 247 0 min 0,3 C 3,0 km/h (1 Bft)
15.02.2016 14:17 3,5 C 4,7 C 79 % 1011,1 hPa 0,0 mm 0,9 km/h (0 Bft) S 180 0 min 0,2 C 5,1 km/h (1 Bft)
15.02.2016 14:18 3,5 C 4,7 C 79 % 1011,1 hPa 0,0 mm 0,9 km/h (0 Bft) S 180 0 min 0,2 C 5,1 km/h (1 Bft)
15.02.2016 14:19 3,5 C 4,6 C 79 % 1011,1 hPa 0,0 mm 1,2 km/h (1 Bft) S 180 0 min 0,2 C 0,0 km/h (0 Bft)
15.02.2016 14:20 3,5 C 4,6 C 79 % 1011,1 hPa 0,0 mm 1,2 km/h (1 Bft) S 180 0 min 0,2 C 0,0 km/h (0 Bft)
15.02.2016 14:21 3,5 C 4,4 C 79 % 1011,1 hPa 0,0 mm 1,2 km/h (1 Bft) W-SW 247 0 min 0,2 C 0,0 km/h (0 Bft)
15.02.2016 14:22 3,5 C 4,4 C 79 % 1011,1 hPa 0,0 mm 1,2 km/h (1 Bft) W-SW 247 0 min 0,2 C 0,0 km/h (0 Bft)
15.02.2016 14:23 3,5 C 4,2 C 79 % 1011,3 hPa 0,0 mm 2,1 km/h (1 Bft) NW 315 0 min 0,2 C 7,7 km/h (2 Bft)
15.02.2016 14:24 3,5 C 4,2 C 79 % 1011,3 hPa 0,0 mm 2,1 km/h (1 Bft) NW 315 0 min 0,2 C 10,1 km/h (2 Bft)
15.02.2016 14:25 3,5 C 4,1 C 79 % 1011,3 hPa 0,0 mm 2,7 km/h (1 Bft) NW 315 0 min 0,2 C 5,1 km/h (1 Bft)
15.02.2016 14:26 3,5 C 4,1 C 79 % 1011,3 hPa 0,0 mm 2,7 km/h (1 Bft) NW 315 0 min 0,2 C 5,1 km/h (1 Bft)
15.02.2016 14:27 3,5 C 4,0 C 79 % 1011,3 hPa 0,0 mm 2,7 km/h (1 Bft) O-NO 67 0 min 0,2 C 0,0 km/h (0 Bft)
15.02.2016 14:28 3,5 C 4,0 C 79 % 1011,3 hPa 0,0 mm 2,7 km/h (1 Bft) O-NO 67 0 min 0,2 C 0,0 km/h (0 Bft)
15.02.2016 14:29 3,4 C 3,8 C 79 % 1011,3 hPa 0,0 mm 2,1 km/h (1 Bft) W 270 0 min 0,1 C 0,0 km/h (0 Bft)
15.02.2016 14:30 3,4 C 3,8 C 79 % 1011,3 hPa 0,0 mm 2,1 km/h (1 Bft) W 270 0 min 0,1 C 0,0 km/h (0 Bft)
15.02.2016 14:31 3,4 C 3,6 C 79 % 1011,3 hPa 0,0 mm 2,7 km/h (1 Bft) W-SW 247 0 min 0,1 C 3,0 km/h (1 Bft)
15.02.2016 14:32 3,4 C 3,6 C 79 % 1011,3 hPa 0,0 mm 2,7 km/h (1 Bft) W-SW 247 0 min 0,1 C 3,0 km/h (1 Bft)
15.02.2016 14:33 3,3 C 3,4 C 79 % 1011,3 hPa 0,0 mm 3,0 km/h (1 Bft) W 270 0 min 0,0 C 3,3 km/h (1 Bft)
15.02.2016 14:34 3,3 C 3,4 C 79 % 1011,3 hPa 0,0 mm 3,0 km/h (1 Bft) W 270 0 min 0,0 C 3,3 km/h (1 Bft)
15.02.2016 14:35 3,2 C 3,2 C 79 % 1011,3 hPa 0,0 mm 2,1 km/h (1 Bft) W-NW 292 0 min -0,1 C 0,0 km/h (0 Bft)
15.02.2016 14:36 3,2 C 3,2 C 79 % 1011,3 hPa 0,0 mm 2,1 km/h (1 Bft) W-NW 292 0 min -0,1 C 0,0 km/h (0 Bft)
15.02.2016 14:37 3,2 C 3,1 C 79 % 1011,3 hPa 0,0 mm 1,5 km/h (1 Bft) NW 315 0 min -0,1 C 0,0 km/h (0 Bft)
15.02.2016 14:38 3,2 C 3,1 C 79 % 1011,3 hPa 0,0 mm 1,5 km/h (1 Bft) NW 315 0 min -0,1 C 0,0 km/h (0 Bft)
15.02.2016 14:39 3,1 C 3,1 C 79 % 1011,3 hPa 0,0 mm 1,5 km/h (1 Bft) NW 315 0 min -0,2 C 0,0 km/h (0 Bft)
15.02.2016 14:40 3,1 C 3,1 C 79 % 1011,3 hPa 0,0 mm 1,5 km/h (1 Bft) NW 315 0 min -0,2 C 0,0 km/h (0 Bft)
15.02.2016 14:41 3,1 C 3,0 C 80 % 1011,3 hPa 0,0 mm 0,9 km/h (0 Bft) O-NO 67 0 min -0,0 C 0,0 km/h (0 Bft)
15.02.2016 14:42 3,1 C 3,0 C 80 % 1011,3 hPa 0,0 mm 0,9 km/h (0 Bft) O-NO 67 0 min -0,0 C 0,0 km/h (0 Bft)
15.02.2016 14:43 3,1 C 3,0 C 80 % 1011,7 hPa 0,0 mm 0,6 km/h (0 Bft) N-NO 22 0 min -0,0 C 0,0 km/h (0 Bft)
15.02.2016 14:44 3,1 C 3,0 C 80 % 1011,7 hPa 0,0 mm 0,6 km/h (0 Bft) N-NO 22 0 min -0,0 C 0,0 km/h (0 Bft)
15.02.2016 14:45 3,1 C 2,9 C 80 % 1011,7 hPa 0,0 mm 0,0 km/h (0 Bft) NO 45 0 min -0,0 C 0,0 km/h (0 Bft)
15.02.2016 14:46 3,1 C 2,9 C 80 % 1011,7 hPa 0,0 mm 0,0 km/h (0 Bft) NO 45 0 min -0,0 C 0,0 km/h (0 Bft)
15.02.2016 14:47 3,1 C 2,9 C 80 % 1011,7 hPa 0,0 mm 0,0 km/h (0 Bft) O-SO 112 0 min -0,0 C 0,0 km/h (0 Bft)
15.02.2016 14:48 3,1 C 2,9 C 80 % 1011,7 hPa 0,0 mm 0,0 km/h (0 Bft) O-SO 112 0 min -0,0 C 0,0 km/h (0 Bft)
15.02.2016 14:49 3,0 C 2,9 C 80 % 1011,7 hPa 0,0 mm 0,0 km/h (0 Bft) O-SO 112 0 min -0,1 C 0,0 km/h (0 Bft)
15.02.2016 14:50 3,0 C 2,9 C 80 % 1011,7 hPa 0,0 mm 0,0 km/h (0 Bft) O-SO 112 0 min -0,1 C 0,0 km/h (0 Bft)
15.02.2016 14:51 3,0 C 2,9 C 80 % 1011,7 hPa 0,0 mm 0,0 km/h (0 Bft) O-SO 112 0 min -0,1 C 0,0 km/h (0 Bft)
15.02.2016 14:52 3,0 C 2,9 C 80 % 1011,7 hPa 0,0 mm 0,0 km/h (0 Bft) O-SO 112 0 min -0,1 C 0,0 km/h (0 Bft)
15.02.2016 14:53 3,0 C 2,9 C 79 % 1011,7 hPa 0,0 mm 0,0 km/h (0 Bft) O-NO 67 0 min -0,3 C 0,0 km/h (0 Bft)
15.02.2016 14:54 3,0 C 2,9 C 79 % 1011,7 hPa 0,0 mm 0,0 km/h (0 Bft) O-NO 67 0 min -0,3 C 0,0 km/h (0 Bft)
15.02.2016 14:55 3,0 C 2,9 C 81 % 1011,7 hPa 0,0 mm 0,0 km/h (0 Bft) O-SO 112 0 min 0,1 C 0,0 km/h (0 Bft)
15.02.2016 14:56 3,0 C 2,9 C 81 % 1011,7 hPa 0,0 mm 0,0 km/h (0 Bft) O-SO 112 0 min 0,1 C 0,0 km/h (0 Bft)
15.02.2016 14:57 3,0 C 2,9 C 81 % 1011,7 hPa 0,0 mm 0,0 km/h (0 Bft) SO 135 0 min 0,1 C 0,0 km/h (0 Bft)
15.02.2016 14:58 3,0 C 2,9 C 81 % 1011,7 hPa 0,0 mm 0,0 km/h (0 Bft) SO 135 0 min 0,1 C 0,0 km/h (0 Bft)
15.02.2016 14:59 3,0 C 3,0 C 80 % 1011,7 hPa 0,0 mm 0,0 km/h (0 Bft) S 180 0 min -0,1 C 0,0 km/h (0 Bft)
15.02.2016 15:00 3,0 C 3,0 C 80 % 1011,7 hPa 0,0 mm 0,0 km/h (0 Bft) S 180 0 min -0,1 C 0,0 km/h (0 Bft)
15.02.2016 15:01 3,0 C 3,0 C 80 % 1011,7 hPa 0,0 mm 0,0 km/h (0 Bft) S-SO 157 0 min -0,1 C 0,0 km/h (0 Bft)
15.02.2016 15:02 3,0 C 3,0 C 80 % 1011,7 hPa 0,0 mm 0,0 km/h (0 Bft) S-SO 157 0 min -0,1 C 0,0 km/h (0 Bft)
15.02.2016 15:03 3,0 C 3,0 C 80 % 1012,1 hPa 0,0 mm 0,0 km/h (0 Bft) W 270 0 min -0,1 C 0,0 km/h (0 Bft)
15.02.2016 15:04 3,0 C 3,0 C 80 % 1012,1 hPa 0,0 mm 0,0 km/h (0 Bft) W 270 0 min -0,1 C 0,0 km/h (0 Bft)
15.02.2016 15:05 3,0 C 3,1 C 80 % 1012,1 hPa 0,0 mm 0,0 km/h (0 Bft) W-SW 247 0 min -0,1 C 4,5 km/h (1 Bft)
15.02.2016 15:06 3,0 C 3,1 C 80 % 1012,1 hPa 0,0 mm 0,0 km/h (0 Bft) W-SW 247 0 min -0,1 C 4,5 km/h (1 Bft)
15.02.2016 15:07 3,0 C 3,1 C 80 % 1012,1 hPa 0,0 mm 0,6 km/h (0 Bft) O-SO 112 0 min -0,1 C 0,0 km/h (0 Bft)
15.02.2016 15:08 3,0 C 3,1 C 80 % 1012,1 hPa 0,0 mm 0,6 km/h (0 Bft) O-SO 112 0 min -0,1 C 0,0 km/h (0 Bft)
15.02.2016 15:09 3,0 C 3,1 C 80 % 1012,1 hPa 0,0 mm 0,6 km/h (0 Bft) N 360 0 min -0,1 C 0,0 km/h (0 Bft)
15.02.2016 15:10 3,0 C 3,1 C 80 % 1012,1 hPa 0,0 mm 0,6 km/h (0 Bft) N 360 0 min -0,1 C 0,0 km/h (0 Bft)
15.02.2016 15:11 2,9 C 3,1 C 81 % 1012,1 hPa 0,0 mm 0,6 km/h (0 Bft) W-NW 292 0 min -0,0 C 0,0 km/h (0 Bft)
15.02.2016 15:12 2,9 C 3,1 C 81 % 1012,1 hPa 0,0 mm 0,6 km/h (0 Bft) W-NW 292 0 min -0,0 C 0,0 km/h (0 Bft)
15.02.2016 15:13 2,9 C 3,2 C 81 % 1012,1 hPa 0,0 mm 0,6 km/h (0 Bft) W-NW 292 0 min -0,0 C 0,0 km/h (0 Bft)
15.02.2016 15:14 2,9 C 3,2 C 81 % 1012,1 hPa 0,0 mm 0,6 km/h (0 Bft) W-NW 292 0 min -0,0 C 0,0 km/h (0 Bft)
15.02.2016 15:15 2,9 C 3,2 C 81 % 1012,1 hPa 0,0 mm 0,6 km/h (0 Bft) S 180 0 min -0,0 C 0,0 km/h (0 Bft)
15.02.2016 15:16 2,9 C 3,2 C 81 % 1012,1 hPa 0,0 mm 0,6 km/h (0 Bft) S 180 0 min -0,0 C 0,0 km/h (0 Bft)
15.02.2016 15:17 3,0 C 3,2 C 80 % 1012,1 hPa 0,0 mm 0,0 km/h (0 Bft) N-NO 22 0 min -0,1 C 0,0 km/h (0 Bft)
15.02.2016 15:18 3,0 C 3,2 C 80 % 1012,1 hPa 0,0 mm 0,0 km/h (0 Bft) N-NO 22 0 min -0,1 C 0,0 km/h (0 Bft)
15.02.2016 15:19 3,0 C 3,2 C 80 % 1012,1 hPa 0,0 mm 0,3 km/h (0 Bft) SW 225 0 min -0,1 C 0,0 km/h (0 Bft)
15.02.2016 15:20 3,0 C 3,2 C 80 % 1012,1 hPa 0,0 mm 0,3 km/h (0 Bft) SW 225 0 min -0,1 C 0,0 km/h (0 Bft)
15.02.2016 15:21 2,9 C 3,2 C 81 % 1012,1 hPa 0,0 mm 0,3 km/h (0 Bft) W-SW 247 0 min -0,0 C 3,6 km/h (1 Bft)
15.02.2016 15:22 2,9 C 3,2 C 81 % 1012,1 hPa 0,0 mm 0,3 km/h (0 Bft) W-SW 247 0 min -0,0 C 3,6 km/h (1 Bft)
15.02.2016 15:23 2,9 C 3,2 C 82 % 1012,4 hPa 0,0 mm 0,3 km/h (0 Bft) SW 225 0 min 0,1 C 0,0 km/h (0 Bft)
15.02.2016 15:24 2,9 C 3,2 C 82 % 1012,4 hPa 0,0 mm 0,3 km/h (0 Bft) SW 225 0 min 0,1 C 0,0 km/h (0 Bft)
15.02.2016 15:25 2,9 C 3,1 C 82 % 1012,4 hPa 0,0 mm 0,6 km/h (0 Bft) W-SW 247 0 min 0,1 C 3,3 km/h (1 Bft)
15.02.2016 15:26 2,9 C 3,1 C 82 % 1012,4 hPa 0,0 mm 0,6 km/h (0 Bft) W-SW 247 0 min 0,1 C 3,3 km/h (1 Bft)
15.02.2016 15:27 2,9 C 3,1 C 82 % 1012,4 hPa 0,0 mm 0,9 km/h (0 Bft) W 270 0 min 0,1 C 3,0 km/h (1 Bft)
15.02.2016 15:28 2,9 C 3,1 C 82 % 1012,4 hPa 0,0 mm 0,9 km/h (0 Bft) W 270 0 min 0,1 C 3,0 km/h (1 Bft)
15.02.2016 15:29 2,9 C 3,1 C 82 % 1012,4 hPa 0,0 mm 0,9 km/h (0 Bft) W-SW 247 0 min 0,1 C 0,0 km/h (0 Bft)
15.02.2016 15:30 2,9 C 3,1 C 82 % 1012,4 hPa 0,0 mm 0,9 km/h (0 Bft) W-SW 247 0 min 0,1 C 0,0 km/h (0 Bft)
15.02.2016 15:31 2,8 C 3,0 C 82 % 1012,4 hPa 0,0 mm 1,5 km/h (1 Bft) SW 225 0 min 0,0 C 4,2 km/h (1 Bft)
15.02.2016 15:32 2,8 C 3,0 C 82 % 1012,4 hPa 0,0 mm 1,5 km/h (1 Bft) SW 225 0 min 0,0 C 4,2 km/h (1 Bft)
15.02.2016 15:33 2,8 C 3,0 C 82 % 1012,4 hPa 0,0 mm 2,1 km/h (1 Bft) W-SW 247 0 min 0,0 C 8,0 km/h (2 Bft)
15.02.2016 15:34 2,8 C 3,0 C 82 % 1012,4 hPa 0,0 mm 2,1 km/h (1 Bft) W-SW 247 0 min 0,0 C 8,0 km/h (2 Bft)
15.02.2016 15:35 2,8 C 2,9 C 82 % 1012,4 hPa 0,0 mm 2,7 km/h (1 Bft) S-SO 157 0 min 0,0 C 5,4 km/h (1 Bft)
15.02.2016 15:36 2,8 C 2,9 C 82 % 1012,4 hPa 0,0 mm 2,7 km/h (1 Bft) S-SO 157 0 min 0,0 C 5,4 km/h (1 Bft)
15.02.2016 15:37 2,8 C 2,9 C 82 % 1012,4 hPa 0,0 mm 2,4 km/h (1 Bft) W-SW 247 0 min 0,0 C 0,0 km/h (0 Bft)
15.02.2016 15:38 2,8 C 2,9 C 82 % 1012,4 hPa 0,0 mm 2,4 km/h (1 Bft) W-SW 247 0 min 0,0 C 0,0 km/h (0 Bft)
15.02.2016 15:39 2,8 C 2,9 C 82 % 1012,4 hPa 0,0 mm 2,4 km/h (1 Bft) W-SW 247 0 min 0,0 C 5,7 km/h (1 Bft)
15.02.2016 15:40 2,8 C 2,9 C 82 % 1012,4 hPa 0,0 mm 2,4 km/h (1 Bft) W-SW 247 0 min 0,0 C 5,7 km/h (1 Bft)
15.02.2016 15:41 2,8 C 2,8 C 82 % 1012,4 hPa 0,0 mm 3,0 km/h (1 Bft) W-SW 247 0 min 0,0 C 7,7 km/h (2 Bft)
15.02.2016 15:42 2,8 C 2,8 C 82 % 1012,4 hPa 0,0 mm 3,0 km/h (1 Bft) W-SW 247 0 min 0,0 C 7,7 km/h (2 Bft)
15.02.2016 15:43 2,8 C 2,8 C 82 % 1012,6 hPa 0,0 mm 3,6 km/h (1 Bft) W-SW 247 0 min 0,0 C 6,9 km/h (2 Bft)
15.02.2016 15:44 2,8 C 2,8 C 82 % 1012,6 hPa 0,0 mm 3,6 km/h (1 Bft) W-SW 247 0 min 0,0 C 6,9 km/h (2 Bft)
15.02.2016 15:45 2,8 C 2,8 C 82 % 1012,6 hPa 0,0 mm 3,6 km/h (1 Bft) S-SW 202 0 min 0,0 C 6,3 km/h (2 Bft)
15.02.2016 15:46 2,8 C 2,8 C 82 % 1012,6 hPa 0,0 mm 3,6 km/h (1 Bft) S-SW 202 0 min 0,0 C 6,3 km/h (2 Bft)
15.02.2016 15:47 2,7 C 2,7 C 82 % 1012,6 hPa 0,0 mm 4,8 km/h (1 Bft) SW 225 0 min -0,1 C 9,2 km/h (2 Bft)
15.02.2016 15:48 2,7 C 2,7 C 82 % 1012,6 hPa 0,0 mm 4,8 km/h (1 Bft) SW 225 0 min -0,1 C 9,2 km/h (2 Bft)
15.02.2016 15:49 2,7 C 2,6 C 82 % 1012,6 hPa 0,0 mm 6,3 km/h (2 Bft) SW 225 0 min -0,1 C 9,2 km/h (2 Bft)
15.02.2016 15:50 2,7 C 2,6 C 82 % 1012,6 hPa 0,0 mm 6,3 km/h (2 Bft) SW 225 0 min -0,1 C 9,2 km/h (2 Bft)
15.02.2016 15:51 2,7 C 2,4 C 82 % 1012,6 hPa 0,0 mm 6,6 km/h (2 Bft) SW 225 0 min -0,1 C 8,0 km/h (2 Bft)
15.02.2016 15:52 2,7 C 2,4 C 82 % 1012,6 hPa 0,0 mm 6,6 km/h (2 Bft) SW 225 0 min -0,1 C 8,0 km/h (2 Bft)
15.02.2016 15:53 2,7 C 2,4 C 82 % 1012,6 hPa 0,0 mm 6,6 km/h (2 Bft) SW 225 0 min -0,1 C 7,2 km/h (2 Bft)
15.02.2016 15:54 2,7 C 2,4 C 82 % 1012,6 hPa 0,0 mm 6,6 km/h (2 Bft) SW 225 0 min -0,1 C 7,2 km/h (2 Bft)
15.02.2016 15:55 2,6 C 2,3 C 82 % 1012,6 hPa 0,0 mm 6,9 km/h (2 Bft) W-SW 247 0 min -0,2 C 10,7 km/h (2 Bft)
15.02.2016 15:56 2,6 C 2,3 C 82 % 1012,6 hPa 0,0 mm 6,9 km/h (2 Bft) W-SW 247 0 min -0,2 C 10,7 km/h (2 Bft)
15.02.2016 15:57 2,6 C 2,2 C 82 % 1012,6 hPa 0,0 mm 7,5 km/h (2 Bft) SW 225 0 min -0,2 C 6,3 km/h (2 Bft)
15.02.2016 15:58 2,6 C 2,2 C 82 % 1012,6 hPa 0,0 mm 7,5 km/h (2 Bft) SW 225 0 min -0,2 C 6,3 km/h (2 Bft)
15.02.2016 15:59 2,6 C 2,2 C 82 % 1012,6 hPa 0,0 mm 7,2 km/h (2 Bft) SW 225 0 min -0,2 C 6,9 km/h (2 Bft)
15.02.2016 16:00 2,6 C 2,2 C 82 % 1012,6 hPa 0,0 mm 7,2 km/h (2 Bft) SW 225 0 min -0,2 C 6,9 km/h (2 Bft)
15.02.2016 16:01 2,6 C 2,2 C 82 % 1012,6 hPa 0,0 mm 7,5 km/h (2 Bft) SW 225 0 min -0,2 C 9,5 km/h (2 Bft)
15.02.2016 16:02 2,6 C 2,2 C 82 % 1012,6 hPa 0,0 mm 7,5 km/h (2 Bft) SW 225 0 min -0,2 C 9,5 km/h (2 Bft)
15.02.2016 16:03 2,6 C 2,2 C 82 % 1012,8 hPa 0,0 mm 7,7 km/h (2 Bft) SW 225 0 min -0,2 C 8,0 km/h (2 Bft)
15.02.2016 16:04 2,6 C 2,2 C 82 % 1012,8 hPa 0,0 mm 7,7 km/h (2 Bft) SW 225 0 min -0,2 C 13,7 km/h (3 Bft)
15.02.2016 16:05 2,5 C 2,2 C 82 % 1012,8 hPa 0,0 mm 7,7 km/h (2 Bft) SW 225 0 min -0,3 C 7,2 km/h (2 Bft)
15.02.2016 16:06 2,5 C 2,2 C 82 % 1012,8 hPa 0,0 mm 7,7 km/h (2 Bft) SW 225 0 min -0,3 C 7,2 km/h (2 Bft)
15.02.2016 16:07 2,5 C 2,1 C 82 % 1012,8 hPa 0,0 mm 7,2 km/h (2 Bft) SW 225 0 min -0,3 C 8,0 km/h (2 Bft)
15.02.2016 16:08 2,5 C 2,1 C 82 % 1012,8 hPa 0,0 mm 7,2 km/h (2 Bft) SW 225 0 min -0,3 C 8,0 km/h (2 Bft)
15.02.2016 16:09 2,5 C 2,3 C 83 % 1012,8 hPa 0,0 mm 6,6 km/h (2 Bft) S 180 0 min -0,1 C 5,4 km/h (1 Bft)
15.02.2016 16:10 2,5 C 2,3 C 83 % 1012,8 hPa 0,0 mm 6,6 km/h (2 Bft) S 180 0 min -0,1 C 5,4 km/h (1 Bft)
15.02.2016 16:11 2,5 C 2,3 C 83 % 1012,8 hPa 0,0 mm 6,0 km/h (2 Bft) SW 225 0 min -0,1 C 4,8 km/h (1 Bft)
15.02.2016 16:12 2,5 C 2,3 C 83 % 1012,8 hPa 0,0 mm 6,0 km/h (2 Bft) SW 225 0 min -0,1 C 4,8 km/h (1 Bft)
15.02.2016 16:13 2,5 C 2,4 C 83 % 1012,8 hPa 0,0 mm 4,5 km/h (1 Bft) S-SW 202 0 min -0,1 C 0,0 km/h (0 Bft)
15.02.2016 16:14 2,5 C 2,4 C 83 % 1012,8 hPa 0,0 mm 4,5 km/h (1 Bft) S-SW 202 0 min -0,1 C 0,0 km/h (0 Bft)
15.02.2016 16:15 2,5 C 2,5 C 83 % 1012,8 hPa 0,0 mm 3,0 km/h (1 Bft) SO 135 0 min -0,1 C 0,0 km/h (0 Bft)
15.02.2016 16:16 2,5 C 2,5 C 83 % 1012,8 hPa 0,0 mm 3,0 km/h (1 Bft) SO 135 0 min -0,1 C 0,0 km/h (0 Bft)
15.02.2016 16:17 2,6 C 2,5 C 83 % 1012,8 hPa 0,0 mm 2,4 km/h (1 Bft) W-SW 247 0 min 0,0 C 0,0 km/h (0 Bft)
15.02.2016 16:18 2,6 C 2,5 C 83 % 1012,8 hPa 0,0 mm 2,4 km/h (1 Bft) W-SW 247 0 min 0,0 C 0,0 km/h (0 Bft)
15.02.2016 16:19 2,6 C 2,6 C 83 % 1012,8 hPa 0,0 mm 1,8 km/h (1 Bft) SW 225 0 min 0,0 C 4,2 km/h (1 Bft)
15.02.2016 16:20 2,6 C 2,6 C 83 % 1012,8 hPa 0,0 mm 1,8 km/h (1 Bft) SW 225 0 min 0,0 C 4,2 km/h (1 Bft)
15.02.2016 16:21 2,6 C 2,6 C 83 % 1012,8 hPa 0,0 mm 1,5 km/h (1 Bft) W-SW 247 0 min 0,0 C 3,3 km/h (1 Bft)
15.02.2016 16:22 2,6 C 2,6 C 83 % 1012,8 hPa 0,0 mm 1,5 km/h (1 Bft) W-SW 247 0 min 0,0 C 3,3 km/h (1 Bft)
15.02.2016 16:23 2,6 C 2,6 C 83 % 1013,2 hPa 0,0 mm 1,8 km/h (1 Bft) SW 225 0 min 0,0 C 7,2 km/h (2 Bft)
15.02.2016 16:24 2,6 C 2,6 C 83 % 1013,2 hPa 0,0 mm 1,8 km/h (1 Bft) SW 225 0 min 0,0 C 7,2 km/h (2 Bft)
15.02.2016 16:25 2,6 C 2,6 C 83 % 1013,2 hPa 0,0 mm 2,7 km/h (1 Bft) SW 225 0 min 0,0 C 5,4 km/h (1 Bft)
15.02.2016 16:26 2,6 C 2,6 C 83 % 1013,2 hPa 0,0 mm 2,7 km/h (1 Bft) SW 225 0 min 0,0 C 5,4 km/h (1 Bft)
15.02.2016 16:27 2,6 C 2,5 C 85 % 1013,2 hPa 0,0 mm 3,9 km/h (1 Bft) SW 225 0 min 0,3 C 3,9 km/h (1 Bft)
15.02.2016 16:28 2,6 C 2,5 C 85 % 1013,2 hPa 0,0 mm 3,9 km/h (1 Bft) SW 225 0 min 0,3 C 3,9 km/h (1 Bft)
15.02.2016 16:29 2,6 C 2,5 C 85 % 1013,2 hPa 0,0 mm 4,2 km/h (1 Bft) SW 225 0 min 0,3 C 7,5 km/h (2 Bft)
15.02.2016 16:30 2,6 C 2,5 C 85 % 1013,2 hPa 0,0 mm 4,2 km/h (1 Bft) SW 225 0 min 0,3 C 7,5 km/h (2 Bft)
15.02.2016 16:31 2,5 C 2,5 C 83 % 1013,2 hPa 0,0 mm 4,8 km/h (1 Bft) S 180 0 min -0,1 C 4,5 km/h (1 Bft)
15.02.2016 16:32 2,5 C 2,5 C 83 % 1013,2 hPa 0,0 mm 4,8 km/h (1 Bft) S 180 0 min -0,1 C 4,5 km/h (1 Bft)
15.02.2016 16:33 2,5 C 2,5 C 83 % 1013,2 hPa 0,0 mm 5,1 km/h (1 Bft) SW 225 0 min -0,1 C 4,5 km/h (1 Bft)
15.02.2016 16:34 2,5 C 2,5 C 83 % 1013,2 hPa 0,0 mm 5,1 km/h (1 Bft) SW 225 0 min -0,1 C 4,5 km/h (1 Bft)
15.02.2016 16:35 2,5 C 2,5 C 83 % 1013,2 hPa 0,0 mm 4,8 km/h (1 Bft) SW 225 0 min -0,1 C 5,1 km/h (1 Bft)
15.02.2016 16:36 2,5 C 2,5 C 83 % 1013,2 hPa 0,0 mm 4,8 km/h (1 Bft) SW 225 0 min -0,1 C 5,1 km/h (1 Bft)
15.02.2016 16:37 2,5 C 2,5 C 83 % 1013,2 hPa 0,0 mm 3,6 km/h (1 Bft) W-SW 247 0 min -0,1 C 0,0 km/h (0 Bft)
15.02.2016 16:38 2,5 C 2,5 C 83 % 1013,2 hPa 0,0 mm 3,6 km/h (1 Bft) W-SW 247 0 min -0,1 C 0,0 km/h (0 Bft)
15.02.2016 16:39 2,5 C 2,5 C 83 % 1013,2 hPa 0,0 mm 3,0 km/h (1 Bft) S 180 0 min -0,1 C 0,0 km/h (0 Bft)
15.02.2016 16:40 2,5 C 2,5 C 83 % 1013,2 hPa 0,0 mm 3,0 km/h (1 Bft) S 180 0 min -0,1 C 0,0 km/h (0 Bft)
15.02.2016 16:41 2,5 C 2,4 C 85 % 1013,2 hPa 0,0 mm 2,1 km/h (1 Bft) SO 135 0 min 0,2 C 0,0 km/h (0 Bft)
15.02.2016 16:42 2,5 C 2,4 C 85 % 1013,2 hPa 0,0 mm 2,1 km/h (1 Bft) SO 135 0 min 0,2 C 0,0 km/h (0 Bft)
15.02.2016 16:43 2,5 C 2,4 C 85 % 1013,5 hPa 0,0 mm 1,2 km/h (1 Bft) SO 135 0 min 0,2 C 0,0 km/h (0 Bft)
15.02.2016 16:44 2,5 C 2,4 C 85 % 1013,5 hPa 0,0 mm 1,2 km/h (1 Bft) SO 135 0 min 0,2 C 0,0 km/h (0 Bft)
15.02.2016 16:45 2,5 C 2,4 C 85 % 1013,5 hPa 0,0 mm 0,6 km/h (0 Bft) S-SO 157 0 min 0,2 C 0,0 km/h (0 Bft)
15.02.2016 16:46 2,5 C 2,4 C 85 % 1013,5 hPa 0,0 mm 0,6 km/h (0 Bft) S-SO 157 0 min 0,2 C 0,0 km/h (0 Bft)
15.02.2016 16:47 2,5 C 2,4 C 85 % 1013,5 hPa 0,0 mm 0,0 km/h (0 Bft) SO 135 0 min 0,2 C 0,0 km/h (0 Bft)
15.02.2016 16:48 2,5 C 2,4 C 85 % 1013,5 hPa 0,0 mm 0,0 km/h (0 Bft) SO 135 0 min 0,2 C 0,0 km/h (0 Bft)
15.02.2016 16:49 2,5 C 2,4 C 85 % 1013,5 hPa 0,0 mm 0,0 km/h (0 Bft) W-SW 247 0 min 0,2 C 0,0 km/h (0 Bft)
15.02.2016 16:50 2,5 C 2,4 C 85 % 1013,5 hPa 0,0 mm 0,0 km/h (0 Bft) W-SW 247 0 min 0,2 C 0,0 km/h (0 Bft)
15.02.2016 16:51 2,5 C 2,3 C 85 % 1013,5 hPa 0,0 mm 0,0 km/h (0 Bft) S 180 0 min 0,2 C 0,0 km/h (0 Bft)
15.02.2016 16:52 2,5 C 2,3 C 85 % 1013,5 hPa 0,0 mm 0,0 km/h (0 Bft) S 180 0 min 0,2 C 0,0 km/h (0 Bft)
15.02.2016 16:53 2,4 C 2,3 C 85 % 1013,5 hPa 0,0 mm 0,3 km/h (0 Bft) S 180 0 min 0,1 C 0,0 km/h (0 Bft)
15.02.2016 16:54 2,4 C 2,3 C 85 % 1013,5 hPa 0,0 mm 0,3 km/h (0 Bft) S 180 0 min 0,1 C 0,0 km/h (0 Bft)
15.02.2016 16:55 2,4 C 2,3 C 85 % 1013,5 hPa 0,0 mm 0,3 km/h (0 Bft) S-SO 157 0 min 0,1 C 0,0 km/h (0 Bft)
15.02.2016 16:56 2,4 C 2,3 C 85 % 1013,5 hPa 0,0 mm 0,3 km/h (0 Bft) S-SO 157 0 min 0,1 C 0,0 km/h (0 Bft)
15.02.2016 16:57 2,4 C 2,2 C 85 % 1013,5 hPa 0,0 mm 0,3 km/h (0 Bft) S-SO 157 0 min 0,1 C 0,0 km/h (0 Bft)
15.02.2016 16:58 2,4 C 2,2 C 85 % 1013,5 hPa 0,0 mm 0,3 km/h (0 Bft) S-SO 157 0 min 0,1 C 0,0 km/h (0 Bft)
15.02.2016 16:59 2,3 C 2,2 C 85 % 1013,5 hPa 0,0 mm 0,3 km/h (0 Bft) S-SO 157 0 min 0,0 C 0,0 km/h (0 Bft)
15.02.2016 17:00 2,3 C 2,2 C 85 % 1013,5 hPa 0,0 mm 0,3 km/h (0 Bft) S-SO 157 0 min 0,0 C 0,0 km/h (0 Bft)
15.02.2016 17:01 2,3 C 2,1 C 85 % 1013,5 hPa 0,0 mm 0,3 km/h (0 Bft) SO 135 0 min 0,0 C 0,0 km/h (0 Bft)
15.02.2016 17:02 2,3 C 2,1 C 85 % 1013,5 hPa 0,0 mm 0,3 km/h (0 Bft) SO 135 0 min 0,0 C 0,0 km/h (0 Bft)
15.02.2016 17:03 2,3 C 2,1 C 85 % 1013,8 hPa 0,0 mm 0,0 km/h (0 Bft) S-SO 157 0 min 0,0 C 0,0 km/h (0 Bft)
15.02.2016 17:04 2,3 C 2,1 C 85 % 1013,8 hPa 0,0 mm 0,0 km/h (0 Bft) S-SO 157 0 min 0,0 C 0,0 km/h (0 Bft)
15.02.2016 17:05 2,3 C 2,1 C 85 % 1013,8 hPa 0,0 mm 0,0 km/h (0 Bft) SO 135 0 min 0,0 C 0,0 km/h (0 Bft)
15.02.2016 17:06 2,3 C 2,1 C 85 % 1013,8 hPa 0,0 mm 0,0 km/h (0 Bft) SO 135 0 min 0,0 C 0,0 km/h (0 Bft)
15.02.2016 17:07 2,2 C 2,0 C 85 % 1013,8 hPa 0,0 mm 0,0 km/h (0 Bft) SO 135 0 min -0,1 C 0,0 km/h (0 Bft)
15.02.2016 17:08 2,2 C 2,0 C 85 % 1013,8 hPa 0,0 mm 0,0 km/h (0 Bft) SO 135 0 min -0,1 C 0,0 km/h (0 Bft)
15.02.2016 17:09 2,2 C 2,0 C 86 % 1013,8 hPa 0,0 mm 0,0 km/h (0 Bft) SO 135 0 min 0,1 C 0,0 km/h (0 Bft)
15.02.2016 17:10 2,2 C 2,0 C 86 % 1013,8 hPa 0,0 mm 0,0 km/h (0 Bft) SO 135 0 min 0,1 C 0,0 km/h (0 Bft)
15.02.2016 17:11 2,2 C 2,0 C 86 % 1013,8 hPa 0,0 mm 0,0 km/h (0 Bft) O-SO 112 0 min 0,1 C 0,0 km/h (0 Bft)
15.02.2016 17:12 2,2 C 2,0 C 86 % 1013,8 hPa 0,0 mm 0,0 km/h (0 Bft) O-SO 112 0 min 0,1 C 0,0 km/h (0 Bft)
15.02.2016 17:13 2,1 C 1,9 C 86 % 1013,8 hPa 0,0 mm 0,0 km/h (0 Bft) O 90 0 min 0,0 C 0,0 km/h (0 Bft)
15.02.2016 17:14 2,1 C 1,9 C 86 % 1013,8 hPa 0,0 mm 0,0 km/h (0 Bft) O 90 0 min 0,0 C 0,0 km/h (0 Bft)
15.02.2016 17:15 2,1 C 1,9 C 86 % 1013,8 hPa 0,0 mm 0,0 km/h (0 Bft) O 90 0 min 0,0 C 0,0 km/h (0 Bft)
15.02.2016 17:16 2,1 C 1,9 C 86 % 1013,8 hPa 0,0 mm 0,0 km/h (0 Bft) O 90 0 min 0,0 C 0,0 km/h (0 Bft)
15.02.2016 17:17 2,1 C 1,9 C 86 % 1013,8 hPa 0,0 mm 0,0 km/h (0 Bft) O 90 0 min 0,0 C 0,0 km/h (0 Bft)
15.02.2016 17:18 2,1 C 1,9 C 86 % 1013,8 hPa 0,0 mm 0,0 km/h (0 Bft) O 90 0 min 0,0 C 0,0 km/h (0 Bft)
15.02.2016 17:19 2,1 C 1,9 C 86 % 1013,8 hPa 0,0 mm 0,0 km/h (0 Bft) O-NO 67 0 min 0,0 C 0,0 km/h (0 Bft)
15.02.2016 17:20 2,1 C 1,9 C 86 % 1013,8 hPa 0,0 mm 0,0 km/h (0 Bft) O-NO 67 0 min 0,0 C 0,0 km/h (0 Bft)
15.02.2016 17:21 2,1 C 1,9 C 86 % 1013,8 hPa 0,0 mm 0,0 km/h (0 Bft) S 180 0 min 0,0 C 0,0 km/h (0 Bft)
15.02.2016 17:22 2,1 C 1,9 C 86 % 1013,8 hPa 0,0 mm 0,0 km/h (0 Bft) S 180 0 min 0,0 C 0,0 km/h (0 Bft)
15.02.2016 17:23 2,1 C 1,9 C 86 % 1014,2 hPa 0,0 mm 0,0 km/h (0 Bft) S-SO 157 0 min 0,0 C 0,0 km/h (0 Bft)
15.02.2016 17:24 2,1 C 1,9 C 86 % 1014,2 hPa 0,0 mm 0,0 km/h (0 Bft) S-SO 157 0 min 0,0 C 0,0 km/h (0 Bft)
15.02.2016 17:25 2,0 C 1,8 C 86 % 1014,2 hPa 0,0 mm 0,0 km/h (0 Bft) SO 135 0 min -0,1 C 0,0 km/h (0 Bft)
15.02.2016 17:26 2,0 C 1,8 C 86 % 1014,2 hPa 0,0 mm 0,0 km/h (0 Bft) SO 135 0 min -0,1 C 0,0 km/h (0 Bft)
15.02.2016 17:27 2,0 C 1,8 C 86 % 1014,2 hPa 0,0 mm 0,0 km/h (0 Bft) SW 225 0 min -0,1 C 0,0 km/h (0 Bft)
15.02.2016 17:28 2,0 C 1,8 C 86 % 1014,2 hPa 0,0 mm 0,0 km/h (0 Bft) SW 225 0 min -0,1 C 0,0 km/h (0 Bft)
15.02.2016 17:29 2,0 C 1,8 C 86 % 1014,2 hPa 0,0 mm 0,0 km/h (0 Bft) SW 225 0 min -0,1 C 0,0 km/h (0 Bft)
15.02.2016 17:30 2,0 C 1,8 C 86 % 1014,2 hPa 0,0 mm 0,0 km/h (0 Bft) SW 225 0 min -0,1 C 0,0 km/h (0 Bft)
15.02.2016 17:31 2,0 C 1,8 C 86 % 1014,2 hPa 0,0 mm 0,0 km/h (0 Bft) S 180 0 min -0,1 C 0,0 km/h (0 Bft)
15.02.2016 17:32 2,0 C 1,8 C 86 % 1014,2 hPa 0,0 mm 0,0 km/h (0 Bft) S 180 0 min -0,1 C 0,0 km/h (0 Bft)
15.02.2016 17:33 2,0 C 1,8 C 86 % 1014,2 hPa 0,0 mm 0,0 km/h (0 Bft) SO 135 0 min -0,1 C 0,0 km/h (0 Bft)
15.02.2016 17:34 2,0 C 1,8 C 86 % 1014,2 hPa 0,0 mm 0,0 km/h (0 Bft) SO 135 0 min -0,1 C 0,0 km/h (0 Bft)
15.02.2016 17:35 2,0 C 1,8 C 86 % 1014,2 hPa 0,0 mm 0,0 km/h (0 Bft) SO 135 0 min -0,1 C 0,0 km/h (0 Bft)
15.02.2016 17:36 2,0 C 1,8 C 86 % 1014,2 hPa 0,0 mm 0,0 km/h (0 Bft) SO 135 0 min -0,1 C 0,0 km/h (0 Bft)
15.02.2016 17:37 2,0 C 1,8 C 87 % 1014,2 hPa 0,0 mm 0,0 km/h (0 Bft) SO 135 0 min 0,1 C 0,0 km/h (0 Bft)
15.02.2016 17:38 2,0 C 1,8 C 87 % 1014,2 hPa 0,0 mm 0,0 km/h (0 Bft) SO 135 0 min 0,1 C 0,0 km/h (0 Bft)
15.02.2016 17:39 2,0 C 1,8 C 87 % 1014,2 hPa 0,0 mm 0,0 km/h (0 Bft) S-SO 157 0 min 0,1 C 0,0 km/h (0 Bft)
15.02.2016 17:40 2,0 C 1,8 C 87 % 1014,2 hPa 0,0 mm 0,0 km/h (0 Bft) S-SO 157 0 min 0,1 C 0,0 km/h (0 Bft)
15.02.2016 17:41 2,0 C 1,8 C 87 % 1014,2 hPa 0,0 mm 0,0 km/h (0 Bft) S-SO 157 0 min 0,1 C 0,0 km/h (0 Bft)
15.02.2016 17:42 2,0 C 1,8 C 87 % 1014,2 hPa 0,0 mm 0,0 km/h (0 Bft) S-SO 157 0 min 0,1 C 0,0 km/h (0 Bft)
15.02.2016 17:43 2,0 C 1,8 C 87 % 1014,5 hPa 0,0 mm 0,0 km/h (0 Bft) SO 135 0 min 0,1 C 0,0 km/h (0 Bft)
15.02.2016 17:44 2,0 C 1,8 C 87 % 1014,5 hPa 0,0 mm 0,0 km/h (0 Bft) SO 135 0 min 0,1 C 0,0 km/h (0 Bft)
15.02.2016 17:45 2,0 C 1,8 C 87 % 1014,5 hPa 0,0 mm 0,0 km/h (0 Bft) SO 135 0 min 0,1 C 0,0 km/h (0 Bft)
15.02.2016 17:46 2,0 C 1,8 C 87 % 1014,5 hPa 0,0 mm 0,0 km/h (0 Bft) SO 135 0 min 0,1 C 0,0 km/h (0 Bft)
15.02.2016 17:47 1,9 C 1,7 C 88 % 1014,5 hPa 0,0 mm 0,0 km/h (0 Bft) S-SO 157 0 min 0,1 C 0,0 km/h (0 Bft)
15.02.2016 17:48 1,9 C 1,7 C 88 % 1014,5 hPa 0,0 mm 0,0 km/h (0 Bft) S-SO 157 0 min 0,1 C 0,0 km/h (0 Bft)
15.02.2016 17:49 1,9 C 1,7 C 88 % 1014,5 hPa 0,0 mm 0,0 km/h (0 Bft) S-SO 157 0 min 0,1 C 0,0 km/h (0 Bft)
15.02.2016 17:50 1,9 C 1,7 C 88 % 1014,5 hPa 0,0 mm 0,0 km/h (0 Bft) S-SO 157 0 min 0,1 C 0,0 km/h (0 Bft)
15.02.2016 17:51 1,9 C 1,7 C 88 % 1014,5 hPa 0,0 mm 0,0 km/h (0 Bft) SO 135 0 min 0,1 C 0,0 km/h (0 Bft)
15.02.2016 17:52 1,9 C 1,7 C 88 % 1014,5 hPa 0,0 mm 0,0 km/h (0 Bft) SO 135 0 min 0,1 C 0,0 km/h (0 Bft)
15.02.2016 17:53 1,9 C 1,7 C 88 % 1014,5 hPa 0,0 mm 0,0 km/h (0 Bft) S 180 0 min 0,1 C 0,0 km/h (0 Bft)
15.02.2016 17:54 1,9 C 1,7 C 88 % 1014,5 hPa 0,0 mm 0,0 km/h (0 Bft) S 180 0 min 0,1 C 0,0 km/h (0 Bft)
15.02.2016 17:55 1,9 C 1,7 C 88 % 1014,5 hPa 0,0 mm 0,0 km/h (0 Bft) S 180 0 min 0,1 C 0,0 km/h (0 Bft)
15.02.2016 17:56 1,9 C 1,7 C 88 % 1014,5 hPa 0,0 mm 0,0 km/h (0 Bft) S 180 0 min 0,1 C 0,0 km/h (0 Bft)
15.02.2016 17:57 1,9 C 1,7 C 88 % 1014,5 hPa 0,0 mm 0,0 km/h (0 Bft) S 180 0 min 0,1 C 0,0 km/h (0 Bft)
15.02.2016 17:58 1,9 C 1,7 C 88 % 1014,5 hPa 0,0 mm 0,0 km/h (0 Bft) S 180 0 min 0,1 C 0,0 km/h (0 Bft)
15.02.2016 17:59 1,9 C 1,7 C 88 % 1014,5 hPa 0,0 mm 0,0 km/h (0 Bft) S-SO 157 0 min 0,1 C 0,0 km/h (0 Bft)
15.02.2016 18:00 1,9 C 1,7 C 88 % 1014,5 hPa 0,0 mm 0,0 km/h (0 Bft) S-SO 157 0 min 0,1 C 0,0 km/h (0 Bft)
15.02.2016 18:01 1,9 C 1,7 C 88 % 1014,5 hPa 0,0 mm 0,0 km/h (0 Bft) S-SO 157 0 min 0,1 C 0,0 km/h (0 Bft)
15.02.2016 18:02 1,9 C 1,7 C 88 % 1014,5 hPa 0,0 mm 0,0 km/h (0 Bft) S-SO 157 0 min 0,1 C 0,0 km/h (0 Bft)
15.02.2016 18:03 1,9 C 1,7 C 88 % 1015,1 hPa 0,0 mm 0,0 km/h (0 Bft) O-NO 67 0 min 0,1 C 0,0 km/h (0 Bft)
15.02.2016 18:04 1,9 C 1,7 C 88 % 1015,1 hPa 0,0 mm 0,0 km/h (0 Bft) O-NO 67 0 min 0,1 C 0,0 km/h (0 Bft)
15.02.2016 18:05 1,9 C 1,7 C 88 % 1015,1 hPa 0,0 mm 0,0 km/h (0 Bft) O-NO 67 0 min 0,1 C 0,0 km/h (0 Bft)
15.02.2016 18:06 1,9 C 1,7 C 88 % 1015,1 hPa 0,0 mm 0,0 km/h (0 Bft) O-NO 67 0 min 0,1 C 0,0 km/h (0 Bft)
15.02.2016 18:07 1,9 C 1,7 C 88 % 1015,1 hPa 0,0 mm 0,0 km/h (0 Bft) O-NO 67 0 min 0,1 C 0,0 km/h (0 Bft)
15.02.2016 18:08 1,9 C 1,7 C 88 % 1015,1 hPa 0,0 mm 0,0 km/h (0 Bft) O-NO 67 0 min 0,1 C 0,0 km/h (0 Bft)
15.02.2016 18:09 1,8 C 1,6 C 88 % 1015,1 hPa 0,0 mm 0,0 km/h (0 Bft) O-NO 67 0 min 0,0 C 0,0 km/h (0 Bft)
15.02.2016 18:10 1,8 C 1,6 C 88 % 1015,1 hPa 0,0 mm 0,0 km/h (0 Bft) O-NO 67 0 min 0,0 C 0,0 km/h (0 Bft)
15.02.2016 18:11 1,9 C 1,7 C 88 % 1015,1 hPa 0,0 mm 0,0 km/h (0 Bft) O-NO 67 0 min 0,1 C 0,0 km/h (0 Bft)
15.02.2016 18:12 1,9 C 1,7 C 88 % 1015,1 hPa 0,0 mm 0,0 km/h (0 Bft) O-NO 67 0 min 0,1 C 0,0 km/h (0 Bft)
15.02.2016 18:13 1,9 C 1,7 C 88 % 1015,1 hPa 0,0 mm 0,0 km/h (0 Bft) NO 45 0 min 0,1 C 0,0 km/h (0 Bft)
15.02.2016 18:14 1,9 C 1,7 C 88 % 1015,1 hPa 0,0 mm 0,0 km/h (0 Bft) NO 45 0 min 0,1 C 0,0 km/h (0 Bft)
15.02.2016 18:15 1,9 C 1,7 C 88 % 1015,1 hPa 0,0 mm 0,0 km/h (0 Bft) N-NO 22 0 min 0,1 C 0,0 km/h (0 Bft)
15.02.2016 18:16 1,9 C 1,7 C 88 % 1015,1 hPa 0,0 mm 0,0 km/h (0 Bft) N-NO 22 0 min 0,1 C 0,0 km/h (0 Bft)
15.02.2016 18:17 1,9 C 1,7 C 88 % 1015,1 hPa 0,0 mm 0,3 km/h (0 Bft) NO 45 0 min 0,1 C 0,0 km/h (0 Bft)
15.02.2016 18:18 1,9 C 1,7 C 88 % 1015,1 hPa 0,0 mm 0,3 km/h (0 Bft) NO 45 0 min 0,1 C 0,0 km/h (0 Bft)
15.02.2016 18:19 1,8 C 1,6 C 88 % 1015,1 hPa 0,0 mm 0,3 km/h (0 Bft) O-NO 67 0 min 0,0 C 0,0 km/h (0 Bft)
15.02.2016 18:20 1,8 C 1,6 C 88 % 1015,1 hPa 0,0 mm 0,3 km/h (0 Bft) O-NO 67 0 min 0,0 C 0,0 km/h (0 Bft)
15.02.2016 18:21 1,8 C 1,6 C 88 % 1015,1 hPa 0,0 mm 0,3 km/h (0 Bft) N-NO 22 0 min 0,0 C 0,0 km/h (0 Bft)
15.02.2016 18:22 1,8 C 1,6 C 88 % 1015,1 hPa 0,0 mm 0,3 km/h (0 Bft) N-NO 22 0 min 0,0 C 0,0 km/h (0 Bft)
15.02.2016 18:23 1,8 C 1,6 C 88 % 1015,5 hPa 0,0 mm 0,3 km/h (0 Bft) NW 315 0 min 0,0 C 0,0 km/h (0 Bft)
15.02.2016 18:24 1,8 C 1,6 C 88 % 1015,5 hPa 0,0 mm 0,3 km/h (0 Bft) NW 315 0 min 0,0 C 0,0 km/h (0 Bft)
15.02.2016 18:25 1,9 C 1,7 C 88 % 1015,5 hPa 0,0 mm 1,5 km/h (1 Bft) W 270 0 min 0,1 C 13,4 km/h (3 Bft)
15.02.2016 18:26 1,9 C 1,7 C 88 % 1015,5 hPa 0,0 mm 1,5 km/h (1 Bft) W 270 0 min 0,1 C 13,4 km/h (3 Bft)
15.02.2016 18:27 1,8 C 1,6 C 88 % 1015,5 hPa 0,0 mm 2,7 km/h (1 Bft) W 270 0 min 0,0 C 9,2 km/h (2 Bft)
15.02.2016 18:28 1,8 C 1,6 C 88 % 1015,5 hPa 0,0 mm 2,7 km/h (1 Bft) W 270 0 min 0,0 C 9,2 km/h (2 Bft)
15.02.2016 18:29 1,7 C 1,5 C 88 % 1015,5 hPa 0,0 mm 4,2 km/h (1 Bft) W 270 0 min -0,1 C 14,6 km/h (3 Bft)
15.02.2016 18:30 1,7 C 1,5 C 88 % 1015,5 hPa 0,0 mm 4,2 km/h (1 Bft) W 270 0 min -0,1 C 14,6 km/h (3 Bft)
15.02.2016 18:31 1,6 C 1,3 C 88 % 1015,5 hPa 0,0 mm 6,0 km/h (2 Bft) W-NW 292 0 min -0,2 C 14,3 km/h (3 Bft)
15.02.2016 18:32 1,6 C 1,3 C 88 % 1015,5 hPa 0,0 mm 6,0 km/h (2 Bft) W-NW 292 0 min -0,2 C 14,3 km/h (3 Bft)
15.02.2016 18:33 1,6 C 0,9 C 88 % 1015,5 hPa 0,0 mm 8,9 km/h (2 Bft) W 270 0 min -0,2 C 11,3 km/h (2 Bft)
15.02.2016 18:34 1,6 C 0,9 C 88 % 1015,5 hPa 0,0 mm 8,9 km/h (2 Bft) W 270 0 min -0,2 C 17,9 km/h (3 Bft)
15.02.2016 18:35 1,5 C 0,8 C 88 % 1015,5 hPa 0,0 mm 9,5 km/h (2 Bft) W-NW 292 0 min -0,3 C 14,3 km/h (3 Bft)
15.02.2016 18:36 1,5 C 0,8 C 88 % 1015,5 hPa 0,0 mm 9,5 km/h (2 Bft) W-NW 292 0 min -0,3 C 14,3 km/h (3 Bft)
15.02.2016 18:37 1,5 C 0,8 C 88 % 1015,5 hPa 0,0 mm 9,5 km/h (2 Bft) N-NW 337 0 min -0,3 C 5,1 km/h (1 Bft)
15.02.2016 18:38 1,5 C 0,8 C 88 % 1015,5 hPa 0,0 mm 9,5 km/h (2 Bft) N-NW 337 0 min -0,3 C 5,1 km/h (1 Bft)
15.02.2016 18:39 1,4 C 0,7 C 88 % 1015,5 hPa 0,0 mm 10,1 km/h (2 Bft) W 270 0 min -0,4 C 11,6 km/h (2 Bft)
15.02.2016 18:40 1,4 C 0,7 C 88 % 1015,5 hPa 0,0 mm 10,1 km/h (2 Bft) W 270 0 min -0,4 C 11,6 km/h (2 Bft)
15.02.2016 18:41 1,4 C 0,7 C 88 % 1015,5 hPa 0,0 mm 9,8 km/h (2 Bft) NW 315 0 min -0,4 C 8,9 km/h (2 Bft)
15.02.2016 18:42 1,4 C 0,7 C 88 % 1015,5 hPa 0,0 mm 9,8 km/h (2 Bft) NW 315 0 min -0,4 C 8,9 km/h (2 Bft)
15.02.2016 18:43 1,3 C 0,6 C 88 % 1016,1 hPa 0,0 mm 9,8 km/h (2 Bft) NW 315 0 min -0,5 C 18,2 km/h (3 Bft)
15.02.2016 18:44 1,3 C 0,6 C 88 % 1016,1 hPa 0,0 mm 9,8 km/h (2 Bft) NW 315 0 min -0,5 C 18,8 km/h (3 Bft)
15.02.2016 18:45 1,2 C 0,4 C 88 % 1016,1 hPa 0,7 mm 9,8 km/h (2 Bft) W-NW 292 0 min -0,6 C 13,4 km/h (3 Bft)
15.02.2016 18:46 1,2 C 0,4 C 88 % 1016,1 hPa 0,0 mm 9,8 km/h (2 Bft) W-NW 292 0 min -0,6 C 13,4 km/h (3 Bft)
15.02.2016 18:47 1,1 C 0,4 C 88 % 1016,1 hPa 0,0 mm 9,8 km/h (2 Bft) NW 315 0 min -0,7 C 11,3 km/h (2 Bft)
15.02.2016 18:48 1,1 C 0,4 C 88 % 1016,1 hPa 0,0 mm 9,8 km/h (2 Bft) NW 315 0 min -0,7 C 11,3 km/h (2 Bft)
15.02.2016 18:49 1,1 C 0,3 C 89 % 1016,1 hPa 0,0 mm 11,0 km/h (2 Bft) W-NW 292 0 min -0,5 C 20,0 km/h (4 Bft)
15.02.2016 18:50 1,1 C 0,3 C 89 % 1016,1 hPa 0,0 mm 11,0 km/h (2 Bft) W-NW 292 0 min -0,5 C 20,0 km/h (4 Bft)
15.02.2016 18:51 1,1 C 0,2 C 89 % 1016,1 hPa 0,0 mm 11,0 km/h (2 Bft) NW 315 0 min -0,5 C 10,7 km/h (2 Bft)
15.02.2016 18:52 1,1 C 0,2 C 89 % 1016,1 hPa 0,0 mm 11,0 km/h (2 Bft) NW 315 0 min -0,5 C 10,7 km/h (2 Bft)
15.02.2016 18:53 1,0 C 0,1 C 89 % 1016,1 hPa 0,0 mm 11,0 km/h (2 Bft) W-NW 292 0 min -0,6 C 9,8 km/h (2 Bft)
15.02.2016 18:54 1,0 C 0,1 C 89 % 1016,1 hPa 0,0 mm 11,0 km/h (2 Bft) W-NW 292 0 min -0,6 C 20,0 km/h (4 Bft)
15.02.2016 18:55 1,0 C 0,1 C 89 % 1016,1 hPa 0,0 mm 10,7 km/h (2 Bft) W-NW 292 0 min -0,6 C 14,9 km/h (3 Bft)
15.02.2016 18:56 1,0 C 0,1 C 89 % 1016,1 hPa 0,0 mm 10,7 km/h (2 Bft) W-NW 292 0 min -0,6 C 14,9 km/h (3 Bft)
15.02.2016 18:57 1,0 C 0,1 C 89 % 1016,1 hPa 0,0 mm 10,7 km/h (2 Bft) W-NW 292 0 min -0,6 C 12,2 km/h (2 Bft)
15.02.2016 18:58 1,0 C 0,1 C 89 % 1016,1 hPa 0,0 mm 10,7 km/h (2 Bft) W-NW 292 0 min -0,6 C 12,2 km/h (2 Bft)
15.02.2016 18:59 1,0 C 0,2 C 89 % 1016,1 hPa 0,0 mm 10,1 km/h (2 Bft) W 270 0 min -0,6 C 7,2 km/h (2 Bft)
15.02.2016 19:00 1,0 C 0,2 C 89 % 1016,1 hPa 0,0 mm 10,1 km/h (2 Bft) W 270 0 min -0,6 C 7,2 km/h (2 Bft)
15.02.2016 19:01 1,0 C 0,3 C 89 % 1016,1 hPa 0,0 mm 8,3 km/h (2 Bft) NW 315 0 min -0,6 C 7,2 km/h (2 Bft)
15.02.2016 19:02 1,0 C 0,3 C 89 % 1016,1 hPa 0,0 mm 8,3 km/h (2 Bft) NW 315 0 min -0,6 C 7,2 km/h (2 Bft)
15.02.2016 19:03 1,0 C 0,4 C 89 % 1016,3 hPa 0,0 mm 7,7 km/h (2 Bft) NW 315 0 min -0,6 C 6,3 km/h (2 Bft)
15.02.2016 19:04 1,0 C 0,4 C 89 % 1016,3 hPa 0,0 mm 7,7 km/h (2 Bft) NW 315 0 min -0,6 C 6,3 km/h (2 Bft)
15.02.2016 19:05 0,9 C 0,3 C 89 % 1016,3 hPa 0,0 mm 7,7 km/h (2 Bft) W 270 0 min -0,7 C 7,5 km/h (2 Bft)
15.02.2016 19:06 0,9 C 0,3 C 89 % 1016,3 hPa 0,0 mm 7,7 km/h (2 Bft) W 270 0 min -0,7 C 7,5 km/h (2 Bft)
15.02.2016 19:07 0,9 C 0,4 C 89 % 1016,3 hPa 0,0 mm 7,2 km/h (2 Bft) NW 315 0 min -0,7 C 6,0 km/h (2 Bft)
15.02.2016 19:08 0,9 C 0,4 C 89 % 1016,3 hPa 0,0 mm 7,2 km/h (2 Bft) NW 315 0 min -0,7 C 6,0 km/h (2 Bft)
15.02.2016 19:09 0,9 C 0,5 C 89 % 1016,3 hPa 0,0 mm 6,3 km/h (2 Bft) W 270 0 min -0,7 C 3,6 km/h (1 Bft)
15.02.2016 19:10 0,9 C 0,5 C 89 % 1016,3 hPa 0,0 mm 6,3 km/h (2 Bft) W 270 0 min -0,7 C 3,6 km/h (1 Bft)
15.02.2016 19:11 0,9 C 0,6 C 85 % 1016,3 hPa 0,0 mm 6,0 km/h (2 Bft) W-NW 292 0 min -1,3 C 5,7 km/h (1 Bft)
15.02.2016 19:12 0,9 C 0,6 C 85 % 1016,3 hPa 0,0 mm 6,0 km/h (2 Bft) W-NW 292 0 min -1,3 C 5,7 km/h (1 Bft)
15.02.2016 19:13 0,9 C 0,6 C 85 % 1016,3 hPa 0,0 mm 6,0 km/h (2 Bft) W 270 0 min -1,3 C 5,1 km/h (1 Bft)
15.02.2016 19:14 0,9 C 0,6 C 85 % 1016,3 hPa 0,0 mm 6,0 km/h (2 Bft) W 270 0 min -1,3 C 5,1 km/h (1 Bft)
15.02.2016 19:15 0,9 C 0,6 C 85 % 1016,3 hPa 0,0 mm 5,7 km/h (1 Bft) NW 315 0 min -1,3 C 7,2 km/h (2 Bft)
15.02.2016 19:16 0,9 C 0,6 C 85 % 1016,3 hPa 0,0 mm 5,7 km/h (1 Bft) NW 315 0 min -1,3 C 7,2 km/h (2 Bft)
15.02.2016 19:17 1,0 C 0,6 C 89 % 1016,3 hPa 0,0 mm 5,4 km/h (1 Bft) NW 315 0 min -0,6 C 12,2 km/h (2 Bft)
15.02.2016 19:18 1,0 C 0,6 C 89 % 1016,3 hPa 0,0 mm 5,4 km/h (1 Bft) NW 315 0 min -0,6 C 12,2 km/h (2 Bft)
15.02.2016 19:19 1,0 C 0,6 C 89 % 1016,3 hPa 0,0 mm 5,7 km/h (1 Bft) NW 315 0 min -0,6 C 5,1 km/h (1 Bft)
15.02.2016 19:20 1,0 C 0,6 C 89 % 1016,3 hPa 0,0 mm 5,7 km/h (1 Bft) NW 315 0 min -0,6 C 5,1 km/h (1 Bft)
15.02.2016 19:21 1,0 C 0,7 C 85 % 1016,3 hPa 0,0 mm 5,4 km/h (1 Bft) N-NW 337 0 min -1,2 C 4,2 km/h (1 Bft)
15.02.2016 19:22 1,0 C 0,7 C 85 % 1016,3 hPa 0,0 mm 5,4 km/h (1 Bft) N-NW 337 0 min -1,2 C 4,2 km/h (1 Bft)
15.02.2016 19:23 1,0 C 0,8 C 85 % 1016,8 hPa 0,0 mm 4,5 km/h (1 Bft) N-NW 337 0 min -1,2 C 3,6 km/h (1 Bft)
15.02.2016 19:24 1,0 C 0,8 C 85 % 1016,8 hPa 0,0 mm 4,5 km/h (1 Bft) N-NW 337 0 min -1,2 C 3,6 km/h (1 Bft)
15.02.2016 19:25 1,0 C 0,9 C 85 % 1016,8 hPa 0,0 mm 4,5 km/h (1 Bft) N-NW 337 0 min -1,2 C 6,3 km/h (2 Bft)
15.02.2016 19:26 1,0 C 0,9 C 85 % 1016,8 hPa 0,0 mm 4,5 km/h (1 Bft) N-NW 337 0 min -1,2 C 6,3 km/h (2 Bft)
15.02.2016 19:27 1,0 C 0,9 C 85 % 1016,8 hPa 0,0 mm 4,5 km/h (1 Bft) NW 315 0 min -1,2 C 6,3 km/h (2 Bft)
15.02.2016 19:28 1,0 C 0,9 C 85 % 1016,8 hPa 0,0 mm 4,5 km/h (1 Bft) NW 315 0 min -1,2 C 6,3 km/h (2 Bft)
15.02.2016 19:29 1,1 C 0,9 C 89 % 1016,8 hPa 0,0 mm 4,2 km/h (1 Bft) N-NO 22 0 min -0,5 C 8,9 km/h (2 Bft)
15.02.2016 19:30 1,1 C 0,9 C 89 % 1016,8 hPa 0,0 mm 4,2 km/h (1 Bft) N-NO 22 0 min -0,5 C 8,9 km/h (2 Bft)
15.02.2016 19:31 1,1 C 0,9 C 89 % 1016,8 hPa 0,0 mm 4,5 km/h (1 Bft) NW 315 0 min -0,5 C 5,7 km/h (1 Bft)
15.02.2016 19:32 1,1 C 0,9 C 89 % 1016,8 hPa 0,0 mm 4,5 km/h (1 Bft) NW 315 0 min -0,5 C 5,7 km/h (1 Bft)
15.02.2016 19:33 1,1 C 0,9 C 89 % 1016,8 hPa 0,0 mm 4,8 km/h (1 Bft) NW 315 0 min -0,5 C 3,6 km/h (1 Bft)
15.02.2016 19:34 1,1 C 0,9 C 89 % 1016,8 hPa 0,0 mm 4,8 km/h (1 Bft) NW 315 0 min -0,5 C 3,6 km/h (1 Bft)
15.02.2016 19:35 1,1 C 0,9 C 89 % 1016,8 hPa 0,0 mm 4,8 km/h (1 Bft) NW 315 0 min -0,5 C 7,2 km/h (2 Bft)
15.02.2016 19:36 1,1 C 0,9 C 89 % 1016,8 hPa 0,0 mm 4,8 km/h (1 Bft) NW 315 0 min -0,5 C 7,2 km/h (2 Bft)
15.02.2016 19:37 1,1 C 0,9 C 89 % 1016,8 hPa 0,0 mm 4,8 km/h (1 Bft) N-NW 337 0 min -0,5 C 4,5 km/h (1 Bft)
15.02.2016 19:38 1,1 C 0,9 C 89 % 1016,8 hPa 0,0 mm 4,8 km/h (1 Bft) N-NW 337 0 min -0,5 C 4,5 km/h (1 Bft)
15.02.2016 19:39 1,1 C 0,9 C 89 % 1016,8 hPa 0,0 mm 4,2 km/h (1 Bft) NW 315 0 min -0,5 C 0,0 km/h (0 Bft)
15.02.2016 19:40 1,1 C 0,9 C 89 % 1016,8 hPa 0,0 mm 4,2 km/h (1 Bft) NW 315 0 min -0,5 C 0,0 km/h (0 Bft)
15.02.2016 19:41 1,1 C 1,0 C 85 % 1016,8 hPa 0,0 mm 3,3 km/h (1 Bft) N-NO 22 0 min -1,1 C 3,9 km/h (1 Bft)
15.02.2016 19:42 1,1 C 1,0 C 85 % 1016,8 hPa 0,0 mm 3,3 km/h (1 Bft) N-NO 22 0 min -1,1 C 3,9 km/h (1 Bft)
15.02.2016 19:43 1,1 C 1,0 C 85 % 1017,1 hPa 0,0 mm 3,0 km/h (1 Bft) NW 315 0 min -1,1 C 0,0 km/h (0 Bft)
15.02.2016 19:44 1,1 C 1,0 C 85 % 1017,1 hPa 0,0 mm 3,0 km/h (1 Bft) NW 315 0 min -1,1 C 0,0 km/h (0 Bft)
15.02.2016 19:45 1,2 C 1,0 C 89 % 1017,1 hPa 0,0 mm 3,0 km/h (1 Bft) NW 315 0 min -0,4 C 4,5 km/h (1 Bft)
15.02.2016 19:46 1,2 C 1,0 C 89 % 1017,1 hPa 0,0 mm 3,0 km/h (1 Bft) NW 315 0 min -0,4 C 4,5 km/h (1 Bft)
15.02.2016 19:47 1,2 C 1,0 C 89 % 1017,1 hPa 0,0 mm 2,7 km/h (1 Bft) N-NO 22 0 min -0,4 C 5,7 km/h (1 Bft)
15.02.2016 19:48 1,2 C 1,0 C 89 % 1017,1 hPa 0,0 mm 2,7 km/h (1 Bft) N-NO 22 0 min -0,4 C 5,7 km/h (1 Bft)
15.02.2016 19:49 1,2 C 1,0 C 89 % 1017,1 hPa 0,0 mm 2,4 km/h (1 Bft) N-NW 337 0 min -0,4 C 0,0 km/h (0 Bft)
15.02.2016 19:50 1,2 C 1,0 C 89 % 1017,1 hPa 0,0 mm 2,4 km/h (1 Bft) N-NW 337 0 min -0,4 C 0,0 km/h (0 Bft)
15.02.2016 19:51 1,2 C 1,0 C 89 % 1017,1 hPa 0,0 mm 2,4 km/h (1 Bft) NW 315 0 min -0,4 C 3,3 km/h (1 Bft)
15.02.2016 19:52 1,2 C 1,0 C 89 % 1017,1 hPa 0,0 mm 2,4 km/h (1 Bft) NW 315 0 min -0,4 C 3,3 km/h (1 Bft)
15.02.2016 19:53 1,2 C 1,0 C 89 % 1017,1 hPa 0,0 mm 1,8 km/h (1 Bft) N-NO 22 0 min -0,4 C 0,0 km/h (0 Bft)
15.02.2016 19:54 1,2 C 1,0 C 89 % 1017,1 hPa 0,0 mm 1,8 km/h (1 Bft) N-NO 22 0 min -0,4 C 0,0 km/h (0 Bft)
15.02.2016 19:55 1,2 C 1,0 C 89 % 1017,1 hPa 0,0 mm 2,1 km/h (1 Bft) N-NW 337 0 min -0,4 C 0,0 km/h (0 Bft)
15.02.2016 19:56 1,2 C 1,0 C 89 % 1017,1 hPa 0,0 mm 2,1 km/h (1 Bft) N-NW 337 0 min -0,4 C 0,0 km/h (0 Bft)
15.02.2016 19:57 1,2 C 1,0 C 89 % 1017,1 hPa 0,0 mm 2,4 km/h (1 Bft) N-NW 337 0 min -0,4 C 8,0 km/h (2 Bft)
15.02.2016 19:58 1,2 C 1,0 C 89 % 1017,1 hPa 0,0 mm 2,4 km/h (1 Bft) N-NW 337 0 min -0,4 C 8,0 km/h (2 Bft)
15.02.2016 19:59 1,2 C 1,1 C 85 % 1017,1 hPa 0,0 mm 2,4 km/h (1 Bft) O-NO 67 0 min -1,0 C 7,2 km/h (2 Bft)
15.02.2016 20:00 1,2 C 1,1 C 85 % 1017,1 hPa 0,0 mm 2,4 km/h (1 Bft) O-NO 67 0 min -1,0 C 7,2 km/h (2 Bft)
15.02.2016 20:01 1,2 C 1,1 C 85 % 1017,1 hPa 0,0 mm 3,0 km/h (1 Bft) N-NW 337 0 min -1,0 C 6,3 km/h (2 Bft)
15.02.2016 20:02 1,3 C 1,1 C 90 % 1017,3 hPa 0,0 mm 3,3 km/h (1 Bft) N-NO 22 0 min -0,2 C 0,0 km/h (0 Bft)
15.02.2016 20:04 1,3 C 1,1 C 90 % 1017,3 hPa 0,0 mm 3,3 km/h (1 Bft) N-NO 22 0 min -0,2 C 0,0 km/h (0 Bft)
15.02.2016 20:05 1,3 C 1,1 C 90 % 1017,3 hPa 0,0 mm 3,9 km/h (1 Bft) N-NO 22 0 min -0,2 C 4,2 km/h (1 Bft)
15.02.2016 20:06 1,3 C 1,1 C 90 % 1017,3 hPa 0,0 mm 3,9 km/h (1 Bft) N-NO 22 0 min -0,2 C 4,2 km/h (1 Bft)
15.02.2016 20:07 1,3 C 1,1 C 90 % 1017,3 hPa 0,0 mm 3,9 km/h (1 Bft) N-NO 22 0 min -0,2 C 3,6 km/h (1 Bft)
15.02.2016 20:08 1,3 C 1,1 C 90 % 1017,3 hPa 0,0 mm 3,9 km/h (1 Bft) N-NO 22 0 min -0,2 C 3,6 km/h (1 Bft)
15.02.2016 20:09 1,3 C 1,1 C 90 % 1017,3 hPa 0,0 mm 3,6 km/h (1 Bft) NW 315 0 min -0,2 C 6,0 km/h (2 Bft)
15.02.2016 20:10 1,3 C 1,1 C 90 % 1017,3 hPa 0,0 mm 3,6 km/h (1 Bft) NW 315 0 min -0,2 C 6,0 km/h (2 Bft)
15.02.2016 20:11 1,3 C 1,1 C 90 % 1017,3 hPa 0,0 mm 2,7 km/h (1 Bft) NO 45 0 min -0,2 C 0,0 km/h (0 Bft)
15.02.2016 20:12 1,3 C 1,1 C 90 % 1017,3 hPa 0,0 mm 2,7 km/h (1 Bft) NO 45 0 min -0,2 C 0,0 km/h (0 Bft)
15.02.2016 20:13 1,3 C 1,1 C 90 % 1017,3 hPa 0,0 mm 2,1 km/h (1 Bft) N-NO 22 0 min -0,2 C 0,0 km/h (0 Bft)
15.02.2016 20:14 1,3 C 1,1 C 90 % 1017,3 hPa 0,0 mm 2,1 km/h (1 Bft) N-NO 22 0 min -0,2 C 0,0 km/h (0 Bft)
15.02.2016 20:15 1,4 C 1,2 C 90 % 1017,3 hPa 0,0 mm 2,1 km/h (1 Bft) NW 315 0 min -0,1 C 3,3 km/h (1 Bft)
15.02.2016 20:16 1,4 C 1,2 C 90 % 1017,3 hPa 0,0 mm 2,1 km/h (1 Bft) NW 315 0 min -0,1 C 3,3 km/h (1 Bft)
15.02.2016 20:17 1,4 C 1,2 C 90 % 1017,3 hPa 0,0 mm 2,4 km/h (1 Bft) N-NW 337 0 min -0,1 C 8,0 km/h (2 Bft)
15.02.2016 20:18 1,4 C 1,2 C 90 % 1017,3 hPa 0,0 mm 2,4 km/h (1 Bft) N-NW 337 0 min -0,1 C 8,0 km/h (2 Bft)
15.02.2016 20:19 1,4 C 1,2 C 90 % 1017,3 hPa 0,0 mm 3,0 km/h (1 Bft) N-NO 22 0 min -0,1 C 7,7 km/h (2 Bft)
15.02.2016 20:20 1,4 C 1,2 C 90 % 1017,3 hPa 0,0 mm 3,0 km/h (1 Bft) N-NO 22 0 min -0,1 C 7,7 km/h (2 Bft)
15.02.2016 20:21 1,4 C 1,2 C 90 % 1017,3 hPa 0,0 mm 3,9 km/h (1 Bft) NW 315 0 min -0,1 C 6,0 km/h (2 Bft)
15.02.2016 20:22 1,4 C 1,2 C 90 % 1017,3 hPa 0,0 mm 3,9 km/h (1 Bft) NW 315 0 min -0,1 C 6,0 km/h (2 Bft)
15.02.2016 20:23 1,4 C 1,2 C 90 % 1017,7 hPa 0,0 mm 4,8 km/h (1 Bft) NW 315 0 min -0,1 C 5,1 km/h (1 Bft)
15.02.2016 20:24 1,4 C 1,2 C 90 % 1017,7 hPa 0,0 mm 4,8 km/h (1 Bft) NW 315 0 min -0,1 C 5,1 km/h (1 Bft)
15.02.2016 20:25 1,4 C 1,2 C 90 % 1017,7 hPa 0,0 mm 4,8 km/h (1 Bft) N-NW 337 0 min -0,1 C 0,0 km/h (0 Bft)
15.02.2016 20:26 1,4 C 1,2 C 90 % 1017,7 hPa 0,0 mm 4,8 km/h (1 Bft) N-NW 337 0 min -0,1 C 0,0 km/h (0 Bft)
15.02.2016 20:27 1,4 C 1,2 C 90 % 1017,7 hPa 0,0 mm 4,2 km/h (1 Bft) NW 315 0 min -0,1 C 0,0 km/h (0 Bft)
15.02.2016 20:28 1,4 C 1,2 C 90 % 1017,7 hPa 0,0 mm 4,2 km/h (1 Bft) NW 315 0 min -0,1 C 0,0 km/h (0 Bft)
15.02.2016 20:29 1,4 C 1,2 C 90 % 1017,7 hPa 0,0 mm 3,3 km/h (1 Bft) N-NO 22 0 min -0,1 C 3,0 km/h (1 Bft)
15.02.2016 20:30 1,4 C 1,2 C 90 % 1017,7 hPa 0,0 mm 3,3 km/h (1 Bft) N-NO 22 0 min -0,1 C 3,0 km/h (1 Bft)
15.02.2016 20:31 1,4 C 1,2 C 90 % 1017,7 hPa 0,0 mm 3,0 km/h (1 Bft) NW 315 0 min -0,1 C 7,2 km/h (2 Bft)
15.02.2016 20:32 1,4 C 1,2 C 90 % 1017,7 hPa 0,0 mm 3,0 km/h (1 Bft) NW 315 0 min -0,1 C 7,2 km/h (2 Bft)
15.02.2016 20:33 1,4 C 1,2 C 90 % 1017,7 hPa 0,0 mm 3,0 km/h (1 Bft) NW 315 0 min -0,1 C 3,9 km/h (1 Bft)
15.02.2016 20:34 1,4 C 1,2 C 90 % 1017,7 hPa 0,0 mm 3,0 km/h (1 Bft) NW 315 0 min -0,1 C 3,9 km/h (1 Bft)
15.02.2016 20:35 1,5 C 1,3 C 90 % 1017,7 hPa 0,0 mm 3,0 km/h (1 Bft) NW 315 0 min 0,0 C 5,4 km/h (1 Bft)
15.02.2016 20:36 1,5 C 1,3 C 90 % 1017,7 hPa 0,0 mm 3,0 km/h (1 Bft) NW 315 0 min 0,0 C 5,4 km/h (1 Bft)
15.02.2016 20:37 1,5 C 1,3 C 90 % 1017,7 hPa 0,0 mm 4,8 km/h (1 Bft) NO 45 0 min 0,0 C 11,3 km/h (2 Bft)
15.02.2016 20:38 1,5 C 1,3 C 90 % 1017,7 hPa 0,0 mm 4,8 km/h (1 Bft) NO 45 0 min 0,0 C 11,3 km/h (2 Bft)
15.02.2016 20:39 1,5 C 1,1 C 90 % 1017,7 hPa 0,0 mm 6,3 km/h (2 Bft) N-NO 22 0 min 0,0 C 9,5 km/h (2 Bft)
15.02.2016 20:40 1,5 C 1,1 C 90 % 1017,7 hPa 0,0 mm 6,3 km/h (2 Bft) N-NO 22 0 min 0,0 C 9,5 km/h (2 Bft)
15.02.2016 20:41 1,5 C 1,0 C 90 % 1017,7 hPa 0,0 mm 7,5 km/h (2 Bft) N-NW 337 0 min 0,0 C 14,3 km/h (3 Bft)
15.02.2016 20:42 1,5 C 1,0 C 90 % 1017,7 hPa 0,0 mm 7,5 km/h (2 Bft) N-NW 337 0 min 0,0 C 14,3 km/h (3 Bft)
15.02.2016 20:43 1,5 C 0,9 C 90 % 1017,8 hPa 0,0 mm 8,0 km/h (2 Bft) N-NO 22 0 min 0,0 C 7,5 km/h (2 Bft)
15.02.2016 20:44 1,5 C 0,9 C 90 % 1017,8 hPa 0,0 mm 8,0 km/h (2 Bft) N-NO 22 0 min 0,0 C 7,5 km/h (2 Bft)
15.02.2016 20:45 1,5 C 0,9 C 90 % 1017,8 hPa 0,0 mm 8,6 km/h (2 Bft) N-NW 337 0 min 0,0 C 14,9 km/h (3 Bft)
15.02.2016 20:46 1,5 C 0,9 C 90 % 1017,8 hPa 0,0 mm 8,6 km/h (2 Bft) N-NW 337 0 min 0,0 C 14,9 km/h (3 Bft)
15.02.2016 20:47 1,5 C 0,8 C 90 % 1017,8 hPa 0,0 mm 9,2 km/h (2 Bft) NW 315 0 min 0,0 C 10,7 km/h (2 Bft)
15.02.2016 20:48 1,5 C 0,8 C 90 % 1017,8 hPa 0,0 mm 9,2 km/h (2 Bft) NW 315 0 min 0,0 C 10,7 km/h (2 Bft)
15.02.2016 20:49 1,5 C 0,9 C 90 % 1017,8 hPa 0,0 mm 8,3 km/h (2 Bft) NW 315 0 min 0,0 C 8,3 km/h (2 Bft)
15.02.2016 20:50 1,5 C 0,9 C 90 % 1017,8 hPa 0,0 mm 8,3 km/h (2 Bft) NW 315 0 min 0,0 C 8,3 km/h (2 Bft)
15.02.2016 20:51 1,5 C 0,9 C 90 % 1017,8 hPa 0,0 mm 8,0 km/h (2 Bft) NW 315 0 min 0,0 C 13,4 km/h (3 Bft)
15.02.2016 20:52 1,5 C 0,9 C 90 % 1017,8 hPa 0,0 mm 8,0 km/h (2 Bft) NW 315 0 min 0,0 C 13,4 km/h (3 Bft)
15.02.2016 20:53 1,5 C 0,9 C 90 % 1017,8 hPa 0,0 mm 8,0 km/h (2 Bft) NW 315 0 min 0,0 C 16,4 km/h (3 Bft)
15.02.2016 20:54 1,5 C 0,9 C 90 % 1017,8 hPa 0,0 mm 8,0 km/h (2 Bft) NW 315 0 min 0,0 C 16,4 km/h (3 Bft)
15.02.2016 20:55 1,5 C 0,8 C 91 % 1017,8 hPa 0,0 mm 8,9 km/h (2 Bft) N-NW 337 0 min 0,2 C 8,9 km/h (2 Bft)
15.02.2016 20:56 1,5 C 0,8 C 91 % 1017,8 hPa 0,0 mm 8,9 km/h (2 Bft) N-NW 337 0 min 0,2 C 8,9 km/h (2 Bft)
15.02.2016 20:57 1,5 C 0,8 C 90 % 1017,8 hPa 0,0 mm 8,9 km/h (2 Bft) N-NO 22 0 min 0,0 C 10,4 km/h (2 Bft)
15.02.2016 20:58 1,5 C 0,8 C 90 % 1017,8 hPa 0,0 mm 8,9 km/h (2 Bft) N-NO 22 0 min 0,0 C 10,4 km/h (2 Bft)
15.02.2016 20:59 1,5 C 0,8 C 90 % 1017,8 hPa 0,0 mm 9,2 km/h (2 Bft) N-NW 337 0 min 0,0 C 9,2 km/h (2 Bft)
15.02.2016 21:00 1,5 C 0,8 C 90 % 1017,8 hPa 0,0 mm 9,2 km/h (2 Bft) N-NW 337 0 min 0,0 C 9,2 km/h (2 Bft)
15.02.2016 21:01 1,5 C 0,7 C 90 % 1017,8 hPa 0,0 mm 9,5 km/h (2 Bft) NW 315 0 min 0,0 C 6,9 km/h (2 Bft)
15.02.2016 21:02 1,5 C 0,7 C 90 % 1017,8 hPa 0,0 mm 9,5 km/h (2 Bft) NW 315 0 min 0,0 C 6,9 km/h (2 Bft)
15.02.2016 21:03 1,5 C 0,8 C 90 % 1018,3 hPa 0,0 mm 8,6 km/h (2 Bft) SO 135 0 min 0,0 C 0,0 km/h (0 Bft)
15.02.2016 21:04 1,5 C 0,8 C 90 % 1018,3 hPa 0,0 mm 8,6 km/h (2 Bft) SO 135 0 min 0,0 C 20,9 km/h (4 Bft)
15.02.2016 21:05 1,5 C 1,1 C 90 % 1018,3 hPa 0,0 mm 6,3 km/h (2 Bft) N-NO 22 0 min 0,0 C 6,6 km/h (2 Bft)
15.02.2016 21:06 1,5 C 1,1 C 90 % 1018,3 hPa 0,0 mm 6,3 km/h (2 Bft) N-NO 22 0 min 0,0 C 6,6 km/h (2 Bft)
15.02.2016 21:07 1,5 C 1,1 C 90 % 1018,3 hPa 0,0 mm 6,3 km/h (2 Bft) NW 315 0 min 0,0 C 8,9 km/h (2 Bft)
15.02.2016 21:08 1,5 C 1,1 C 90 % 1018,3 hPa 0,0 mm 6,3 km/h (2 Bft) NW 315 0 min 0,0 C 8,9 km/h (2 Bft)
15.02.2016 21:09 1,5 C 1,1 C 90 % 1018,3 hPa 0,0 mm 5,7 km/h (1 Bft) N-NW 337 0 min 0,0 C 5,7 km/h (1 Bft)
15.02.2016 21:10 1,5 C 1,1 C 90 % 1018,3 hPa 0,0 mm 5,7 km/h (1 Bft) N-NW 337 0 min 0,0 C 5,7 km/h (1 Bft)
15.02.2016 21:11 1,5 C 1,1 C 90 % 1018,3 hPa 0,0 mm 5,4 km/h (1 Bft) N-NO 22 0 min 0,0 C 11,3 km/h (2 Bft)
15.02.2016 21:12 1,5 C 1,1 C 90 % 1018,3 hPa 0,0 mm 5,4 km/h (1 Bft) N-NO 22 0 min 0,0 C 11,3 km/h (2 Bft)
15.02.2016 21:13 1,5 C 1,3 C 90 % 1018,3 hPa 0,0 mm 4,5 km/h (1 Bft) NW 315 0 min 0,0 C 11,3 km/h (2 Bft)
15.02.2016 21:14 1,5 C 1,3 C 90 % 1018,3 hPa 0,0 mm 4,5 km/h (1 Bft) NW 315 0 min 0,0 C 11,3 km/h (2 Bft)
15.02.2016 21:15 1,5 C 1,1 C 90 % 1018,3 hPa 0,0 mm 6,0 km/h (2 Bft) N-NW 337 0 min 0,0 C 9,2 km/h (2 Bft)
15.02.2016 21:16 1,5 C 1,1 C 90 % 1018,3 hPa 0,0 mm 6,0 km/h (2 Bft) N-NW 337 0 min 0,0 C 9,2 km/h (2 Bft)
15.02.2016 21:17 1,5 C 1,0 C 90 % 1018,3 hPa 0,0 mm 6,6 km/h (2 Bft) N-NO 22 0 min 0,0 C 16,1 km/h (3 Bft)
15.02.2016 21:18 1,5 C 1,0 C 90 % 1018,3 hPa 0,0 mm 6,6 km/h (2 Bft) N-NO 22 0 min 0,0 C 16,1 km/h (3 Bft)
15.02.2016 21:19 1,5 C 1,1 C 90 % 1018,3 hPa 0,0 mm 6,3 km/h (2 Bft) N-NO 22 0 min 0,0 C 6,9 km/h (2 Bft)
15.02.2016 21:20 1,5 C 1,1 C 90 % 1018,3 hPa 0,0 mm 6,3 km/h (2 Bft) N-NO 22 0 min 0,0 C 6,9 km/h (2 Bft)
15.02.2016 21:21 1,5 C 1,0 C 90 % 1018,3 hPa 0,0 mm 6,9 km/h (2 Bft) NW 315 0 min 0,0 C 10,1 km/h (2 Bft)
15.02.2016 21:22 1,5 C 1,0 C 90 % 1018,3 hPa 0,0 mm 6,9 km/h (2 Bft) NW 315 0 min 0,0 C 10,1 km/h (2 Bft)
15.02.2016 21:23 1,5 C 0,8 C 90 % 1018,7 hPa 0,0 mm 8,6 km/h (2 Bft) N-NW 337 0 min 0,0 C 17,9 km/h (3 Bft)
15.02.2016 21:24 1,5 C 0,8 C 90 % 1018,7 hPa 0,0 mm 8,6 km/h (2 Bft) N-NW 337 0 min 0,0 C 22,4 km/h (4 Bft)
15.02.2016 21:25 1,4 C 0,7 C 90 % 1018,7 hPa 0,0 mm 9,5 km/h (2 Bft) NW 315 0 min -0,1 C 10,4 km/h (2 Bft)
15.02.2016 21:26 1,4 C 0,7 C 90 % 1018,7 hPa 0,0 mm 9,5 km/h (2 Bft) NW 315 0 min -0,1 C 10,4 km/h (2 Bft)
15.02.2016 21:27 1,4 C 0,6 C 90 % 1018,7 hPa 0,0 mm 10,4 km/h (2 Bft) N-NO 22 0 min -0,1 C 10,1 km/h (2 Bft)
15.02.2016 21:28 1,4 C 0,6 C 90 % 1018,7 hPa 0,0 mm 10,4 km/h (2 Bft) N-NO 22 0 min -0,1 C 10,1 km/h (2 Bft)
15.02.2016 21:29 1,4 C 0,5 C 90 % 1018,7 hPa 0,0 mm 11,0 km/h (2 Bft) NW 315 0 min -0,1 C 13,7 km/h (3 Bft)
15.02.2016 21:30 1,4 C 0,5 C 90 % 1018,7 hPa 0,0 mm 11,0 km/h (2 Bft) NW 315 0 min -0,1 C 13,7 km/h (3 Bft)
15.02.2016 21:31 1,4 C 0,5 C 90 % 1018,7 hPa 0,0 mm 11,0 km/h (2 Bft) W-NW 292 0 min -0,1 C 15,2 km/h (3 Bft)
15.02.2016 21:32 1,4 C 0,5 C 90 % 1018,7 hPa 0,0 mm 11,0 km/h (2 Bft) W-NW 292 0 min -0,1 C 15,2 km/h (3 Bft)
15.02.2016 21:33 1,4 C 0,6 C 90 % 1018,7 hPa 0,0 mm 10,1 km/h (2 Bft) NW 315 0 min -0,1 C 0,0 km/h (0 Bft)
15.02.2016 21:34 1,4 C 0,6 C 90 % 1018,7 hPa 0,0 mm 10,1 km/h (2 Bft) NW 315 0 min -0,1 C 0,0 km/h (0 Bft)
15.02.2016 21:35 1,4 C 0,7 C 90 % 1018,7 hPa 0,0 mm 8,6 km/h (2 Bft) NO 45 0 min -0,1 C 14,6 km/h (3 Bft)
15.02.2016 21:36 1,4 C 0,7 C 90 % 1018,7 hPa 0,0 mm 8,6 km/h (2 Bft) NO 45 0 min -0,1 C 14,6 km/h (3 Bft)
15.02.2016 21:37 1,4 C 0,8 C 90 % 1018,7 hPa 0,0 mm 7,7 km/h (2 Bft) NW 315 0 min -0,1 C 6,9 km/h (2 Bft)
15.02.2016 21:38 1,4 C 0,8 C 90 % 1018,7 hPa 0,0 mm 7,7 km/h (2 Bft) NW 315 0 min -0,1 C 6,9 km/h (2 Bft)
15.02.2016 21:39 1,4 C 0,9 C 90 % 1018,7 hPa 0,0 mm 6,6 km/h (2 Bft) NW 315 0 min -0,1 C 3,6 km/h (1 Bft)
15.02.2016 21:40 1,4 C 0,9 C 90 % 1018,7 hPa 0,0 mm 6,6 km/h (2 Bft) NW 315 0 min -0,1 C 3,6 km/h (1 Bft)
15.02.2016 21:41 1,3 C 0,8 C 90 % 1018,7 hPa 0,0 mm 6,6 km/h (2 Bft) N-NW 337 0 min -0,2 C 12,8 km/h (3 Bft)
15.02.2016 21:42 1,3 C 0,8 C 90 % 1018,7 hPa 0,0 mm 6,6 km/h (2 Bft) N-NW 337 0 min -0,2 C 12,8 km/h (3 Bft)
15.02.2016 21:43 1,3 C 0,9 C 90 % 1019,1 hPa 0,0 mm 6,3 km/h (2 Bft) N-NW 337 0 min -0,2 C 6,6 km/h (2 Bft)
15.02.2016 21:44 1,3 C 0,9 C 90 % 1019,1 hPa 0,0 mm 6,3 km/h (2 Bft) N-NW 337 0 min -0,2 C 6,6 km/h (2 Bft)
15.02.2016 21:45 1,3 C 0,8 C 90 % 1019,1 hPa 0,0 mm 6,9 km/h (2 Bft) W-NW 292 0 min -0,2 C 5,4 km/h (1 Bft)
15.02.2016 21:46 1,3 C 0,8 C 90 % 1019,1 hPa 0,0 mm 6,9 km/h (2 Bft) W-NW 292 0 min -0,2 C 5,4 km/h (1 Bft)
15.02.2016 21:47 1,3 C 0,9 C 90 % 1019,1 hPa 0,0 mm 6,3 km/h (2 Bft) O-NO 67 0 min -0,2 C 4,8 km/h (1 Bft)
15.02.2016 21:48 1,3 C 0,9 C 90 % 1019,1 hPa 0,0 mm 6,3 km/h (2 Bft) O-NO 67 0 min -0,2 C 4,8 km/h (1 Bft)
15.02.2016 21:49 1,3 C 1,0 C 90 % 1019,1 hPa 0,0 mm 5,4 km/h (1 Bft) N-NW 337 0 min -0,2 C 3,9 km/h (1 Bft)
15.02.2016 21:50 1,3 C 1,0 C 90 % 1019,1 hPa 0,0 mm 5,4 km/h (1 Bft) N-NW 337 0 min -0,2 C 3,9 km/h (1 Bft)
15.02.2016 21:51 1,3 C 1,0 C 89 % 1019,1 hPa 0,0 mm 5,1 km/h (1 Bft) N-NW 337 0 min -0,3 C 3,6 km/h (1 Bft)
15.02.2016 21:52 1,3 C 1,0 C 89 % 1019,1 hPa 0,0 mm 5,1 km/h (1 Bft) N-NW 337 0 min -0,3 C 3,6 km/h (1 Bft)
15.02.2016 21:53 1,3 C 1,1 C 89 % 1019,1 hPa 0,0 mm 3,6 km/h (1 Bft) O 90 0 min -0,3 C 3,6 km/h (1 Bft)
15.02.2016 21:54 1,3 C 1,1 C 89 % 1019,1 hPa 0,0 mm 3,6 km/h (1 Bft) O 90 0 min -0,3 C 3,6 km/h (1 Bft)
15.02.2016 21:55 1,3 C 1,1 C 89 % 1019,1 hPa 0,0 mm 3,6 km/h (1 Bft) O-NO 67 0 min -0,3 C 12,8 km/h (3 Bft)
15.02.2016 21:56 1,3 C 1,1 C 89 % 1019,1 hPa 0,0 mm 3,6 km/h (1 Bft) O-NO 67 0 min -0,3 C 12,8 km/h (3 Bft)
15.02.2016 21:57 1,3 C 1,0 C 89 % 1019,1 hPa 0,0 mm 4,8 km/h (1 Bft) W-SW 247 0 min -0,3 C 7,2 km/h (2 Bft)
15.02.2016 21:58 1,3 C 1,0 C 89 % 1019,1 hPa 0,0 mm 4,8 km/h (1 Bft) W-SW 247 0 min -0,3 C 7,2 km/h (2 Bft)
15.02.2016 21:59 1,3 C 1,0 C 89 % 1019,1 hPa 0,0 mm 5,1 km/h (1 Bft) NO 45 0 min -0,3 C 10,7 km/h (2 Bft)
15.02.2016 22:00 1,3 C 1,0 C 89 % 1019,1 hPa 0,0 mm 5,1 km/h (1 Bft) NO 45 0 min -0,3 C 10,7 km/h (2 Bft)
15.02.2016 22:01 1,3 C 0,9 C 89 % 1019,1 hPa 0,0 mm 6,0 km/h (2 Bft) N-NO 22 0 min -0,3 C 11,6 km/h (2 Bft)
15.02.2016 22:02 1,3 C 0,9 C 89 % 1019,1 hPa 0,0 mm 6,0 km/h (2 Bft) N-NO 22 0 min -0,3 C 11,6 km/h (2 Bft)
15.02.2016 22:03 1,3 C 0,8 C 89 % 1019,4 hPa 0,0 mm 6,9 km/h (2 Bft) NW 315 0 min -0,3 C 7,5 km/h (2 Bft)
15.02.2016 22:04 1,3 C 0,8 C 89 % 1019,4 hPa 0,0 mm 6,9 km/h (2 Bft) NW 315 0 min -0,3 C 7,5 km/h (2 Bft)
15.02.2016 22:05 1,3 C 0,7 C 89 % 1019,4 hPa 0,0 mm 7,5 km/h (2 Bft) N-NW 337 0 min -0,3 C 9,5 km/h (2 Bft)
15.02.2016 22:06 1,3 C 0,7 C 89 % 1019,4 hPa 0,0 mm 7,5 km/h (2 Bft) N-NW 337 0 min -0,3 C 9,5 km/h (2 Bft)
15.02.2016 22:07 1,3 C 0,8 C 89 % 1019,4 hPa 0,0 mm 7,2 km/h (2 Bft) N-NO 22 0 min -0,3 C 16,4 km/h (3 Bft)
15.02.2016 22:08 1,3 C 0,8 C 89 % 1019,4 hPa 0,0 mm 7,2 km/h (2 Bft) N-NO 22 0 min -0,3 C 16,4 km/h (3 Bft)
15.02.2016 22:09 1,3 C 0,7 C 89 % 1019,4 hPa 0,0 mm 7,5 km/h (2 Bft) N 360 0 min -0,3 C 13,4 km/h (3 Bft)
15.02.2016 22:10 1,3 C 0,7 C 89 % 1019,4 hPa 0,0 mm 7,5 km/h (2 Bft) N 360 0 min -0,3 C 13,4 km/h (3 Bft)
15.02.2016 22:11 1,3 C 0,7 C 89 % 1019,4 hPa 0,0 mm 8,0 km/h (2 Bft) W-SW 247 0 min -0,3 C 5,7 km/h (1 Bft)
15.02.2016 22:12 1,3 C 0,7 C 89 % 1019,4 hPa 0,0 mm 8,0 km/h (2 Bft) W-SW 247 0 min -0,3 C 5,7 km/h (1 Bft)
15.02.2016 22:13 1,3 C 0,8 C 89 % 1019,4 hPa 0,0 mm 7,2 km/h (2 Bft) NW 315 0 min -0,3 C 11,3 km/h (2 Bft)
15.02.2016 22:14 1,3 C 0,8 C 89 % 1019,4 hPa 0,0 mm 7,2 km/h (2 Bft) NW 315 0 min -0,3 C 11,3 km/h (2 Bft)
15.02.2016 22:15 1,3 C 0,7 C 89 % 1019,4 hPa 0,0 mm 8,0 km/h (2 Bft) N-NW 337 0 min -0,3 C 5,4 km/h (1 Bft)
15.02.2016 22:16 1,3 C 0,7 C 89 % 1019,4 hPa 0,0 mm 8,0 km/h (2 Bft) N-NW 337 0 min -0,3 C 5,4 km/h (1 Bft)
15.02.2016 22:17 1,3 C 0,7 C 89 % 1019,4 hPa 0,0 mm 8,0 km/h (2 Bft) N-NO 22 0 min -0,3 C 10,7 km/h (2 Bft)
15.02.2016 22:18 1,3 C 0,7 C 89 % 1019,4 hPa 0,0 mm 8,0 km/h (2 Bft) N-NO 22 0 min -0,3 C 10,7 km/h (2 Bft)
15.02.2016 22:19 1,3 C 0,8 C 89 % 1019,4 hPa 0,0 mm 6,6 km/h (2 Bft) NO 45 0 min -0,3 C 9,2 km/h (2 Bft)
15.02.2016 22:20 1,3 C 0,8 C 89 % 1019,4 hPa 0,0 mm 6,6 km/h (2 Bft) NO 45 0 min -0,3 C 9,2 km/h (2 Bft)
15.02.2016 22:21 1,3 C 0,9 C 89 % 1019,4 hPa 0,0 mm 6,6 km/h (2 Bft) NO 45 0 min -0,3 C 6,3 km/h (2 Bft)
15.02.2016 22:22 1,3 C 0,9 C 89 % 1019,4 hPa 0,0 mm 6,6 km/h (2 Bft) NO 45 0 min -0,3 C 6,3 km/h (2 Bft)
15.02.2016 22:23 1,3 C 0,8 C 89 % 1019,6 hPa 0,0 mm 6,9 km/h (2 Bft) N-NO 22 0 min -0,3 C 9,2 km/h (2 Bft)
15.02.2016 22:24 1,3 C 0,8 C 89 % 1019,6 hPa 0,0 mm 6,9 km/h (2 Bft) N-NO 22 0 min -0,3 C 9,2 km/h (2 Bft)
15.02.2016 22:25 1,2 C 0,8 C 89 % 1019,6 hPa 0,0 mm 6,3 km/h (2 Bft) N-NO 22 0 min -0,4 C 4,5 km/h (1 Bft)
15.02.2016 22:26 1,2 C 0,8 C 89 % 1019,6 hPa 0,0 mm 6,3 km/h (2 Bft) N-NO 22 0 min -0,4 C 4,5 km/h (1 Bft)
15.02.2016 22:27 1,2 C 1,0 C 89 % 1019,6 hPa 0,0 mm 5,1 km/h (1 Bft) N-NO 22 0 min -0,4 C 3,6 km/h (1 Bft)
15.02.2016 22:28 1,2 C 1,0 C 89 % 1019,6 hPa 0,0 mm 5,1 km/h (1 Bft) N-NO 22 0 min -0,4 C 3,6 km/h (1 Bft)
15.02.2016 22:29 1,2 C 1,0 C 89 % 1019,6 hPa 0,0 mm 5,1 km/h (1 Bft) N-NO 22 0 min -0,4 C 4,2 km/h (1 Bft)
15.02.2016 22:30 1,2 C 1,0 C 89 % 1019,6 hPa 0,0 mm 5,1 km/h (1 Bft) N-NO 22 0 min -0,4 C 4,2 km/h (1 Bft)
15.02.2016 22:31 1,2 C 1,0 C 89 % 1019,6 hPa 0,0 mm 4,8 km/h (1 Bft) NO 45 0 min -0,4 C 5,1 km/h (1 Bft)
15.02.2016 22:32 1,2 C 1,0 C 89 % 1019,6 hPa 0,0 mm 4,8 km/h (1 Bft) NO 45 0 min -0,4 C 5,1 km/h (1 Bft)
15.02.2016 22:33 1,2 C 1,0 C 89 % 1019,6 hPa 0,0 mm 4,5 km/h (1 Bft) N-NW 337 0 min -0,4 C 8,9 km/h (2 Bft)
15.02.2016 22:34 1,2 C 1,0 C 89 % 1019,6 hPa 0,0 mm 4,5 km/h (1 Bft) N-NW 337 0 min -0,4 C 8,9 km/h (2 Bft)
15.02.2016 22:35 1,2 C 1,0 C 89 % 1019,6 hPa 0,0 mm 5,1 km/h (1 Bft) NO 45 0 min -0,4 C 11,3 km/h (2 Bft)
15.02.2016 22:36 1,2 C 1,0 C 89 % 1019,6 hPa 0,0 mm 5,1 km/h (1 Bft) NO 45 0 min -0,4 C 11,3 km/h (2 Bft)
15.02.2016 22:37 1,2 C 0,9 C 89 % 1019,6 hPa 0,0 mm 5,7 km/h (1 Bft) O-NO 67 0 min -0,4 C 5,4 km/h (1 Bft)
15.02.2016 22:38 1,2 C 0,9 C 89 % 1019,6 hPa 0,0 mm 5,7 km/h (1 Bft) O-NO 67 0 min -0,4 C 5,4 km/h (1 Bft)
15.02.2016 22:39 1,2 C 0,9 C 89 % 1019,6 hPa 0,0 mm 5,7 km/h (1 Bft) N-NW 337 0 min -0,4 C 3,9 km/h (1 Bft)
15.02.2016 22:40 1,2 C 0,9 C 89 % 1019,6 hPa 0,0 mm 5,7 km/h (1 Bft) N-NW 337 0 min -0,4 C 3,9 km/h (1 Bft)
15.02.2016 22:41 1,2 C 0,9 C 89 % 1019,6 hPa 0,0 mm 6,0 km/h (2 Bft) N-NW 337 0 min -0,4 C 7,2 km/h (2 Bft)
15.02.2016 22:42 1,2 C 0,9 C 89 % 1019,6 hPa 0,0 mm 6,0 km/h (2 Bft) N-NW 337 0 min -0,4 C 7,2 km/h (2 Bft)
15.02.2016 22:43 1,2 C 0,9 C 89 % 1019,6 hPa 0,0 mm 5,7 km/h (1 Bft) NO 45 0 min -0,4 C 0,0 km/h (0 Bft)
15.02.2016 22:44 1,2 C 0,9 C 89 % 1019,6 hPa 0,0 mm 5,7 km/h (1 Bft) NO 45 0 min -0,4 C 0,0 km/h (0 Bft)
15.02.2016 22:45 1,2 C 1,1 C 88 % 1019,6 hPa 0,0 mm 4,2 km/h (1 Bft) NW 315 0 min -0,6 C 0,0 km/h (0 Bft)
15.02.2016 22:46 1,2 C 1,1 C 88 % 1019,6 hPa 0,0 mm 4,2 km/h (1 Bft) NW 315 0 min -0,6 C 0,0 km/h (0 Bft)
15.02.2016 22:47 1,2 C 1,1 C 88 % 1019,6 hPa 0,0 mm 3,6 km/h (1 Bft) NW 315 0 min -0,6 C 6,9 km/h (2 Bft)
15.02.2016 22:48 1,2 C 1,1 C 88 % 1019,6 hPa 0,0 mm 3,6 km/h (1 Bft) NW 315 0 min -0,6 C 6,9 km/h (2 Bft)
15.02.2016 22:49 1,2 C 1,1 C 88 % 1019,6 hPa 0,0 mm 3,3 km/h (1 Bft) SO 135 0 min -0,6 C 0,0 km/h (0 Bft)
15.02.2016 22:50 1,2 C 1,1 C 88 % 1019,6 hPa 0,0 mm 3,3 km/h (1 Bft) SO 135 0 min -0,6 C 0,0 km/h (0 Bft)
15.02.2016 22:51 1,2 C 1,1 C 88 % 1019,6 hPa 0,0 mm 4,2 km/h (1 Bft) N-NW 337 0 min -0,6 C 8,9 km/h (2 Bft)
15.02.2016 22:52 1,2 C 1,1 C 88 % 1019,6 hPa 0,0 mm 4,2 km/h (1 Bft) N-NW 337 0 min -0,6 C 8,9 km/h (2 Bft)
15.02.2016 22:53 1,2 C 1,1 C 88 % 1019,6 hPa 0,0 mm 3,9 km/h (1 Bft) N-NW 337 0 min -0,6 C 8,3 km/h (2 Bft)
15.02.2016 22:54 1,2 C 1,1 C 88 % 1019,6 hPa 0,0 mm 3,9 km/h (1 Bft) N-NW 337 0 min -0,6 C 8,3 km/h (2 Bft)
15.02.2016 22:55 1,2 C 1,1 C 88 % 1019,6 hPa 0,0 mm 4,2 km/h (1 Bft) N-NW 337 0 min -0,6 C 4,2 km/h (1 Bft)
15.02.2016 22:56 1,2 C 1,1 C 88 % 1019,6 hPa 0,0 mm 4,2 km/h (1 Bft) N-NW 337 0 min -0,6 C 4,2 km/h (1 Bft)
15.02.2016 22:57 1,2 C 1,1 C 88 % 1019,6 hPa 0,0 mm 4,5 km/h (1 Bft) N-NO 22 0 min -0,6 C 6,9 km/h (2 Bft)
15.02.2016 22:58 1,2 C 1,1 C 88 % 1019,6 hPa 0,0 mm 4,5 km/h (1 Bft) N-NO 22 0 min -0,6 C 6,9 km/h (2 Bft)
15.02.2016 22:59 1,2 C 1,1 C 88 % 1019,6 hPa 0,0 mm 3,9 km/h (1 Bft) O-NO 67 0 min -0,6 C 3,0 km/h (1 Bft)
15.02.2016 23:00 1,2 C 1,1 C 88 % 1019,6 hPa 0,0 mm 3,9 km/h (1 Bft) O-NO 67 0 min -0,6 C 3,0 km/h (1 Bft)
15.02.2016 23:01 1,2 C 1,0 C 88 % 1019,6 hPa 0,0 mm 5,1 km/h (1 Bft) NW 315 0 min -0,6 C 5,7 km/h (1 Bft)
15.02.2016 23:02 1,2 C 1,0 C 88 % 1019,6 hPa 0,0 mm 5,1 km/h (1 Bft) NW 315 0 min -0,6 C 5,7 km/h (1 Bft)
15.02.2016 23:03 1,2 C 0,9 C 88 % 1019,9 hPa 0,0 mm 5,4 km/h (1 Bft) SW 225 0 min -0,6 C 5,4 km/h (1 Bft)
15.02.2016 23:04 1,2 C 0,9 C 88 % 1019,9 hPa 0,0 mm 5,4 km/h (1 Bft) SW 225 0 min -0,6 C 5,4 km/h (1 Bft)
15.02.2016 23:05 1,2 C 0,9 C 88 % 1019,9 hPa 0,0 mm 5,7 km/h (1 Bft) N-NW 337 0 min -0,6 C 5,1 km/h (1 Bft)
15.02.2016 23:06 1,2 C 0,9 C 88 % 1019,9 hPa 0,0 mm 5,7 km/h (1 Bft) N-NW 337 0 min -0,6 C 5,1 km/h (1 Bft)
15.02.2016 23:07 1,2 C 0,9 C 88 % 1019,9 hPa 0,0 mm 6,0 km/h (2 Bft) NW 315 0 min -0,6 C 6,3 km/h (2 Bft)
15.02.2016 23:08 1,2 C 0,9 C 88 % 1019,9 hPa 0,0 mm 6,0 km/h (2 Bft) NW 315 0 min -0,6 C 6,3 km/h (2 Bft)
15.02.2016 23:09 1,2 C 0,9 C 88 % 1019,9 hPa 0,0 mm 5,7 km/h (1 Bft) W 270 0 min -0,6 C 5,4 km/h (1 Bft)
15.02.2016 23:10 1,2 C 0,9 C 88 % 1019,9 hPa 0,0 mm 5,7 km/h (1 Bft) W 270 0 min -0,6 C 5,4 km/h (1 Bft)
15.02.2016 23:11 1,2 C 0,9 C 88 % 1019,9 hPa 0,0 mm 6,3 km/h (2 Bft) NW 315 0 min -0,6 C 16,1 km/h (3 Bft)
15.02.2016 23:12 1,2 C 0,9 C 88 % 1019,9 hPa 0,0 mm 6,3 km/h (2 Bft) NW 315 0 min -0,6 C 16,1 km/h (3 Bft)
15.02.2016 23:13 1,2 C 0,8 C 88 % 1019,9 hPa 0,0 mm 7,2 km/h (2 Bft) N-NO 22 0 min -0,6 C 14,6 km/h (3 Bft)
15.02.2016 23:14 1,2 C 0,8 C 88 % 1019,9 hPa 0,0 mm 7,2 km/h (2 Bft) N-NO 22 0 min -0,6 C 14,6 km/h (3 Bft)
15.02.2016 23:15 1,2 C 0,7 C 88 % 1019,9 hPa 0,0 mm 7,5 km/h (2 Bft) O-NO 67 0 min -0,6 C 17,6 km/h (3 Bft)
15.02.2016 23:16 1,2 C 0,7 C 88 % 1019,9 hPa 0,0 mm 7,5 km/h (2 Bft) O-NO 67 0 min -0,6 C 17,6 km/h (3 Bft)
15.02.2016 23:17 1,2 C 0,7 C 88 % 1019,9 hPa 0,0 mm 7,7 km/h (2 Bft) NO 45 0 min -0,6 C 8,9 km/h (2 Bft)
15.02.2016 23:18 1,2 C 0,7 C 88 % 1019,9 hPa 0,0 mm 7,7 km/h (2 Bft) NO 45 0 min -0,6 C 8,9 km/h (2 Bft)
15.02.2016 23:19 1,2 C 0,7 C 88 % 1019,9 hPa 0,0 mm 8,0 km/h (2 Bft) N-NW 337 0 min -0,6 C 7,2 km/h (2 Bft)
15.02.2016 23:20 1,2 C 0,7 C 88 % 1019,9 hPa 0,0 mm 8,0 km/h (2 Bft) N-NW 337 0 min -0,6 C 7,2 km/h (2 Bft)
15.02.2016 23:21 1,2 C 0,6 C 88 % 1019,9 hPa 0,0 mm 8,6 km/h (2 Bft) N-NO 22 0 min -0,6 C 8,0 km/h (2 Bft)
15.02.2016 23:22 1,2 C 0,6 C 88 % 1019,9 hPa 0,0 mm 8,6 km/h (2 Bft) N-NO 22 0 min -0,6 C 8,0 km/h (2 Bft)
15.02.2016 23:23 1,2 C 0,8 C 88 % 1020,1 hPa 0,0 mm 7,2 km/h (2 Bft) NW 315 0 min -0,6 C 9,5 km/h (2 Bft)
15.02.2016 23:24 1,2 C 0,8 C 88 % 1020,1 hPa 0,0 mm 7,2 km/h (2 Bft) NW 315 0 min -0,6 C 9,5 km/h (2 Bft)
15.02.2016 23:25 1,2 C 0,8 C 88 % 1020,1 hPa 0,0 mm 6,6 km/h (2 Bft) O 90 0 min -0,6 C 3,0 km/h (1 Bft)
15.02.2016 23:26 1,2 C 0,8 C 88 % 1020,1 hPa 0,0 mm 6,6 km/h (2 Bft) O 90 0 min -0,6 C 3,0 km/h (1 Bft)
15.02.2016 23:27 1,2 C 0,9 C 88 % 1020,1 hPa 0,0 mm 6,0 km/h (2 Bft) N-NW 337 0 min -0,6 C 10,1 km/h (2 Bft)
15.02.2016 23:28 1,2 C 0,9 C 88 % 1020,1 hPa 0,0 mm 6,0 km/h (2 Bft) N-NW 337 0 min -0,6 C 10,1 km/h (2 Bft)
15.02.2016 23:29 1,2 C 0,9 C 88 % 1020,1 hPa 0,0 mm 5,7 km/h (1 Bft) W-NW 292 0 min -0,6 C 9,5 km/h (2 Bft)
15.02.2016 23:30 1,2 C 0,9 C 88 % 1020,1 hPa 0,0 mm 5,7 km/h (1 Bft) W-NW 292 0 min -0,6 C 9,5 km/h (2 Bft)
15.02.2016 23:31 1,2 C 0,9 C 88 % 1020,1 hPa 0,0 mm 5,7 km/h (1 Bft) N-NO 22 0 min -0,6 C 6,9 km/h (2 Bft)
15.02.2016 23:32 1,2 C 0,9 C 88 % 1020,1 hPa 0,0 mm 5,7 km/h (1 Bft) N-NO 22 0 min -0,6 C 6,9 km/h (2 Bft)
15.02.2016 23:33 1,2 C 0,9 C 88 % 1020,1 hPa 0,0 mm 5,4 km/h (1 Bft) N-NW 337 0 min -0,6 C 6,3 km/h (2 Bft)
15.02.2016 23:34 1,2 C 0,9 C 88 % 1020,1 hPa 0,0 mm 5,4 km/h (1 Bft) N-NW 337 0 min -0,6 C 6,3 km/h (2 Bft)
15.02.2016 23:35 1,2 C 0,9 C 88 % 1020,1 hPa 0,0 mm 5,7 km/h (1 Bft) N-NO 22 0 min -0,6 C 9,8 km/h (2 Bft)
15.02.2016 23:36 1,2 C 0,9 C 88 % 1020,1 hPa 0,0 mm 5,7 km/h (1 Bft) N-NO 22 0 min -0,6 C 9,8 km/h (2 Bft)
15.02.2016 23:37 1,2 C 0,9 C 88 % 1020,1 hPa 0,0 mm 6,3 km/h (2 Bft) N-NO 22 0 min -0,6 C 9,8 km/h (2 Bft)
15.02.2016 23:38 1,2 C 0,9 C 88 % 1020,1 hPa 0,0 mm 6,3 km/h (2 Bft) N-NO 22 0 min -0,6 C 9,8 km/h (2 Bft)
15.02.2016 23:39 1,2 C 0,9 C 88 % 1020,1 hPa 0,0 mm 6,0 km/h (2 Bft) N 360 0 min -0,6 C 8,0 km/h (2 Bft)
15.02.2016 23:40 1,2 C 0,9 C 88 % 1020,1 hPa 0,0 mm 6,0 km/h (2 Bft) N 360 0 min -0,6 C 8,0 km/h (2 Bft)
15.02.2016 23:41 1,2 C 0,9 C 88 % 1020,1 hPa 0,0 mm 6,0 km/h (2 Bft) N-NO 22 0 min -0,6 C 8,3 km/h (2 Bft)
15.02.2016 23:42 1,2 C 0,9 C 88 % 1020,1 hPa 0,0 mm 6,0 km/h (2 Bft) N-NO 22 0 min -0,6 C 8,3 km/h (2 Bft)
15.02.2016 23:43 1,2 C 0,9 C 88 % 1020,6 hPa 0,0 mm 6,0 km/h (2 Bft) NO 45 0 min -0,6 C 11,6 km/h (2 Bft)
15.02.2016 23:44 1,2 C 0,9 C 88 % 1020,6 hPa 0,0 mm 6,0 km/h (2 Bft) NO 45 0 min -0,6 C 11,6 km/h (2 Bft)
15.02.2016 23:45 1,2 C 0,8 C 88 % 1020,6 hPa 0,0 mm 6,3 km/h (2 Bft) NW 315 0 min -0,6 C 6,0 km/h (2 Bft)
15.02.2016 23:46 1,2 C 0,8 C 88 % 1020,6 hPa 0,0 mm 6,3 km/h (2 Bft) NW 315 0 min -0,6 C 6,0 km/h (2 Bft)
15.02.2016 23:47 1,2 C 1,0 C 88 % 1020,6 hPa 0,0 mm 5,1 km/h (1 Bft) N-NW 337 0 min -0,6 C 3,3 km/h (1 Bft)
15.02.2016 23:48 1,2 C 1,0 C 88 % 1020,6 hPa 0,0 mm 5,1 km/h (1 Bft) N-NW 337 0 min -0,6 C 3,3 km/h (1 Bft)
15.02.2016 23:49 1,1 C 0,9 C 88 % 1020,6 hPa 0,0 mm 5,4 km/h (1 Bft) N 360 0 min -0,7 C 14,0 km/h (3 Bft)
15.02.2016 23:50 1,1 C 0,9 C 88 % 1020,6 hPa 0,0 mm 5,4 km/h (1 Bft) N 360 0 min -0,7 C 14,0 km/h (3 Bft)
15.02.2016 23:51 1,2 C 0,9 C 88 % 1020,6 hPa 0,0 mm 5,4 km/h (1 Bft) O-NO 67 0 min -0,6 C 8,6 km/h (2 Bft)
15.02.2016 23:52 1,2 C 0,9 C 88 % 1020,6 hPa 0,0 mm 5,4 km/h (1 Bft) O-NO 67 0 min -0,6 C 8,6 km/h (2 Bft)
15.02.2016 23:53 1,2 C 1,0 C 88 % 1020,6 hPa 0,0 mm 4,8 km/h (1 Bft) NO 45 0 min -0,6 C 3,3 km/h (1 Bft)
15.02.2016 23:54 1,2 C 1,0 C 88 % 1020,6 hPa 0,0 mm 4,8 km/h (1 Bft) NO 45 0 min -0,6 C 3,3 km/h (1 Bft)
15.02.2016 23:55 1,2 C 1,0 C 88 % 1020,6 hPa 0,0 mm 3,6 km/h (1 Bft) O-SO 112 0 min -0,6 C 0,0 km/h (0 Bft)
15.02.2016 23:56 1,2 C 1,0 C 88 % 1020,6 hPa 0,0 mm 3,6 km/h (1 Bft) O-SO 112 0 min -0,6 C 0,0 km/h (0 Bft)
15.02.2016 23:57 1,1 C 0,9 C 88 % 1020,6 hPa 0,0 mm 3,3 km/h (1 Bft) NO 45 0 min -0,7 C 11,9 km/h (2 Bft)
15.02.2016 23:58 1,1 C 0,9 C 88 % 1020,6 hPa 0,0 mm 3,3 km/h (1 Bft) NO 45 0 min -0,7 C 11,9 km/h (2 Bft)
15.02.2016 23:59 1,1 C 0,9 C 88 % 1020,6 hPa 0,0 mm 3,9 km/h (1 Bft) O-NO 67 0 min -0,7 C 4,2 km/h (1 Bft)
_ Min-Zeit 05:54 05:54 14:54 00:02 - 18:16 - - - 05:58 23:56
Minimum _ -0,7 C -1,0 C 79 % 997,0 hPa - 0,0 km/h (0 Bft) - - - -2,4 C 0,0 km/h (0 Bft)
_ Max-Zeit 13:59 13:59 08:42 23:59 18:45 21:32 - - 23:59 11:28 21:24
Maximum _ 3,9 C 6,2 C 94 % 1020,6 hPa 0,7 mm 11,0 km/h
W-NW (2 Bft)
- - 0 min 1,3 C 22,4 km/h
N-NW (4 Bft)
Durchschnitt _ 1,3 C 1,4 C 88 % 1007,5 hPa #1,4 mm 2,0 km/h (1 Bft) NW - #0 min. -0,5 C 2,6 km/h (1 Bft)